[[{"header":{"parameterUnit":"m.s-1","parameterCategory":1,"la1":30.6,"la2":29.2853,"lo1":-89.7004,"lo2":-87.6739,"dy":0.0162,"dx":0.0183,"nx":112,"ny":82,"refTime":"2026-03-16T00:00:00:Z","depth":0,"parameterNumber":2,"parameterNumberName":"U-component_of_WINDS"},"data":[0.0,0.0,0.0,0.0,0.0,0.0,0.0,0.0,0.0,0.0,0.0,0.0,0.0,0.0,0.0,0.0,0.0,0.0,0.0,0.0,0.0,0.0,0.0,0.0,0.0,0.0,0.0,0.0,0.0,0.0,0.0,0.0,0.0,0.0,0.0,0.0,0.0,0.0,0.0,0.0,0.0,0.0,0.0,0.0,0.0,0.0,0.0,0.0,0.0,0.0,0.0,0.0,0.0,0.0,0.0,0.0,0.0,0.0,0.0,0.0,0.0,0.0,0.0,0.0,0.0,0.0,0.0,0.0,0.0,0.0,0.0,0.0,0.0,0.0,0.0,0.0,0.0,0.0,0.0,0.0,0.0,0.0,0.0,0.0,0.0,0.0,0.0,0.0,0.0,0.0,-4.0028,-4.0248,-4.15,-4.2337,-4.2455,-4.2848,-4.1521,-3.7785,0.0,0.0,0.0,0.0,0.0,0.0,0.0,0.0,0.0,0.0,0.0,0.0,0.0,0.0,0.0,0.0,0.0,0.0,0.0,0.0,0.0,0.0,0.0,0.0,0.0,0.0,0.0,0.0,0.0,0.0,0.0,0.0,0.0,0.0,0.0,0.0,0.0,0.0,0.0,0.0,0.0,0.0,0.0,0.0,0.0,0.0,0.0,0.0,0.0,0.0,0.0,0.0,0.0,0.0,0.0,0.0,0.0,0.0,0.0,0.0,0.0,0.0,0.0,0.0,0.0,0.0,0.0,0.0,0.0,0.0,0.0,0.0,0.0,0.0,0.0,0.0,0.0,0.0,0.0,0.0,0.0,0.0,0.0,0.0,0.0,0.0,0.0,0.0,0.0,0.0,0.0,0.0,0.0,0.0,0.0,0.0,0.0,0.0,0.0,0.0,0.0,0.0,0.0,0.0,-3.9648,-4.0899,-4.1779,-4.254,-4.32,-4.2289,-4.0756,-3.8481,0.0,0.0,0.0,0.0,0.0,0.0,0.0,0.0,0.0,0.0,0.0,0.0,0.0,0.0,0.0,0.0,0.0,0.0,0.0,0.0,0.0,0.0,0.0,0.0,0.0,0.0,0.0,0.0,0.0,0.0,0.0,0.0,0.0,0.0,0.0,0.0,0.0,0.0,0.0,0.0,0.0,0.0,0.0,0.0,0.0,0.0,0.0,0.0,0.0,0.0,0.0,0.0,0.0,0.0,0.0,0.0,0.0,0.0,0.0,0.0,0.0,0.0,0.0,0.0,0.0,0.0,0.0,0.0,0.0,0.0,0.0,0.0,0.0,0.0,0.0,0.0,0.0,0.0,0.0,0.0,0.0,0.0,0.0,0.0,0.0,0.0,0.0,0.0,0.0,0.0,0.0,0.0,0.0,0.0,0.0,0.0,0.0,0.0,0.0,0.0,0.0,0.0,0.0,-4.0138,-4.0595,-4.1677,-4.2455,-4.3217,-4.3978,-4.2406,-4.0743,-3.9153,-3.8479,0.0,0.0,0.0,0.0,0.0,0.0,0.0,0.0,0.0,0.0,0.0,0.0,0.0,0.0,0.0,0.0,0.0,0.0,0.0,0.0,0.0,0.0,0.0,0.0,0.0,0.0,0.0,0.0,0.0,0.0,0.0,0.0,0.0,0.0,0.0,0.0,0.0,0.0,0.0,0.0,0.0,0.0,0.0,0.0,0.0,0.0,0.0,0.0,0.0,0.0,0.0,0.0,0.0,0.0,0.0,0.0,0.0,0.0,0.0,0.0,0.0,0.0,0.0,0.0,0.0,0.0,0.0,0.0,0.0,0.0,0.0,0.0,0.0,0.0,0.0,0.0,0.0,0.0,0.0,0.0,0.0,0.0,0.0,0.0,0.0,0.0,0.0,0.0,0.0,0.0,0.0,0.0,0.0,0.0,0.0,0.0,0.0,0.0,0.0,0.0,0.0,0.0,-4.0653,-4.1559,-4.2455,-4.3064,-4.3669,-4.4288,-4.2363,-4.0574,-3.9292,-3.7673,0.0,0.0,0.0,0.0,0.0,0.0,0.0,0.0,0.0,0.0,0.0,0.0,0.0,0.0,0.0,0.0,0.0,0.0,0.0,0.0,0.0,0.0,0.0,0.0,0.0,0.0,0.0,0.0,0.0,0.0,0.0,0.0,0.0,0.0,0.0,0.0,0.0,0.0,0.0,0.0,0.0,0.0,0.0,0.0,0.0,0.0,0.0,0.0,0.0,0.0,0.0,0.0,0.0,0.0,0.0,0.0,0.0,0.0,0.0,0.0,0.0,0.0,0.0,0.0,0.0,0.0,0.0,0.0,0.0,0.0,0.0,0.0,0.0,0.0,0.0,0.0,0.0,0.0,0.0,0.0,0.0,0.0,0.0,0.0,0.0,0.0,0.0,0.0,0.0,0.0,0.0,0.0,0.0,0.0,0.0,0.0,0.0,0.0,0.0,0.0,0.0,0.0,-4.0402,-4.1762,-4.3156,-4.3358,-4.344,-4.358,-4.1615,-3.9778,-3.8382,-3.6706,0.0,0.0,0.0,0.0,0.0,0.0,0.0,0.0,0.0,0.0,0.0,0.0,0.0,0.0,0.0,0.0,0.0,0.0,0.0,0.0,0.0,0.0,0.0,0.0,0.0,0.0,0.0,0.0,0.0,0.0,0.0,0.0,0.0,0.0,0.0,0.0,0.0,0.0,0.0,0.0,0.0,0.0,0.0,0.0,0.0,0.0,0.0,0.0,0.0,0.0,0.0,0.0,0.0,0.0,0.0,0.0,0.0,0.0,0.0,0.0,0.0,0.0,0.0,0.0,0.0,0.0,0.0,0.0,0.0,0.0,0.0,0.0,0.0,0.0,0.0,0.0,0.0,0.0,0.0,0.0,0.0,0.0,0.0,0.0,0.0,0.0,0.0,0.0,0.0,0.0,0.0,0.0,0.0,0.0,0.0,0.0,0.0,0.0,0.0,0.0,0.0,0.0,-3.9856,-4.107,-4.2045,-4.2568,-4.2827,-4.2753,-4.0858,-3.9232,-3.8137,0.0,0.0,0.0,0.0,0.0,0.0,0.0,0.0,0.0,0.0,0.0,0.0,0.0,0.0,0.0,0.0,0.0,0.0,0.0,0.0,0.0,0.0,0.0,0.0,0.0,0.0,0.0,0.0,0.0,0.0,0.0,0.0,0.0,0.0,0.0,0.0,0.0,0.0,0.0,0.0,0.0,0.0,0.0,0.0,0.0,0.0,0.0,0.0,0.0,0.0,0.0,0.0,0.0,0.0,0.0,0.0,0.0,0.0,0.0,0.0,0.0,0.0,0.0,0.0,0.0,0.0,0.0,0.0,0.0,0.0,0.0,0.0,0.0,0.0,0.0,0.0,0.0,0.0,0.0,0.0,0.0,0.0,0.0,0.0,0.0,0.0,0.0,0.0,0.0,0.0,0.0,0.0,0.0,0.0,0.0,0.0,0.0,0.0,0.0,0.0,0.0,0.0,-3.8104,-3.9436,-4.0605,-4.1588,-4.2073,-4.214,-4.1598,-4.0039,-3.8591,-3.7374,0.0,0.0,0.0,0.0,0.0,0.0,0.0,0.0,0.0,0.0,0.0,0.0,0.0,0.0,0.0,0.0,0.0,0.0,0.0,0.0,0.0,0.0,0.0,0.0,0.0,0.0,0.0,0.0,0.0,0.0,0.0,0.0,0.0,0.0,0.0,0.0,0.0,0.0,0.0,0.0,0.0,0.0,0.0,0.0,0.0,0.0,0.0,0.0,0.0,0.0,0.0,0.0,0.0,0.0,0.0,0.0,0.0,0.0,0.0,0.0,0.0,0.0,0.0,0.0,0.0,0.0,0.0,0.0,0.0,0.0,0.0,0.0,0.0,0.0,0.0,0.0,0.0,0.0,0.0,0.0,0.0,0.0,0.0,0.0,0.0,0.0,0.0,0.0,0.0,0.0,0.0,0.0,0.0,0.0,0.0,0.0,0.0,0.0,0.0,0.0,0.0,0.0,-3.8056,-3.9196,-4.0491,-4.2108,-4.2093,-4.1421,-4.0107,-3.9178,-3.7846,0.0,0.0,0.0,0.0,0.0,0.0,0.0,0.0,0.0,0.0,0.0,0.0,0.0,0.0,0.0,0.0,0.0,0.0,0.0,0.0,0.0,0.0,0.0,0.0,0.0,0.0,0.0,0.0,0.0,0.0,0.0,0.0,0.0,0.0,0.0,0.0,0.0,0.0,0.0,0.0,0.0,0.0,0.0,0.0,0.0,0.0,0.0,0.0,0.0,0.0,0.0,0.0,0.0,0.0,0.0,0.0,0.0,0.0,0.0,0.0,0.0,0.0,0.0,0.0,0.0,0.0,0.0,0.0,0.0,0.0,0.0,0.0,0.0,0.0,0.0,0.0,0.0,0.0,0.0,0.0,0.0,0.0,0.0,0.0,0.0,0.0,0.0,0.0,0.0,0.0,0.0,0.0,0.0,0.0,0.0,0.0,0.0,0.0,0.0,0.0,0.0,0.0,0.0,-3.649,-3.7786,-3.9084,-4.0526,-4.0217,-3.9677,-3.9135,-3.7971,-3.6591,-3.4988,0.0,0.0,0.0,0.0,0.0,0.0,0.0,0.0,0.0,0.0,0.0,0.0,0.0,0.0,0.0,0.0,0.0,0.0,0.0,0.0,0.0,0.0,0.0,0.0,0.0,0.0,0.0,0.0,0.0,0.0,0.0,0.0,0.0,0.0,0.0,0.0,0.0,0.0,0.0,0.0,0.0,0.0,0.0,0.0,0.0,0.0,0.0,0.0,0.0,0.0,0.0,0.0,0.0,0.0,0.0,0.0,0.0,0.0,0.0,0.0,0.0,0.0,0.0,0.0,0.0,0.0,0.0,0.0,0.0,0.0,0.0,0.0,0.0,0.0,0.0,0.0,0.0,0.0,0.0,0.0,0.0,0.0,0.0,0.0,0.0,0.0,0.0,0.0,0.0,0.0,0.0,0.0,0.0,0.0,0.0,0.0,0.0,0.0,0.0,0.0,0.0,0.0,-3.5696,-3.6977,-3.8197,-3.9375,-3.9033,-3.851,-3.7861,-3.7064,-3.5672,-3.3458,0.0,0.0,0.0,0.0,0.0,0.0,0.0,0.0,0.0,0.0,0.0,0.0,0.0,0.0,0.0,0.0,0.0,0.0,0.0,0.0,0.0,0.0,0.0,0.0,0.0,0.0,0.0,0.0,0.0,0.0,0.0,0.0,0.0,0.0,0.0,0.0,0.0,0.0,0.0,0.0,0.0,0.0,0.0,0.0,0.0,0.0,0.0,0.0,0.0,0.0,0.0,0.0,0.0,0.0,0.0,0.0,0.0,0.0,0.0,0.0,0.0,0.0,0.0,0.0,0.0,0.0,0.0,0.0,0.0,0.0,0.0,0.0,0.0,0.0,0.0,0.0,0.0,0.0,0.0,0.0,0.0,0.0,0.0,0.0,0.0,0.0,0.0,0.0,0.0,0.0,0.0,0.0,0.0,0.0,0.0,0.0,0.0,0.0,0.0,0.0,0.0,0.0,-3.549,-3.6637,-3.7668,-3.8577,-3.8357,-3.763,-3.65,-3.6283,-3.4875,-3.1776,0.0,0.0,0.0,0.0,0.0,0.0,0.0,0.0,0.0,0.0,0.0,0.0,0.0,0.0,0.0,0.0,0.0,0.0,0.0,0.0,0.0,0.0,0.0,0.0,0.0,0.0,0.0,0.0,0.0,0.0,0.0,0.0,0.0,0.0,0.0,0.0,0.0,0.0,0.0,0.0,0.0,0.0,0.0,0.0,0.0,0.0,0.0,0.0,0.0,0.0,0.0,0.0,0.0,0.0,0.0,0.0,0.0,0.0,0.0,0.0,-3.3429,-3.3675,0.0,0.0,0.0,0.0,0.0,0.0,0.0,0.0,0.0,0.0,0.0,0.0,0.0,0.0,0.0,0.0,0.0,0.0,0.0,0.0,0.0,0.0,0.0,0.0,0.0,0.0,0.0,0.0,0.0,0.0,0.0,0.0,0.0,0.0,0.0,0.0,0.0,0.0,0.0,0.0,-3.5389,-3.6226,-3.7154,-3.8342,-3.697,-3.5853,-3.5575,-3.4545,-3.3203,-3.1551,-3.1002,0.0,0.0,0.0,0.0,0.0,0.0,0.0,0.0,0.0,0.0,0.0,0.0,0.0,0.0,0.0,0.0,0.0,0.0,0.0,0.0,0.0,0.0,0.0,0.0,0.0,0.0,0.0,0.0,0.0,0.0,0.0,0.0,0.0,0.0,0.0,0.0,0.0,0.0,0.0,0.0,0.0,0.0,0.0,0.0,0.0,0.0,0.0,0.0,0.0,0.0,0.0,0.0,0.0,0.0,0.0,0.0,0.0,0.0,0.0,-3.4243,-3.4351,0.0,0.0,0.0,0.0,0.0,0.0,0.0,0.0,0.0,0.0,0.0,0.0,0.0,0.0,0.0,0.0,0.0,0.0,0.0,0.0,0.0,0.0,0.0,0.0,0.0,0.0,0.0,0.0,0.0,0.0,0.0,0.0,0.0,0.0,0.0,0.0,0.0,0.0,0.0,0.0,-3.4063,-3.5163,-3.6197,-3.6847,-3.5627,-3.4767,-3.4732,-3.3776,-3.2646,-3.1371,-3.0491,0.0,0.0,0.0,0.0,0.0,0.0,0.0,0.0,0.0,0.0,0.0,0.0,0.0,0.0,0.0,0.0,0.0,0.0,0.0,0.0,0.0,0.0,0.0,0.0,0.0,0.0,0.0,0.0,0.0,0.0,0.0,0.0,0.0,0.0,0.0,0.0,0.0,0.0,0.0,0.0,0.0,0.0,0.0,0.0,0.0,0.0,0.0,0.0,0.0,0.0,0.0,0.0,0.0,-3.5486,-3.5815,-3.5095,-3.5747,-3.6089,-3.6151,-3.5475,-3.546,-3.583,-3.583,0.0,0.0,0.0,0.0,0.0,0.0,0.0,0.0,0.0,0.0,0.0,0.0,0.0,0.0,0.0,0.0,0.0,0.0,0.0,0.0,0.0,0.0,0.0,0.0,-3.1818,-3.2416,-3.3243,0.0,0.0,0.0,0.0,0.0,0.0,0.0,0.0,0.0,0.0,0.0,-3.2603,-3.3951,-3.4967,-3.5102,-3.4349,-3.3828,-3.3756,-3.3203,-3.2294,-3.1069,-3.0051,-2.8545,0.0,0.0,0.0,0.0,0.0,0.0,0.0,0.0,0.0,0.0,0.0,0.0,0.0,0.0,0.0,0.0,0.0,0.0,0.0,0.0,0.0,0.0,0.0,0.0,0.0,0.0,0.0,0.0,0.0,0.0,0.0,0.0,-3.1567,-3.3082,0.0,0.0,0.0,0.0,0.0,0.0,0.0,0.0,0.0,0.0,0.0,0.0,0.0,-3.3174,-3.3767,-3.519,-3.5608,-3.503,-3.638,-3.6886,-3.6642,-3.7173,-3.7698,-3.8125,-3.8015,0.0,-3.723,-3.723,0.0,0.0,0.0,0.0,0.0,0.0,0.0,0.0,0.0,0.0,0.0,0.0,0.0,0.0,0.0,0.0,0.0,0.0,0.0,0.0,0.0,0.0,-3.1312,-3.187,-3.2055,-3.2332,0.0,-3.2382,-3.1556,-3.1485,-3.0954,-3.0541,0.0,0.0,0.0,0.0,0.0,0.0,-3.2353,-3.3035,-3.3691,-3.4285,-3.3149,-3.2377,-3.2377,-3.168,-3.0985,-3.0296,-2.9652,-2.9158,-2.883,-2.7213,0.0,0.0,0.0,0.0,0.0,0.0,0.0,0.0,0.0,0.0,0.0,0.0,0.0,0.0,0.0,0.0,0.0,0.0,0.0,0.0,0.0,0.0,0.0,0.0,0.0,0.0,0.0,0.0,0.0,-3.1085,-3.2136,-3.3182,-3.2972,-3.2725,0.0,0.0,0.0,0.0,0.0,0.0,0.0,0.0,0.0,-3.3653,-3.3684,-3.403,-3.4754,-3.5802,-3.6061,-3.5605,-3.7086,-3.7622,-3.7375,-3.801,-3.8642,-3.9226,-3.9111,-3.9123,-3.9139,-3.8385,-3.7846,-3.7429,0.0,0.0,0.0,0.0,-3.2923,-3.2335,-3.1946,-3.1974,-3.2121,-3.1522,0.0,0.0,0.0,0.0,0.0,0.0,0.0,-3.0294,0.0,0.0,-3.1086,-3.1394,-3.1468,-3.1579,-3.1896,-3.1528,-3.1268,0.0,-3.1035,-3.0422,-3.0401,-2.9604,0.0,0.0,0.0,-3.1259,-3.0809,-3.1826,-3.2674,-3.2985,-3.2104,-3.1601,-3.192,-3.1382,-3.1026,-3.1053,-3.0218,-2.9542,-2.9158,-2.8313,-2.7575,0.0,0.0,0.0,0.0,0.0,0.0,0.0,0.0,0.0,0.0,0.0,0.0,0.0,0.0,0.0,0.0,0.0,0.0,0.0,0.0,0.0,0.0,0.0,0.0,0.0,0.0,0.0,0.0,-3.1665,-3.2355,-3.3198,-3.3151,-3.294,0.0,0.0,0.0,0.0,0.0,0.0,-3.3783,-3.334,-3.3636,-3.4794,-3.4841,-3.5189,-3.5916,-3.6364,-3.6564,-3.6483,-3.7575,-3.8138,-3.8256,-3.875,-3.9336,-3.997,-3.96,-3.9722,-4.0139,-3.9146,-3.833,-3.7676,-3.7296,-3.5974,-3.4209,-3.3702,-3.3345,-3.3061,-3.2725,-3.3176,-3.372,-3.2528,-3.1739,-3.098,-2.9315,0.0,0.0,0.0,0.0,-3.1013,-3.1169,-3.1209,-3.1209,-3.1209,-3.1091,-3.0986,-3.0986,-3.0986,-3.1177,0.0,-3.1017,-3.0295,-3.0135,-2.9203,0.0,-2.7722,-2.9477,-3.0533,-2.9558,-3.085,-3.1809,-3.1809,-3.1334,-3.1156,-3.1549,-3.1235,-3.1235,-3.1771,-3.0976,-3.0201,-2.9663,-2.9398,-2.8543,-2.6922,0.0,0.0,0.0,0.0,0.0,0.0,0.0,0.0,0.0,0.0,0.0,0.0,0.0,0.0,0.0,0.0,0.0,0.0,0.0,0.0,0.0,0.0,0.0,0.0,0.0,0.0,0.0,0.0,0.0,-3.3135,-3.275,0.0,0.0,0.0,0.0,-3.4036,-3.3609,-3.3846,-3.5205,-3.5252,-3.5568,-3.6266,-3.6282,-3.6658,-3.7399,-3.7221,-3.7461,-3.809,-3.7857,-3.8428,-3.9696,-3.9529,-3.9847,-4.0409,-3.9647,-3.9326,-3.9367,-3.9432,-3.8975,-3.8133,-3.6793,-3.5375,-3.4082,-3.3919,-3.3536,-3.3183,-3.3637,-3.3867,-3.3856,-3.3648,-3.2163,-3.0401,-3.0095,-2.9287,0.0,0.0,-3.0516,-3.1117,-3.1615,-3.1758,-3.1758,-3.1758,-3.1378,-3.0986,-3.0986,-3.0986,-3.1011,0.0,-3.0551,-2.9938,-2.9433,0.0,-2.8206,-2.7596,-2.8572,-2.9368,-2.9306,-3.0328,-3.1061,-3.1061,-3.1024,-3.0999,-3.1026,-3.0999,-3.1235,-3.1771,-3.1565,-3.1397,-3.1371,-3.0535,-2.9732,-2.9048,-2.7927,0.0,0.0,0.0,0.0,0.0,0.0,0.0,0.0,0.0,0.0,0.0,0.0,0.0,0.0,0.0,0.0,0.0,0.0,0.0,0.0,0.0,0.0,0.0,0.0,0.0,0.0,0.0,0.0,-3.3198,-3.3087,0.0,-3.2687,-3.2977,-3.3324,-3.3625,-3.4273,-3.5063,-3.5982,-3.6058,-3.6374,-3.7085,-3.7101,-3.7227,-3.751,-3.7847,-3.8041,-3.8075,-3.8823,-3.9344,-3.9622,-3.9443,-3.9501,-3.9692,-3.8891,-3.8524,-3.8532,-3.8567,-3.8191,-3.7491,-3.6968,-3.5926,-3.4677,-3.4617,-3.441,-3.4231,-3.4409,-3.4721,-3.4939,-3.4258,-3.2535,-3.0771,-3.071,-3.0398,-3.015,-3.0555,-3.1352,-3.2045,-3.185,-3.1797,-3.1706,-3.1378,-3.113,-3.0986,-3.0986,-3.0986,-3.0986,-3.0986,-3.0516,-3.0035,-2.9862,-2.9353,-2.893,-2.8686,-2.9327,-2.9823,-2.9823,-3.0503,-3.0986,-3.0986,-3.0986,-3.0986,-3.0986,-3.0986,-3.1159,-3.1578,-3.1539,-3.1551,-3.162,-3.0978,-2.9717,-2.7766,-2.725,-2.5973,0.0,0.0,0.0,0.0,0.0,0.0,0.0,0.0,0.0,0.0,0.0,0.0,0.0,0.0,0.0,0.0,0.0,0.0,0.0,0.0,0.0,0.0,0.0,0.0,0.0,-3.1823,-3.256,-3.323,-3.3309,-3.3198,-3.3003,-3.3794,-3.4304,-3.4352,-3.5221,-3.6042,-3.6738,-3.6785,-3.7006,-3.7494,-3.751,-3.7621,-3.7828,-3.8164,-3.8435,-3.8683,-3.9474,-3.9818,-3.9844,-3.9445,-3.9305,-3.9233,-3.8153,-3.7701,-3.7663,-3.7396,-3.7039,-3.6656,-3.6934,-3.6316,-3.5235,-3.5235,-3.5203,-3.5087,-3.5087,-3.5142,-3.5076,-3.442,-3.3014,-3.1561,-3.1561,-3.1561,-3.1561,-3.1561,-3.2254,-3.2855,-3.2241,-3.2084,-3.1941,-3.1405,-3.1117,-3.0986,-3.0986,-3.0986,-3.0986,-3.0986,-3.0686,-3.0322,-3.014,-2.9823,-2.9497,-2.9349,-2.9771,-3.01,-3.01,-3.0634,-3.0986,-3.0986,-3.0986,-3.0986,-3.0986,-3.0766,-3.0658,-3.0842,-3.0508,-3.0298,-3.0134,-2.9853,-2.8758,-2.6797,-2.6318,-2.489,-2.2431,0.0,0.0,0.0,0.0,0.0,0.0,0.0,0.0,0.0,0.0,0.0,0.0,0.0,0.0,0.0,0.0,0.0,0.0,0.0,0.0,0.0,0.0,0.0,-3.116,-3.1864,-3.256,-3.323,-3.3309,-3.3561,-3.4225,-3.432,-3.4905,-3.6298,-3.6408,-3.6753,-3.7478,-3.751,-3.751,-3.751,-3.751,-3.7812,-3.8477,-3.82,-3.8683,-3.9992,-3.9673,-3.9859,-4.042,-3.9606,-3.9233,-3.9124,-3.7563,-3.6858,-3.678,-3.6017,-3.571,-3.579,-3.6559,-3.6401,-3.571,-3.571,-3.571,-3.571,-3.571,-3.5063,-3.4246,-3.4246,-3.3555,-3.2725,-3.2725,-3.2725,-3.2725,-3.2725,-3.3143,-3.3456,-3.2842,-3.2685,-3.2515,-3.1915,-3.1392,-3.0986,-3.0986,-3.0986,-3.0986,-3.0986,-3.0986,-3.0766,-3.0218,-3.0127,-2.9931,-2.9418,-2.981,0.0,-3.0127,-3.0647,-3.0986,-3.0986,-3.0986,-3.0949,-3.0949,-3.0179,-2.9653,-2.9435,-2.8565,-2.7758,-2.7058,-2.7168,-2.7019,-2.6421,-2.511,-2.3706,-2.2269,0.0,0.0,0.0,0.0,0.0,0.0,0.0,0.0,0.0,0.0,0.0,0.0,0.0,0.0,0.0,0.0,0.0,0.0,0.0,0.0,0.0,-3.0736,-3.1176,-3.1912,-3.2165,-3.256,-3.323,-3.3309,-3.3561,-3.4225,-3.4778,-3.5458,-3.6329,-3.6911,-3.7304,-3.7494,-3.751,-3.751,-3.751,-3.751,-3.7736,-3.8292,-3.8826,-3.9343,-3.984,-3.9814,-3.9722,-3.9585,-3.819,-3.7563,-3.7486,-3.648,-3.6017,-3.6017,-3.579,-3.571,-3.571,-3.5937,-3.5897,-3.571,-3.571,-3.571,-3.571,-3.571,-3.5332,-3.4832,-3.4832,-3.4163,-3.3352,-3.3352,-3.3352,-3.3352,-3.3352,-3.347,-3.3456,-3.2842,-3.2385,-3.1889,-3.1352,-3.1104,-3.0986,-3.0986,-3.0986,-3.0986,-3.0986,-3.0508,-3.0215,-3.0652,-3.0751,-3.0699,-3.0542,-3.0647,0.0,-3.0751,-3.0895,-3.0986,-3.0986,-3.0292,-2.9845,-2.9845,-2.8617,-2.7915,-2.81,-2.7569,-2.7266,-2.7295,-2.6978,-2.608,-2.4586,-2.3229,-2.2197,0.0,0.0,0.0,0.0,0.0,0.0,0.0,0.0,0.0,0.0,0.0,0.0,0.0,0.0,0.0,0.0,0.0,0.0,0.0,0.0,0.0,0.0,-3.1485,-3.2078,-3.2803,-3.2796,-3.285,-3.3245,-3.3546,-3.3988,-3.4683,-3.5394,-3.6121,-3.6817,-3.7243,-3.751,-3.751,-3.751,-3.751,-3.751,-3.751,-3.7766,-3.8323,-3.8984,-3.9339,-3.9392,-3.9551,-3.9341,-3.8745,-3.7486,-3.6897,-3.6858,-3.6057,-3.571,-3.571,-3.571,-3.571,0.0,0.0,0.0,0.0,0.0,-3.571,-3.571,-3.571,-3.544,-3.5086,-3.5086,-3.4559,-3.3927,-3.3927,-3.3927,-3.3792,-3.3217,-3.307,-3.2795,-3.1599,-3.1036,-3.0604,-3.0035,-2.9909,-2.9909,-2.9909,-2.9909,-2.9909,-2.9909,-2.9498,0.0,-2.9819,-2.9909,-2.9859,-2.9669,-2.9631,-2.9555,-2.9365,-2.9492,-2.9593,-2.9505,-2.9116,-2.8809,-2.873,-2.7433,0.0,0.0,0.0,-2.5283,-2.5365,-2.507,0.0,0.0,0.0,0.0,0.0,0.0,0.0,0.0,-2.1146,-2.1564,0.0,0.0,0.0,0.0,0.0,0.0,0.0,0.0,0.0,0.0,0.0,0.0,0.0,0.0,0.0,0.0,-3.2264,-3.2944,-3.3649,-3.3477,-3.3309,-3.3309,-3.3878,-3.4573,-3.5315,-3.6026,-3.6722,-3.7447,-3.751,-3.751,-3.751,-3.751,0.0,0.0,0.0,-3.7812,-3.8477,-3.8764,-3.892,-3.8892,-3.9007,-3.8744,-3.8063,-3.7179,-3.6741,-3.6702,-3.6017,-3.571,-3.571,-3.571,-3.571,-3.571,-3.571,-3.571,-3.571,-3.571,-3.571,-3.571,-3.5669,0.0,0.0,-3.5086,-3.4784,-3.4397,-3.4397,-3.4358,-3.4035,-3.2813,-3.2364,-3.1788,-2.9947,-2.9411,-2.9201,-2.8534,-2.8386,-2.8386,-2.8386,-2.8386,-2.8386,-2.8386,-2.8347,-2.8255,-2.8183,-2.8263,-2.8174,-2.777,-2.7649,-2.7456,-2.7048,-2.7374,-2.756,-2.7415,0.0,0.0,-2.7631,-2.6382,-2.5304,-2.4675,-2.3525,-2.2746,-2.2436,-2.2418,-2.2418,-2.2418,-2.2418,-2.2242,-2.188,-2.188,-2.1911,-2.1952,-2.1487,-2.1714,0.0,0.0,0.0,0.0,0.0,0.0,0.0,0.0,0.0,0.0,0.0,0.0,0.0,0.0,0.0,-3.196,-3.2498,-3.3019,-3.3903,-3.3607,-3.3309,-3.3309,-3.3878,-3.4573,-3.5315,-3.6026,-3.6722,-3.7447,-3.751,-3.751,-3.751,-3.751,-3.751,-3.751,-3.751,-3.7736,-3.8245,-3.8387,-3.884,-3.9591,-3.8361,0.0,-3.8063,-3.657,-3.5937,-3.5897,-3.575,-3.571,-3.571,-3.571,-3.571,-3.571,-3.571,-3.571,-3.571,-3.571,-3.571,-3.5669,-3.5521,-3.5318,-3.5086,-3.4921,-3.466,-3.4397,-3.4397,-3.4097,0.0,-3.345,-3.2655,-3.168,-3.062,-2.997,-2.9401,-2.8609,-2.8386,-2.8386,-2.8386,-2.8386,-2.8386,-2.8386,-2.7879,-2.7279,-2.6878,-2.7387,-2.7818,-2.7722,-2.7398,-2.7096,-2.7,-2.7072,-2.7214,-2.7365,-2.6723,-2.63,-2.6408,-2.4765,-2.3636,-2.3537,-2.2576,-2.2001,-2.1932,-2.1942,-2.1942,-2.1942,-2.1942,-2.2087,-2.2366,-2.2366,-2.2553,-2.2915,-2.2449,-2.2325,0.0,0.0,0.0,0.0,0.0,0.0,0.0,0.0,0.0,0.0,0.0,-2.7218,-2.7919,0.0,-3.0611,-3.1788,-3.2894,-3.3721,-3.4052,-3.3745,-3.345,-3.3335,-3.4209,-3.4984,-3.5347,-3.6342,-3.7101,-3.7478,-3.751,-3.751,-3.751,-3.751,-3.751,-3.751,-3.751,-3.7608,-3.7849,-3.7686,-3.7671,-3.7748,-3.7033,-3.6627,-3.642,-3.592,-3.571,-3.571,-3.571,-3.571,-3.571,-3.571,-3.571,-3.571,-3.571,-3.571,-3.571,-3.571,-3.571,-3.5669,-3.548,-3.5277,-3.5086,-3.488,-3.4618,-3.4345,-3.4071,-3.3496,-3.2736,-3.1713,-3.0717,-2.9646,-2.8554,-2.7998,-2.7689,-2.7244,-2.7162,-2.7162,-2.7162,-2.7162,-2.7162,-2.7162,-2.6642,-2.612,-2.5862,-2.5745,-2.5724,-2.5724,-2.5516,-2.5263,-2.5047,-2.5194,-2.5344,-2.5237,-2.5178,-2.5128,-2.5025,-2.3895,-2.2987,-2.2532,-2.2066,-2.1807,-2.1807,-2.1807,-2.1911,-2.2149,-2.2149,-2.2377,-2.2842,-2.2842,-2.308,-2.3525,-2.3298,-2.3184,0.0,0.0,0.0,0.0,0.0,0.0,0.0,0.0,-2.6803,-2.6698,-2.6797,-2.7104,-2.7735,-2.9462,-3.1013,-3.1702,-3.3291,-3.4349,-3.4126,-3.3873,-3.3607,-3.3319,-3.4541,-3.5442,-3.5584,-3.6738,-3.751,-3.751,-3.751,-3.751,-3.751,-3.751,-3.751,-3.751,-3.751,-3.751,-3.751,-3.711,-3.66,-3.594,-3.5877,-3.5567,-3.5063,-3.5356,-3.5601,-3.571,-3.571,-3.571,-3.571,-3.571,-3.571,-3.571,-3.571,-3.571,-3.571,-3.571,-3.5669,-3.5602,-3.5399,-3.5195,-3.5003,-3.4797,-3.4374,-3.39,-3.3459,-3.2574,-3.1398,-2.9743,-2.871,-2.778,-2.6474,-2.6146,-2.6104,-2.5937,-2.5895,-2.5895,-2.5895,-2.5895,-2.5895,-2.5895,-2.5579,-2.5303,-2.5117,-2.4388,-2.3804,-2.3705,-2.3607,-2.3411,-2.3018,-2.3264,-2.3394,-2.3066,-2.3716,-2.4019,-2.3649,-2.3267,-2.2697,-2.1859,-2.1807,-2.1849,-2.1932,-2.1942,-2.2159,-2.2625,-2.2635,-2.2863,-2.3318,-2.3318,-2.3557,-2.4002,-2.4002,-2.4002,-2.2166,-2.3311,-2.4531,-2.5205,-2.6177,-2.6842,0.0,0.0,-2.6842,-2.6369,-2.6834,-2.7625,-2.8574,-2.9873,-3.1177,-3.2393,-3.3459,-3.4126,-3.4101,-3.3873,-3.3607,-3.3319,-3.4541,-3.5631,-3.6219,-3.7022,-3.751,-3.751,-3.751,-3.751,-3.751,-3.751,-3.751,-3.751,-3.751,-3.751,-3.751,-3.7153,-3.6908,-3.6736,-3.5781,-3.5482,-3.5829,-3.5182,-3.5181,-3.571,-3.571,-3.571,-3.571,-3.571,-3.571,-3.571,-3.571,-3.571,-3.571,-3.571,-3.5602,-3.5399,-3.5195,-3.5003,-3.4797,-3.4535,-3.3588,-3.2541,-3.2478,-3.1141,-2.9605,-2.9362,-2.8855,-2.8139,-2.7278,-2.7062,-2.6857,-2.6063,-2.5895,-2.5895,-2.5895,-2.5895,-2.5895,-2.5895,-2.5852,-2.5557,-2.4716,-2.4476,-2.4246,-2.376,-2.3362,-2.2992,-2.274,-2.2783,-2.2837,-2.284,-2.2937,-2.2882,-2.2685,-2.2604,-2.2356,-2.1838,-2.1807,-2.1994,-2.2397,-2.2418,-2.2635,-2.3101,-2.3111,-2.3339,-2.3805,-2.3805,-2.4033,-2.4425,-2.4425,-2.4425,-2.3518,-2.4065,-2.4434,0.0,-2.5977,-2.6141,-2.5535,-2.5875,-2.6254,-2.6117,-2.6663,-2.7386,-2.8107,-2.9726,-3.1162,0.0,-3.3339,-3.4325,-3.4325,-3.3975,-3.3802,-3.4086,-3.4861,-3.5505,-3.5789,-3.6832,-3.751,-3.751,-3.751,-3.751,-3.751,-3.751,-3.751,-3.751,-3.751,-3.751,-3.751,-3.6554,-3.5937,-3.5675,-3.4735,-3.4276,-3.4313,-3.4658,-3.5114,-3.571,-3.571,-3.571,-3.571,-3.571,-3.571,-3.5683,-3.529,-3.5371,-3.571,-3.571,-3.5562,-3.5358,-3.5154,-3.4962,-3.462,-3.355,-3.2768,-3.2077,-3.089,-2.9622,-2.8463,-2.8181,-2.7539,-2.6846,-2.6539,-2.6456,-2.6343,-2.5979,-2.5895,-2.5895,-2.5895,-2.5895,-2.5895,-2.5895,-2.5666,-2.5349,-2.4956,-2.4421,-2.3973,-2.3727,-2.3307,-2.2964,-2.2889,-2.2777,-2.2735,-2.279,-2.2686,-2.2569,-2.2501,-2.2501,-2.2304,-2.1838,-2.2056,-2.2294,-2.249,-2.2749,-2.3122,-2.3588,-2.3588,-2.3815,-2.426,-2.426,-2.4321,-2.4497,-2.4497,-2.4497,-2.4154,0.0,0.0,-2.5432,-2.5647,-2.5431,-2.4767,-2.5106,-2.5537,-2.5487,-2.614,-2.6941,-2.7622,-2.9317,-3.0851,-3.167,-3.308,-3.4121,-3.4267,-3.3949,-3.3834,-3.4266,-3.4777,-3.5173,-3.5379,-3.6688,-3.751,-3.751,-3.751,-3.751,-3.751,-3.751,-3.751,-3.751,-3.751,-3.751,-3.751,-3.643,-3.5531,-3.4798,-3.4155,-3.3617,-3.3129,-3.3946,-3.4489,-3.4733,-3.4733,-3.4828,-3.4977,-3.4977,-3.5086,-3.5141,-3.4707,-3.4816,-3.5181,-3.5181,-3.5238,-3.5318,-3.5154,-3.4815,-3.4247,-3.2759,-3.1905,-3.1174,-2.9472,-2.8221,-2.7342,-2.696,-2.6385,-2.5895,-2.5895,-2.5895,-2.5895,-2.5895,-2.5895,-2.5895,-2.5895,-2.5895,-2.5895,-2.5895,-2.5622,-2.5327,-2.5237,-2.4585,-2.4039,-2.3727,-2.3351,-2.3042,-2.2863,-2.2628,-2.2454,-2.2534,-2.2382,-2.2304,-2.2304,-2.2304,-2.2221,-2.2004,-2.2304,-2.2615,-2.2873,-2.3194,-2.3598,-2.4053,-2.4064,-2.4219,-2.4497,-2.4497,-2.4497,-2.4497,-2.4497,-2.4497,0.0,0.0,-2.4325,-2.4805,-2.5038,-2.496,-2.4268,-2.4538,-2.4781,-2.4259,-2.516,-2.6367,-2.7496,-2.8708,-3.0153,-3.1964,-3.2705,-3.3193,-3.3649,-3.3694,-3.3607,-3.3377,-3.3925,-3.4604,-3.5315,-3.6688,-3.751,-3.751,-3.751,-3.751,-3.751,-3.751,-3.751,-3.751,-3.751,-3.751,-3.751,-3.7254,-3.6368,-3.4784,-3.4629,-3.407,-3.3101,-3.3142,-3.2843,-3.2327,-3.2327,-3.2653,-3.3183,-3.3183,-3.3485,-3.3962,-3.3935,-3.3948,-3.3962,-3.3962,-3.4457,-3.5127,-3.5086,-3.4481,-3.3491,-3.2603,-3.0968,-2.9198,-2.8314,-2.7087,-2.5959,-2.5937,-2.5937,-2.5895,-2.5895,-2.5895,-2.5895,-2.5895,-2.5895,-2.5895,-2.5895,-2.5895,-2.5895,-2.5895,-2.5884,-2.5732,-2.5292,-2.5182,-2.4803,-2.3836,-2.3519,-2.3154,-2.2493,-2.2063,-2.1845,-2.1828,-2.1828,-2.1828,-2.1828,-2.1828,-2.2014,-2.2449,-2.249,-2.2904,-2.3836,-2.3888,-2.4064,-2.4466,-2.4476,-2.4487,-2.4497,-2.4497,-2.4497,-2.4497,-2.4497,-2.4497,-2.3097,0.0,-2.3666,-2.4226,-2.4346,-2.4145,-2.3458,-2.3784,-2.4214,-2.4113,-2.4789,-2.5823,-2.7133,-2.8604,-3.0169,-3.1817,-3.2854,-3.365,-3.4168,-3.3771,-3.3477,-3.3555,-3.3985,-3.4383,-3.4636,-3.5947,-3.6975,-3.7478,-3.751,-3.751,-3.751,-3.751,-3.751,-3.751,-3.751,-3.751,-3.751,-3.7089,-3.6165,-3.4784,-3.3164,-3.222,-3.1897,-3.1897,-3.2028,-3.2218,-3.2218,-3.2544,-3.3101,-3.3101,-3.3417,-3.3867,-3.3512,-3.3607,-3.3867,-3.3498,-3.3582,-3.39,-3.39,-3.3117,-3.1955,-3.0721,-2.9438,-2.8214,-2.6989,-2.6267,-2.5895,-2.5895,-2.5895,-2.5895,-2.5895,-2.5895,-2.5895,-2.5895,-2.5895,-2.5895,-2.5895,-2.5895,-2.5895,-2.5895,-2.5895,-2.5852,-2.5677,-2.5423,-2.4796,-2.3681,-2.3183,-2.2773,-2.2273,-2.2063,-2.1959,-2.1807,-2.1807,-2.1807,-2.1807,-2.1807,-2.2004,-2.247,-2.278,-2.3236,-2.3857,-2.4167,-2.4342,-2.4497,-2.4497,-2.4497,-2.4497,-2.4497,-2.4497,-2.4497,-2.4497,-2.4497,-2.2751,-2.2932,-2.2997,-2.3598,-2.3647,-2.3418,-2.2989,-2.3229,-2.358,-2.3649,-2.4382,-2.5387,-2.6688,-2.8354,-3.0063,-3.1614,-3.2657,-3.3482,-3.3993,-3.3633,-3.3346,-3.3529,-3.3779,-3.413,-3.4636,-3.5284,-3.6058,-3.7022,-3.7338,-3.751,-3.751,-3.751,-3.751,-3.751,-3.751,-3.751,-3.751,-3.6612,-3.5334,-3.3667,-3.1861,-3.0866,-3.0649,-3.0649,-3.073,-3.0893,-3.0893,-3.1368,-3.2151,-3.2151,-3.2589,-3.3244,-3.2901,-3.2983,-3.323,-3.2925,-3.2544,-3.2291,-3.2699,-3.2107,-3.0876,-2.934,-2.8321,-2.7504,-2.6265,-2.5895,-2.5895,-2.5895,-2.5895,-2.5895,-2.5895,-2.5895,-2.5895,-2.5895,-2.5895,-2.5895,-2.5895,-2.5895,-2.5895,-2.5895,-2.5895,-2.5895,-2.5895,-2.545,-2.4754,-2.383,-2.3289,-2.2811,-2.2412,-2.2129,-2.2022,-2.2035,-2.1901,-2.188,-2.2035,-2.2056,-2.2325,-2.2946,-2.3267,-2.3639,-2.4095,-2.4342,-2.4497,-2.4497,-2.4497,-2.4497,-2.4497,-2.4497,-2.4497,-2.4497,-2.4497,-2.4497,-2.2256,-2.231,-2.239,-2.2958,-2.2998,-2.2888,-2.2888,-2.2917,-2.2946,-2.2946,-2.3931,-2.5134,0.0,0.0,-2.98,-3.1357,-3.2173,-3.28,-3.3266,-3.3309,-3.3309,-3.3309,-3.3319,-3.3841,-3.5157,-3.4711,-3.4885,-3.6187,-3.6975,-3.7431,-3.751,-3.7431,-3.7415,-3.7447,-3.7415,-3.7399,-3.7399,-3.5872,-3.3917,-3.163,-3.0752,-3.0038,-2.9461,-2.9461,-2.9149,-2.8587,-2.8587,-2.9279,-3.0405,-3.0405,-3.111,-3.2218,-3.2218,-3.2218,-3.2218,-3.2169,-3.1357,-3.0433,-3.1534,-3.1255,-3.0149,-2.8516,-2.7582,-2.6981,-2.6146,-2.5895,-2.5895,-2.5895,-2.5895,-2.5895,-2.5895,-2.5895,-2.5895,-2.5895,-2.5895,-2.5895,-2.5895,-2.5895,-2.5895,-2.5895,-2.5895,-2.5895,-2.5895,-2.5296,-2.4684,-2.4282,-2.3832,-2.336,-2.2867,-2.2223,-2.2004,-2.2418,-2.2066,-2.1994,-2.2459,-2.2501,-2.2894,-2.3826,-2.3919,-2.4074,-2.4476,-2.4497,-2.4497,-2.4411,-2.4497,-2.4497,-2.4411,-2.4497,-2.4497,-2.4411,-2.4497,-2.4454,-2.2226,-2.2519,-2.2825,-2.2935,-2.2927,-2.2888,-2.2888,-2.3287,-2.3659,-2.3659,-2.4259,-2.5209,0.0,0.0,-2.9707,-3.1325,-3.2463,0.0,-3.3549,-3.3424,0.0,-3.3309,-3.3642,-3.389,-3.3852,-3.4473,-3.4888,-3.4837,-3.5505,-3.6374,-3.7447,-3.6529,-3.6153,-3.6645,-3.62,-3.596,-3.596,-3.4318,-3.2641,-3.1023,-3.0138,-2.9401,-2.8817,-2.8817,-2.8736,-2.8587,-2.8587,-2.9279,-3.0405,-3.0405,-3.111,-3.2218,-3.2218,-3.2218,-3.2132,-3.1629,-3.0972,-3.0203,-2.9391,-2.8659,-2.7981,-2.7562,-2.6877,-2.6188,-2.5979,-2.5895,-2.5895,-2.5895,-2.5895,-2.5895,-2.5895,-2.5895,-2.5895,-2.5895,-2.5895,-2.5895,-2.5895,-2.5895,-2.5895,-2.5895,-2.5895,-2.5895,-2.5895,-2.563,-2.5163,-2.451,-2.4208,-2.3646,-2.2712,-2.2426,-2.2232,-2.2004,-2.188,-2.1994,-2.2459,-2.2501,-2.2894,-2.3826,-2.3919,-2.4074,-2.4476,-2.4497,-2.4176,-2.3454,-2.4133,-2.4176,-2.3454,-2.4176,-2.4133,-2.3454,-2.4176,-2.3744,-2.2144,-2.2404,-2.2644,-2.2594,-2.2752,-2.2975,-2.3273,-2.363,-2.3978,-2.4254,-2.4927,0.0,-2.6825,-2.8516,-3.0123,-3.1227,0.0,0.0,-3.3822,-3.3761,-3.372,0.0,-3.4218,0.0,-3.411,-3.4439,-3.4693,-3.4786,-3.5157,-3.5726,-3.6545,-3.5821,-3.5568,-3.5963,-3.56,-3.4924,-3.3923,-3.29,-3.1563,-2.9844,-2.9337,-2.8912,-2.8587,-2.8587,-2.8587,-2.8587,-2.8587,-2.9129,-3.0025,-3.0296,-3.0961,-3.1816,-3.211,-3.2218,-3.2132,-3.1776,-3.0833,-2.9628,-2.8785,-2.7666,-2.6622,-2.6622,-2.6302,-2.5895,-2.5895,-2.5895,-2.5895,-2.5895,-2.5895,-2.5895,-2.5895,-2.5895,-2.5895,-2.5895,-2.5895,-2.5895,-2.5895,-2.5895,-2.5895,-2.5895,-2.5895,-2.5812,-2.5644,-2.5506,-2.5199,-2.4598,-2.4409,-2.4033,-2.3235,-2.2925,-2.278,-2.2718,-2.2532,-2.2594,-2.306,-2.3101,-2.3412,-2.4126,-2.4167,-2.4281,-2.4487,-2.4497,-2.4046,-2.3139,-2.3637,-2.342,-2.2482,-2.3028,-2.2974,-2.2482,-2.3028,-2.2721,-2.2169,-2.2301,-2.2301,-2.2301,-2.2672,-2.3186,-2.376,-2.4022,-2.4321,-2.4898,0.0,-2.6682,-2.7118,-2.9042,-3.0725,-3.1133,0.0,-3.3477,-3.4025,-3.4101,-3.4284,-3.4738,-3.4864,-3.4921,-3.4961,-3.4491,-3.4449,-3.5071,-3.511,-3.5189,-3.5379,-3.5205,-3.511,-3.5098,-3.5082,-3.4032,-3.184,-3.1704,-3.0616,-2.8587,-2.8587,-2.8587,-2.8587,-2.8587,-2.8587,-2.8587,-2.8587,-2.8926,-2.9556,-3.0147,-3.0758,-3.1355,-3.1938,-3.2218,-3.2182,-3.2059,-3.0745,-2.8995,-2.8878,-2.7574,-2.5895,-2.5895,-2.5895,-2.5895,-2.5895,-2.5895,-2.5895,-2.5895,-2.5895,-2.5895,-2.5895,-2.5895,-2.5895,-2.5895,-2.5895,-2.5895,-2.5895,-2.5895,-2.5895,-2.5895,-2.5895,-2.577,-2.5327,-2.52,-2.5031,-2.4615,-2.454,-2.4363,-2.4012,-2.3567,-2.3412,-2.3753,-2.3422,-2.3381,-2.3836,-2.3919,-2.4022,-2.4284,-2.4315,-2.4272,-2.4143,-2.4143,-2.3691,-2.2746,-2.2833,-2.2438,-2.1516,-2.165,-2.165,-2.1516,-2.165,-2.1561,-2.278,-2.2778,-2.2775,-2.2775,-2.327,-2.376,-2.3862,-2.4704,0.0,0.0,-2.6698,-2.7435,-2.8102,-2.9524,-3.0725,-3.1133,-3.2392,-3.3477,-3.4025,-3.4101,-3.4284,0.0,-3.5191,-3.5142,-3.4363,-3.4505,-3.439,-3.372,-3.3656,-3.4162,-3.5331,-3.4288,-3.3619,-3.3511,-3.3484,-3.2675,-3.0954,-3.088,-3.0125,-2.8587,-2.8587,-2.8587,-2.8587,-2.8587,-2.8587,-2.8587,-2.8587,0.0,-2.9556,-3.0147,-3.0758,-3.1355,-3.1938,-3.2218,-3.2132,-3.1471,-3.0266,-2.8878,-2.8255,-2.708,-2.5895,-2.5895,-2.5895,-2.5895,-2.5895,-2.5895,-2.5895,-2.5895,-2.5895,-2.5895,-2.5895,-2.5895,-2.5895,-2.5895,-2.5895,-2.5895,-2.5895,-2.5895,-2.5895,-2.5895,-2.5895,-2.5812,-2.5559,-2.5338,-2.5115,-2.4871,-2.4658,-2.4466,-2.4394,-2.4033,-2.3639,-2.3339,-2.3236,-2.3381,-2.3836,-2.3919,-2.3759,-2.3391,-2.3323,-2.2974,-2.2227,-2.2183,-2.173,-2.0782,-2.1552,-2.1463,-2.052,-2.1338,-2.1293,-2.0565,-2.1338,-2.0844,-2.3421,-2.365,-2.3911,-2.3925,-2.4181,-2.4573,-2.5081,0.0,0.0,0.0,-2.7593,-2.8067,-2.8415,-2.9534,-3.0667,-3.147,-3.2278,-3.3278,-3.4688,-3.4415,-3.4464,-3.5464,-3.5594,-3.5413,-3.4927,-3.4833,-3.4496,-3.3771,-3.345,-3.3593,-3.4273,-3.3672,-3.3229,-3.3096,-3.3032,-3.2425,-3.1232,-3.0793,-3.0072,-2.9044,-2.8734,-2.8587,-2.8587,-2.8587,-2.8587,-2.8587,-2.8587,-2.875,-2.9089,-3.0025,-3.0581,-3.092,-3.1829,-3.2218,-3.2146,-3.1656,-3.0418,-2.8917,-2.8442,-2.7232,-2.5895,-2.5895,-2.5895,-2.5895,-2.5895,-2.5895,-2.5895,-2.5895,-2.5895,-2.5895,-2.5895,-2.5895,-2.5895,-2.5895,-2.5895,-2.5895,-2.5895,-2.5895,-2.5895,-2.5895,-2.5895,-2.5812,-2.5464,-2.5295,-2.5073,-2.4743,-2.4583,-2.4497,-2.4497,-2.3907,-2.3386,-2.3165,-2.3145,-2.3056,-2.2803,-2.2769,-2.264,-2.2385,-2.235,-2.2173,-2.1739,-2.1695,-2.1248,-2.0294,-2.0746,-2.0484,-1.9546,-1.9994,-1.9948,-1.9538,-1.9994,-1.9683,-2.4338,-2.4634,-2.4966,-2.5091,-2.5184,-2.5443,-2.6346,-2.6628,0.0,0.0,-2.8295,-2.8527,-2.8622,0.0,-3.0569,0.0,-3.2091,-3.3028,-3.5136,-3.4738,-3.4761,-3.6135,-3.5985,0.0,-3.5616,-3.5098,-3.4593,-3.4151,-3.3607,-3.3309,-3.3309,-3.3282,-3.3203,-3.3058,-3.2924,-3.2456,-3.1665,-3.0896,-3.0178,-2.9473,-2.8881,-2.8587,-2.8587,-2.8587,-2.8587,-2.8587,-2.8587,-2.8587,-2.8682,-2.9903,-3.0405,-3.0527,-3.1721,-3.2218,-3.2146,-3.173,-3.0481,-2.8917,-2.8509,-2.7273,-2.5895,-2.5895,-2.5895,-2.5895,-2.5895,-2.5895,-2.5895,-2.5895,-2.5895,-2.5895,-2.5895,-2.5895,-2.5895,-2.5895,-2.5895,-2.5895,-2.5895,-2.5895,-2.5895,-2.5895,-2.5895,-2.577,-2.5285,-2.52,-2.5031,-2.4583,-2.4497,-2.4497,-2.4497,-2.3681,-2.3008,-2.2833,-2.279,-2.2482,-2.1784,-2.1695,-2.1606,-2.1418,-2.1382,-2.1293,-2.1069,-2.1069,-2.0754,-1.9985,-1.9985,-1.9583,-1.8781,-1.8781,-1.8781,-1.8781,-1.8781,-1.8781,-2.5765,-2.558,-2.5422,-2.581,-2.6066,-2.6376,-2.6838,0.0,0.0,-2.8352,-2.8463,-2.8622,-2.8982,0.0,0.0,0.0,0.0,-3.2903,-3.4622,-3.4793,-3.5121,-3.6195,0.0,0.0,-3.5638,-3.5098,-3.4593,-3.4151,-3.3607,-3.3309,-3.3309,-3.3176,-3.3058,-3.2924,-3.2746,-3.2259,-3.1537,-3.0852,-3.0178,-2.9473,-2.8881,-2.8587,-2.8587,-2.8587,-2.8587,-2.8587,-2.8587,-2.8587,0.0,-2.9903,-3.0405,-3.0527,-3.1721,-3.2218,-3.2059,-3.0859,-2.982,-2.8839,-2.7718,-2.6704,-2.5895,-2.5895,-2.5895,-2.5895,-2.5895,-2.5895,-2.5895,-2.5895,-2.5895,-2.5895,-2.5895,-2.5895,-2.5895,-2.5895,-2.5895,-2.5895,-2.5895,-2.5895,-2.5895,-2.5895,-2.5895,-2.577,-2.5285,-2.52,-2.5031,-2.4583,-2.4497,-2.4497,-2.4497,-2.3681,-2.279,-2.1908,-2.1828,-2.1784,-2.1695,-2.1695,-2.1338,-2.0475,-2.0439,-2.0031,-1.9096,-1.905,-1.905,-1.892,-1.892,-1.8874,-1.8781,-1.8781,-1.8781,-1.8781,-1.8781,-1.8781,-2.6961,-2.7004,-2.6941,-2.7085,-2.7225,-2.7412,-2.7815,0.0,-2.8367,-2.8779,-2.885,-2.8897,-2.9075,-2.9335,0.0,0.0,0.0,0.0,-3.4977,-3.5005,-3.5168,-3.6178,-3.6049,-3.592,-3.6006,-3.5283,-3.4472,-3.3684,-3.3424,-3.324,-3.3176,-3.3123,-3.2989,-3.2746,-3.2287,-3.1879,-3.1508,-3.0435,-2.9766,-2.9473,-2.8881,-2.8587,-2.8587,-2.8587,-2.8587,-2.8587,-2.8587,-2.8587,0.0,-2.9496,-3.0066,-3.0486,-3.1327,-3.1798,-3.1877,-3.0709,-2.9666,-2.8667,-2.7568,-2.6622,-2.5895,-2.5895,-2.5895,-2.5895,-2.5895,-2.5895,-2.5895,-2.5895,-2.5895,-2.5895,-2.5895,-2.5895,-2.5895,-2.5895,-2.5895,-2.5895,-2.5895,-2.5895,-2.5895,-2.5895,-2.5895,-2.5812,-2.5464,-2.5295,-2.5115,-2.4786,-2.4615,-2.4497,-2.4497,-2.3681,-2.2965,-2.257,-2.1552,-2.0619,-1.9994,-1.9948,-1.9812,-1.9409,-1.9409,-1.9234,-1.8827,-1.8781,-1.8781,-1.8781,-1.8781,-1.8781,-1.8781,-1.8781,-1.8781,-1.8781,-1.8781,-1.8781,-2.8308,-2.8568,-2.8685,-2.8609,-2.8489,-2.8529,0.0,-2.8833,-2.8756,-2.9029,-2.9098,-2.9098,-2.9098,-2.9098,-2.9633,0.0,0.0,0.0,-3.4773,-3.5034,-3.5351,-3.6216,-3.6006,-3.5876,-3.6071,-3.5168,-3.4226,-3.3388,-3.3256,-3.3176,-3.3058,-3.2989,-3.2839,-3.2621,-3.216,-3.1794,-3.1508,-3.0375,-2.969,-2.9473,-2.8881,-2.8587,-2.8587,-2.8587,-2.8587,-2.8587,-2.8587,-2.8587,0.0,-2.9257,-2.9849,-3.0438,-3.0999,-3.1474,-3.1767,-3.0633,-2.955,-2.856,-2.7568,-2.6622,-2.5895,-2.5895,-2.5895,-2.5895,-2.5895,-2.5895,-2.5895,-2.5895,-2.5895,-2.5895,-2.5895,-2.5895,-2.5895,-2.5895,-2.5895,-2.5895,-2.5895,-2.5895,-2.5895,-2.5895,-2.5895,-2.5853,-2.5644,-2.538,-2.5115,-2.4946,-2.4658,-2.4497,-2.4497,-2.3681,-2.3096,-2.3096,-2.1676,-2.0439,-1.972,-1.9683,-1.9683,-1.9683,-1.9409,-1.9225,-1.9225,-1.8966,-1.8781,-1.8781,-1.8781,-1.8781,-1.8781,-1.8781,-1.8781,-1.8781,-1.8781,-1.8837,-2.9939,-3.0261,-3.0513,-3.0242,-2.9875,-2.9679,-3.0092,-2.9627,-2.9075,-2.9098,-2.9098,-2.9098,-2.9098,-2.9098,-2.9335,0.0,0.0,0.0,-3.3657,-3.4829,-3.5788,-3.6237,-3.6301,-3.6114,-3.5638,-3.4706,-3.3873,-3.3319,-3.3176,-3.3043,-3.2912,-3.2718,-3.2594,-3.2594,-3.2468,-3.2104,-3.1508,-3.0822,-3.0178,-2.9473,-2.8881,-2.8587,-2.8587,-2.8587,-2.8587,-2.8587,-2.8587,-2.8587,0.0,-2.9257,-2.9849,-3.0438,-3.0858,-3.1379,-3.173,-3.0469,-2.946,-2.856,-2.7568,-2.6622,-2.5895,-2.5895,-2.5895,-2.5895,-2.5895,-2.5895,-2.5895,-2.5895,-2.5895,-2.5895,-2.5895,-2.5895,-2.5895,-2.5895,-2.5895,-2.5895,-2.5895,-2.5895,-2.5895,-2.5895,-2.5895,-2.5853,-2.5644,-2.538,-2.5115,-2.4946,-2.4658,-2.4497,-2.4497,-2.3681,-2.3096,-2.3096,-2.2262,-2.1695,-2.165,-2.165,-2.165,-2.165,-2.0791,-2.0294,-2.0294,-1.9317,-1.8781,-1.8781,-1.8781,-1.8781,-1.8781,-1.8781,-1.8781,-1.8781,-1.8781,-1.9026,-3.0254,-3.0575,-3.0616,-3.0054,-2.9833,-2.9659,-2.9383,-2.9124,-2.899,-2.9075,-2.9493,-2.9706,-2.9193,-2.9756,-3.053,-3.13,0.0,0.0,0.0,0.0,-3.6753,-3.6349,-3.6006,-3.5616,-3.5098,-3.4464,-3.3848,-3.3203,-3.3123,-3.2989,-3.2718,-3.2621,-3.2551,-3.2453,-3.158,-3.1028,-3.0822,-2.9732,-2.9103,-2.8881,-2.8683,-2.8587,-2.8587,-2.8587,-2.8587,-2.8587,-2.8587,-2.8587,-2.86,-2.8804,-2.9224,-2.9794,-2.978,-3.0328,-3.0933,-2.9815,-2.9007,-2.8374,-2.7499,-2.6622,-2.5895,-2.5895,-2.5895,-2.5895,-2.5895,-2.5895,-2.5895,-2.5895,-2.5895,-2.5895,-2.5895,-2.5895,-2.5895,-2.5895,-2.5895,-2.5895,-2.5895,-2.5895,-2.5895,-2.5895,-2.5895,-2.5853,-2.5644,-2.538,-2.5115,-2.4946,-2.4658,-2.4497,-2.4497,-2.4229,-2.4046,-2.4046,-2.3777,-2.3071,-2.1828,-2.1695,-2.1427,-2.0791,-2.0475,-1.9985,-1.9317,-1.8958,-1.8781,-1.8781,-1.8781,-1.8781,-1.8781,-1.8781,-1.8781,-1.8835,-1.9082,-1.9383,0.0,-3.127,-3.1436,-3.0719,-3.0548,-3.0386,-2.9765,-2.9453,-2.9352,-2.9423,-2.9856,-3.0157,-2.9919,-3.0458,-3.1101,-3.1638,0.0,0.0,0.0,0.0,-3.6718,-3.6203,-3.5702,-3.5162,-3.4602,-3.4034,-3.3555,-3.3123,-3.2989,-3.2812,-3.2621,-3.2551,-3.2496,-3.2398,-3.1637,-3.0984,-3.051,-2.9701,-2.9071,-2.8587,-2.8587,-2.8587,-2.8587,-2.8587,-2.8587,-2.8587,-2.8587,-2.8587,0.0,-2.8587,-2.8907,-2.9382,-2.9181,-2.9566,-3.0205,-2.9678,-2.8899,-2.8044,-2.778,-2.6899,-2.5895,-2.5895,-2.5895,-2.5895,-2.5895,-2.5895,-2.5895,-2.5895,-2.5895,-2.5895,-2.5895,-2.5895,-2.5895,-2.5895,-2.5895,-2.5895,-2.5895,-2.5895,-2.5895,-2.5895,-2.5853,-2.5728,-2.5612,-2.5295,-2.5031,-2.4903,-2.4658,-2.4497,-2.4497,-2.4497,-2.4497,-2.4497,-2.4176,-2.3507,-2.235,-2.2217,-2.1819,-2.0881,-2.0475,-2.0031,-1.9409,-1.9004,-1.8781,-1.8781,-1.8781,-1.8781,-1.8781,-1.8781,-1.8899,-1.9034,-1.9264,-1.967,0.0,-3.2264,-3.2698,-3.1939,-3.1768,-3.1607,-3.0937,-3.0398,0.0,-3.0082,-3.0194,-3.0512,-3.1088,-3.1279,-3.1311,-3.1336,-3.2296,0.0,0.0,-3.5161,-3.5951,-3.605,-3.5477,-3.4836,-3.4205,-3.3508,-3.3085,-3.3069,-3.2784,-3.2594,-3.2578,-3.2453,-3.2398,-3.2398,-3.237,-3.1751,-3.0524,-3.045,-2.9825,-2.8587,-2.8587,-2.8587,-2.8587,-2.8587,-2.8587,-2.8587,-2.8587,-2.8587,-2.8587,-2.8587,-2.8814,-2.9114,-2.8878,-2.9114,-2.9592,-2.9935,-2.9012,-2.7678,-2.8206,-2.7284,-2.5895,-2.5895,-2.5895,-2.5895,-2.5895,-2.5895,-2.5895,-2.5895,-2.5895,-2.5895,-2.5895,-2.5895,-2.5895,-2.5895,-2.5895,-2.5895,-2.5895,-2.5895,-2.5895,-2.5895,-2.5728,-2.5612,-2.557,-2.5168,-2.4903,-2.4861,-2.4658,-2.4497,-2.4497,-2.4497,-2.4454,-2.4411,-2.3637,-2.3052,-2.2921,-2.2965,-2.2614,-2.165,-2.0791,-2.0257,-2.0212,-1.9317,-1.8781,-1.8781,-1.8781,-1.8781,-1.8781,-1.8805,-1.9042,-1.9423,-1.9471,-1.9781,-3.2206,0.0,-3.2353,-3.1674,-3.1489,-3.1345,0.0,-3.053,-3.0522,-3.0738,0.0,-3.1508,-3.1261,-3.1916,-3.2514,-3.2571,-3.3126,-3.3794,-3.4543,-3.5365,-3.629,-3.7382,-3.6003,-3.49,-3.4739,-3.3646,-3.2881,-3.273,-3.2648,-3.2551,-3.2453,-3.2425,-3.2398,-3.2398,-3.1936,-3.132,-3.0524,-2.9981,-2.9345,-2.8587,-2.8587,-2.8587,-2.8587,-2.8587,-2.8587,-2.8587,-2.8587,-2.8587,-2.8587,-2.843,-2.8446,-2.8483,-2.8186,-2.8403,-2.8963,-2.9332,-2.8684,-2.7678,-2.8206,-2.7284,-2.5895,-2.5895,-2.5895,-2.5895,-2.5895,-2.5895,-2.5895,-2.5895,-2.5895,-2.5895,-2.5895,-2.5895,-2.5895,-2.5895,-2.5895,-2.5895,-2.5895,-2.5895,-2.5853,-2.5686,-2.5644,-2.5475,-2.5126,-2.4988,-2.4818,-2.4615,-2.454,-2.4497,-2.4497,-2.4497,-2.4229,-2.3507,-2.3226,-2.2517,-2.1096,-2.1641,-2.1641,-2.0701,-2.043,-1.994,-1.9188,-1.8912,-1.8781,-1.8781,-1.8781,-1.8781,-1.8781,-1.9105,-1.9288,-1.9431,-1.9908,-2.0241,-3.2695,-3.2602,-3.2305,-3.1936,-3.1844,-3.1701,-3.1102,0.0,0.0,0.0,0.0,0.0,0.0,-3.2685,-3.3278,-3.3328,-3.3526,-3.3982,-3.4749,-3.6098,-3.7018,-3.7024,-3.6142,-3.5347,-3.4931,-3.3905,-3.3212,-3.3113,-3.2721,-3.248,-3.2398,-3.2398,-3.2398,-3.2398,-3.1794,-3.1175,-3.0524,-2.9858,-2.9188,-2.8587,-2.8587,-2.8587,-2.8587,-2.8587,-2.8587,-2.8587,-2.8587,-2.8554,-2.8444,-2.832,-2.8189,-2.8039,-2.7875,-2.8112,-2.8567,-2.8686,-2.8263,-2.7639,-2.7782,-2.6969,-2.5895,-2.5895,-2.5895,-2.5895,-2.5895,-2.5895,-2.5895,-2.5895,-2.5895,-2.5895,-2.5895,-2.5895,-2.5895,-2.5895,-2.5895,-2.5895,-2.5895,-2.5895,-2.5853,-2.5644,-2.5517,-2.5295,-2.4946,-2.4786,-2.4658,-2.454,-2.4497,-2.4497,-2.4497,-2.4497,-2.4133,-2.3183,-2.2702,-2.1854,-2.043,-2.0348,-2.0175,-1.9629,-1.9629,-1.9363,-1.8827,-1.8781,-1.8781,-1.8781,-1.8781,-1.8781,-1.8781,-1.9193,-1.9495,-1.9654,-2.0146,-2.048,-3.3172,-3.3002,-3.2641,-3.2641,-3.2641,-3.2501,-3.1927,0.0,0.0,0.0,0.0,0.0,0.0,-3.3414,0.0,-3.3828,-3.3872,-3.4159,-3.4935,-3.6715,-3.7473,-3.623,-3.6105,-3.5837,-3.5083,-3.4177,-3.3643,-3.3643,-3.2881,-3.2398,-3.2398,-3.2398,-3.2398,-3.2398,-3.1794,-3.1175,-3.0524,-2.9858,-2.9188,-2.8587,-2.8587,-2.8587,-2.8587,-2.8587,-2.8587,-2.8587,-2.8554,0.0,-2.8287,-2.8222,-2.8072,-2.7809,-2.7776,-2.8011,-2.8382,-2.8124,-2.7841,-2.7523,-2.7152,-2.6498,-2.5895,-2.5895,-2.5895,-2.5895,-2.5895,-2.5895,-2.5895,-2.5895,-2.5895,-2.5895,-2.5895,-2.5895,-2.5895,-2.5895,-2.5895,-2.5895,-2.5895,-2.5895,-2.5822,-2.5601,-2.538,-2.5115,-2.4861,-2.4658,-2.4497,-2.4497,-2.4497,-2.4497,-2.4497,-2.4497,-2.4133,-2.3183,-2.2262,-2.1338,-2.0385,-1.9363,-1.8781,-1.8781,-1.8781,-1.8781,-1.8781,-1.8781,-1.8781,-1.8781,-1.8781,-1.8781,-1.8781,-1.9248,-1.9638,-1.9925,-2.0281,-2.0639,-3.3742,-3.3834,-3.3742,-3.3742,-3.3742,-3.3726,-3.3613,0.0,0.0,0.0,0.0,0.0,0.0,-3.3729,-3.403,-3.4457,-3.4652,-3.4948,-3.5658,-3.6056,-3.6399,-3.6781,-3.6223,-3.5729,-3.5591,-3.4268,-3.3442,-3.3442,-3.281,-3.2398,-3.2398,-3.2398,-3.2398,-3.2398,-3.1794,-3.1175,-3.0524,-2.9858,-2.9188,-2.8587,-2.8587,-2.8587,-2.8587,-2.8587,-2.8587,-2.8587,0.0,-2.832,-2.8287,-2.8006,-2.7842,-2.7776,-2.7623,-2.791,-2.8382,-2.8124,-2.7841,-2.7445,-2.6442,-2.6021,-2.5895,-2.5895,-2.5895,-2.5895,-2.5895,-2.5895,-2.5895,-2.5895,-2.5895,-2.5895,-2.5895,-2.5895,-2.5895,-2.5895,-2.5895,-2.5895,-2.5895,-2.5895,-2.577,-2.5327,-2.5242,-2.5073,-2.4625,-2.454,-2.4497,-2.4497,-2.4497,-2.4497,-2.4497,-2.4497,-2.4133,-2.3183,-2.2262,-2.1338,-2.0385,-1.9363,-1.8781,-1.8781,-1.8781,-1.8781,-1.8781,-1.8781,-1.8781,-1.8781,-1.8781,-1.8781,-1.8781,-1.9471,-1.9861,-1.9933,-2.0535,-2.0869,-3.4194,-3.4431,-3.4504,-3.4793,-3.4431,-3.4011,-3.4011,0.0,0.0,0.0,0.0,0.0,0.0,0.0,-3.4616,-3.4959,-3.5716,-3.6121,-3.5744,-3.6397,-3.6861,-3.6739,-3.646,-3.6228,-3.6137,-3.5166,-3.4368,-3.3998,-3.3336,-3.2782,-3.2413,-3.2398,-3.2398,-3.2398,-3.1465,-3.0822,-3.0494,-2.9515,-2.8881,-2.8587,-2.8587,-2.8587,-2.8587,-2.8587,-2.8554,-2.843,0.0,-2.8189,-2.8039,-2.7842,-2.7756,-2.7649,-2.7897,-2.8058,-2.8119,-2.7721,-2.7167,-2.6621,-2.6058,-2.5895,-2.5895,-2.5895,-2.5895,-2.5895,-2.5895,-2.5895,-2.5895,-2.5895,-2.5895,-2.5895,-2.5895,-2.5895,-2.5895,-2.5895,-2.5895,-2.5895,-2.5895,-2.5812,-2.5644,-2.5285,-2.5115,-2.4903,-2.4583,-2.4497,-2.4497,-2.4497,-2.4497,-2.4497,-2.4497,-2.4497,-2.4133,-2.3183,-2.2702,-2.1863,-2.043,-1.9903,-1.9363,-1.8827,-1.8781,-1.8781,-1.8781,-1.8781,-1.8781,-1.8781,-1.8781,-1.8923,-1.9121,-1.967,-2.0012,-2.0162,-2.0678,-2.0925,-3.4721,-3.4998,-3.5108,-3.5492,0.0,-3.4415,-3.4595,0.0,0.0,0.0,0.0,0.0,0.0,-3.5372,-3.5374,-3.5553,-3.6489,-3.6867,-3.5858,-3.6743,-3.7237,-3.6569,-3.66,-3.66,-3.6523,-3.5876,-3.5229,-3.4551,-3.3814,-3.3106,-3.2428,-3.2398,-3.2398,-3.2398,-3.132,-3.0673,-3.0494,-2.9373,-2.8734,-2.8587,-2.8587,-2.8587,-2.8587,-2.8554,-2.8444,-2.8287,-2.8222,-2.8039,-2.7809,-2.7756,-2.7656,-2.7555,-2.815,-2.8193,-2.7841,-2.7362,-2.6663,-2.5895,-2.5895,-2.5895,-2.5895,-2.5895,-2.5895,-2.5895,-2.5895,-2.5895,-2.5895,-2.5895,-2.5895,-2.5895,-2.5895,-2.5895,-2.5895,-2.5895,-2.5853,-2.5822,-2.5822,-2.5644,-2.5433,-2.52,-2.4988,-2.4818,-2.454,-2.4497,-2.4497,-2.4497,-2.4497,-2.4497,-2.4497,-2.4497,-2.4229,-2.3497,-2.3325,-2.258,-2.0931,-2.0568,-2.0169,-1.9509,-1.905,-1.892,-1.9142,-1.8912,-1.8821,-1.8955,-1.8955,-1.9129,-1.9535,-1.9869,-2.013,-2.04,-2.0758,-2.0925,-3.5402,-3.5554,-3.5538,-3.56,-3.5554,0.0,-3.6426,-3.6595,0.0,-3.6846,0.0,0.0,0.0,-3.6178,-3.6234,-3.6399,-3.6492,-3.6523,-3.6446,-3.6507,-3.6569,-3.6523,-3.6523,-3.6523,-3.6492,-3.5876,-3.5229,-3.4551,-3.3814,-3.3106,-3.2428,-3.2398,-3.2398,-3.2398,-3.1766,-3.1116,-3.0524,-2.9797,-2.9156,-2.8587,-2.8587,-2.8587,-2.8587,-2.8398,-2.832,-2.8287,-2.7973,-2.7809,-2.7776,-2.759,-2.749,-2.7555,-2.815,-2.8088,-2.7579,-2.729,-2.6663,-2.5895,-2.5895,-2.5895,-2.5895,-2.5895,-2.5895,-2.5895,-2.5895,-2.5895,-2.5895,-2.5895,-2.5895,-2.5895,-2.5895,-2.5895,-2.5895,-2.5895,-2.578,-2.5612,-2.5612,-2.5422,-2.5158,-2.4946,-2.4903,-2.4818,-2.454,-2.4497,-2.4497,-2.4497,-2.4497,-2.4497,-2.4497,-2.4497,-2.4454,-2.4411,-2.4007,-2.3342,-2.2345,-2.1336,-2.0948,-2.1445,-1.9812,-1.9234,-2.0167,-1.9317,-1.8986,-1.9328,-1.9383,-1.9495,-1.9877,-2.0178,-2.0369,-2.04,-2.0758,-2.0925,-3.5424,-3.5977,-3.6231,-3.5718,-3.6309,0.0,0.0,-3.6795,-3.6945,-3.7496,-3.7599,0.0,0.0,0.0,-3.7303,-3.6616,-3.6492,-3.6492,-3.6492,-3.6492,-3.6492,-3.6492,-3.6492,-3.6492,-3.6492,-3.6261,-3.566,-3.4582,-3.4243,-3.3583,-3.2459,-3.2048,-3.1851,-3.1851,-3.0822,-3.0119,-2.9889,-2.9265,-2.8817,-2.8587,-2.8476,-2.8398,-2.8398,-2.8249,-2.8118,-2.7973,-2.7842,-2.7723,-2.7623,-2.7523,-2.749,-2.7481,-2.7381,-2.7653,-2.7953,-2.6819,-2.6177,-2.5895,-2.5895,-2.5895,-2.5895,-2.5895,-2.5895,-2.5895,-2.5895,-2.5895,-2.5895,-2.5895,-2.5895,-2.5895,-2.5895,-2.5895,-2.5853,-2.5728,-2.5644,-2.5559,-2.538,-2.5158,-2.4988,-2.4903,-2.4786,-2.4615,-2.4497,-2.4497,-2.4497,-2.4497,-2.4497,-2.4497,-2.4497,-2.4497,-2.4611,-2.49,-2.4546,-2.4105,-2.3739,-2.276,-2.24,-2.2945,-2.0968,-1.9894,-2.0294,-1.9317,-1.9002,-1.9415,-1.9423,-1.9694,-2.0194,-2.0329,-2.0512,-2.0726,-2.0861,-2.0925,-3.5732,-3.6343,-3.6728,0.0,0.0,0.0,-3.7506,-3.7506,-3.7686,-3.8447,-3.8295,-3.7932,-3.7595,0.0,-3.7474,-3.6631,-3.6492,-3.6492,-3.6492,-3.6492,-3.6492,-3.6492,-3.6492,-3.6492,-3.6492,-3.6492,-3.5938,-3.4597,-3.4505,-3.3889,-3.2475,-3.1823,-3.1508,-3.1508,-3.0194,-2.9504,-2.9504,-2.8912,-2.8587,-2.8587,-2.8346,-2.8268,-2.83,-2.8164,-2.8,-2.7809,-2.7723,-2.7623,-2.749,-2.749,-2.7712,-2.8014,-2.7359,-2.7806,-2.8624,-2.694,-2.6302,-2.626,-2.5979,-2.5895,-2.5895,-2.5895,-2.5895,-2.5895,-2.5895,-2.5895,-2.5895,-2.5895,-2.5895,-2.5895,-2.5895,-2.5853,-2.578,-2.5644,-2.5475,-2.5338,-2.5158,-2.4946,-2.4775,-2.4775,-2.4625,-2.4497,-2.4497,-2.4497,-2.4497,-2.4497,-2.4497,-2.4497,-2.4497,-2.4621,-2.4941,-2.5595,-2.4911,-2.4579,-2.49,-2.3844,-2.3448,-2.3984,-2.1966,-2.0746,-2.0746,-1.9616,-1.9169,-1.9566,-1.9638,-1.9979,-2.0559,-2.0559,-2.0686,-2.0925,-2.0925,-2.0925,-3.6417,-3.6662,-3.6958,0.0,0.0,0.0,-3.8667,-3.8988,-3.9208,-3.996,-3.9135,-3.8306,-3.8278,-3.7296,-3.6523,-3.6492,-3.6492,-3.6492,-3.6492,-3.6492,-3.6492,-3.6492,-3.6492,-3.6492,-3.6492,-3.6492,-3.5938,-3.4597,-3.4505,-3.3889,-3.2475,-3.1838,-3.148,-3.1495,-3.0194,-2.9473,-2.9473,-2.8912,-2.8587,-2.8587,-2.8276,-2.8164,-2.8287,-2.8164,-2.8,-2.7776,-2.759,-2.749,-2.749,-2.749,-2.8216,-2.9203,-2.8326,-2.87,-2.951,-2.781,-2.7185,-2.7062,-2.6177,-2.5895,-2.5895,-2.5895,-2.5895,-2.5895,-2.5895,-2.5895,-2.5895,-2.5895,-2.5895,-2.5895,-2.5895,-2.5728,-2.5601,-2.5601,-2.5253,-2.4903,-2.4903,-2.47,-2.4497,-2.4497,-2.4497,-2.4497,-2.4497,-2.4497,-2.4497,-2.4497,-2.4497,-2.4497,-2.4497,-2.49,-2.5575,-2.6511,-2.5215,-2.4762,-2.583,-2.4501,-2.3885,-2.4442,-2.2721,-2.1695,-2.1695,-2.0226,-1.9574,-1.9909,-2.021,-2.0559,-2.0917,-2.0917,-2.0909,-2.0909,-2.0909,-2.0917,-3.4533,-3.5555,0.0,-3.6406,0.0,0.0,0.0,-3.8988,0.0,0.0,-3.8849,-3.8181,-3.7738,-3.7371,-3.6983,-3.6585,-3.6492,-3.6492,-3.6492,-3.6492,-3.6492,-3.6492,-3.6492,-3.6492,-3.6492,-3.6492,-3.5938,-3.4597,-3.4505,-3.4104,-3.3152,-3.1632,-3.0997,-3.1482,-2.9771,-2.8881,-2.8881,-2.8683,-2.8522,-2.8398,-2.83,-2.8216,-2.8164,-2.7835,-2.7669,-2.759,-2.7523,-2.749,-2.749,-2.749,-2.8216,-2.9203,-2.8326,-2.87,-2.951,-2.781,-2.7185,-2.7062,-2.6177,-2.5895,-2.5895,-2.5895,-2.5895,-2.5895,-2.5895,-2.5895,-2.5895,-2.5895,-2.5895,-2.5853,-2.5738,-2.5506,-2.5338,-2.5338,-2.5115,-2.4861,-2.4658,-2.454,-2.4497,-2.4497,-2.4497,-2.4497,-2.4497,-2.4497,-2.4497,-2.4497,-2.4497,-2.4497,-2.4497,-2.49,-2.5292,-2.5606,-2.5501,-2.5548,-2.5875,-2.547,-2.4881,-2.4038,-2.2893,-2.2042,-2.1704,-1.9966,-1.9264,-1.9901,-2.0012,-2.0194,-2.0551,-2.0551,-2.0424,-2.0186,-2.0432,-2.0551,-3.5386,-3.6046,0.0,-3.7184,-3.8358,-3.9547,-4.0043,0.0,0.0,0.0,-3.8518,-3.7825,-3.7476,-3.7208,-3.6922,-3.6554,-3.6492,-3.6492,-3.6492,-3.6492,-3.6492,-3.6492,-3.6492,-3.6492,-3.6492,-3.6492,-3.6045,-3.4982,-3.4905,-3.4597,-3.386,-3.2183,-3.1337,-3.1498,-2.9835,-2.8831,-2.8587,-2.8587,-2.8509,-2.8287,-2.8235,-2.8151,-2.7967,-2.7723,-2.759,-2.749,-2.749,-2.749,-2.749,-2.749,-2.8072,-2.8886,-2.8354,-2.8864,-2.9656,-2.7968,-2.7514,-2.7487,-2.6302,-2.5895,-2.5895,-2.5895,-2.5895,-2.5895,-2.5895,-2.5895,-2.5895,-2.5895,-2.5853,-2.5728,-2.5644,-2.5338,-2.5073,-2.5073,-2.4903,-2.47,-2.454,-2.4497,-2.4497,-2.4497,-2.4497,-2.4497,-2.4497,-2.4497,-2.4497,-2.4497,-2.4497,-2.4569,-2.4745,-2.5024,-2.5251,-2.5471,-2.5564,-2.5616,-2.5616,-2.5451,-2.4815,-2.3595,-2.2648,-2.1816,-2.1168,-1.9778,-1.9304,-1.9901,-1.9917,-2.002,-2.0178,-2.0321,-2.021,-1.9925,-2.0226,-2.0392,-3.7567,-3.7356,0.0,-3.9026,-3.9203,0.0,-4.1294,-4.0437,-3.9236,-3.917,0.0,-3.7298,-3.7298,-3.6861,-3.6492,-3.6492,-3.6492,-3.6492,-3.6492,-3.6492,-3.6492,-3.6492,-3.6492,-3.6492,-3.6492,-3.6492,-3.6215,-3.5568,-3.5506,-3.5244,-3.4628,-3.3254,-3.2213,-3.16,-3.029,-2.9282,-2.86,-2.8587,-2.8476,-2.83,-2.8164,-2.8,-2.7776,-2.7776,-2.7656,-2.749,-2.749,-2.749,-2.749,-2.749,-2.7863,-2.842,-2.842,-2.9104,-2.9904,-2.822,-2.793,-2.8148,-2.6487,-2.5895,-2.5895,-2.5895,-2.5895,-2.5895,-2.5895,-2.5895,-2.5895,-2.5895,-2.578,-2.5601,-2.5559,-2.5211,-2.4903,-2.4861,-2.4658,-2.4497,-2.4497,-2.4497,-2.4497,-2.4497,-2.4497,-2.4497,-2.4497,-2.4497,-2.4497,-2.4497,-2.4497,-2.4652,-2.5065,-2.5127,-2.5316,-2.5709,-2.5399,-2.5127,-2.5127,-2.4745,-2.4046,-2.3052,-2.2173,-2.1266,-2.0263,-1.9668,-1.9527,-1.9861,-1.9869,-1.9869,-1.9869,-2.0138,-2.0114,-1.9829,-2.0138,-2.0321,-3.5232,-3.5875,0.0,0.0,-3.9216,-4.0335,-4.0275,-3.9994,-3.9594,-3.9059,-3.7629,-3.6445,-3.6445,-3.6476,-3.6492,-3.6492,-3.6492,-3.6492,-3.6492,-3.6492,-3.6492,-3.6492,-3.6492,-3.6492,-3.6492,-3.6492,-3.6215,-3.5568,-3.5506,-3.5444,-3.5306,-3.4015,-3.2964,-3.2317,-3.1048,-2.9808,-2.86,-2.8587,-2.8471,-2.8131,-2.8112,-2.7901,-2.7556,-2.7556,-2.7523,-2.749,-2.749,-2.749,-2.749,-2.749,-2.7863,-2.842,-2.842,-2.9104,-2.9904,-2.822,-2.793,-2.8148,-2.6487,-2.5895,-2.5895,-2.5895,-2.5895,-2.5895,-2.5895,-2.5895,-2.5895,-2.5895,-2.578,-2.5559,-2.5338,-2.5073,-2.4861,-2.4625,-2.454,-2.4497,-2.4497,-2.4497,-2.4497,-2.4497,-2.4497,-2.4497,-2.4497,-2.4497,-2.4497,-2.4497,-2.4497,-2.4538,-2.4631,-2.4652,-2.4683,-2.4776,-2.4704,-2.4652,-2.4652,-2.4559,-2.3787,-2.2094,-2.1828,-2.1076,-1.9656,-1.919,-1.9113,-1.9519,-1.9527,-1.9527,-1.9527,-1.9606,-1.9407,-1.9058,-1.9423,-1.9781,-3.6089,0.0,0.0,-3.8171,0.0,-4.0229,-4.0547,-3.9878,-3.9178,-3.9188,-3.8022,-3.7012,-3.7012,-3.6865,-3.6731,-3.6731,-3.6455,-3.6273,-3.6273,-3.6273,-3.6273,-3.6273,-3.632,-3.632,-3.6273,-3.6398,-3.6307,-3.5876,-3.5922,-3.5968,-3.5968,-3.4969,-3.3966,-3.294,-3.1703,-3.035,-2.889,-2.8592,-2.8281,-2.7967,-2.7967,-2.7802,-2.749,-2.749,-2.749,-2.749,-2.749,-2.749,-2.749,-2.749,-2.7673,-2.7968,-2.7968,-2.8699,-2.9574,-2.8263,-2.8062,-2.8227,-2.6981,-2.626,-2.5895,-2.5895,-2.5895,-2.5895,-2.5895,-2.5812,-2.578,-2.578,-2.5517,-2.5211,-2.5073,-2.4861,-2.4658,-2.454,-2.4497,-2.4497,-2.4497,-2.4497,-2.4497,-2.4497,-2.4497,-2.4497,-2.4497,-2.4497,-2.4497,-2.4497,-2.4497,-2.4497,-2.4497,-2.4497,-2.459,-2.4807,-2.4631,-2.459,-2.4817,-2.4621,-2.3701,-2.1828,-2.1695,-2.0941,-1.9199,-1.8931,-1.9002,-1.9415,-1.9201,-1.9113,-1.9113,-1.9288,-1.9185,-1.8789,-1.9201,-1.9511,-3.7592,0.0,-3.7259,-3.9051,-3.9545,0.0,-4.0901,-3.9929,-3.8907,-3.9375,-3.8629,-3.7861,-3.7861,-3.747,-3.7155,-3.7155,-3.6596,-3.6155,-3.6155,-3.6081,-3.6005,-3.6005,-3.6085,-3.6116,-3.6005,-3.6258,-3.6352,-3.6179,-3.6352,-3.6429,-3.6429,-3.5879,-3.486,-3.3351,-3.2335,-3.099,-2.9308,-2.8724,-2.8284,-2.7934,-2.7795,-2.7656,-2.749,-2.749,-2.749,-2.749,-2.749,-2.749,-2.749,-2.749,-2.749,-2.749,-2.749,-2.8242,-2.9203,-2.8326,-2.8185,-2.8267,-2.7499,-2.6622,-2.5895,-2.5895,-2.5895,-2.5895,-2.5895,-2.577,-2.5601,-2.5601,-2.5253,-2.4903,-2.4903,-2.47,-2.4497,-2.4497,-2.4497,-2.4497,-2.4497,-2.4497,-2.4497,-2.4497,-2.4497,-2.4497,-2.4497,-2.4497,-2.4497,-2.4497,-2.4497,-2.4497,-2.4497,-2.4497,-2.4673,-2.5137,-2.4776,-2.4714,-2.5251,-2.4738,-2.3656,-2.2031,-2.1698,-2.076,-1.8969,-1.8859,-1.897,-1.9272,-1.8978,-1.8781,-1.8781,-1.9193,-1.9185,-1.8789,-1.9201,-1.9423,0.0,0.0,-3.8352,0.0,-3.9884,-4.0232,0.0,0.0,-4.0078,-3.951,-3.8497,-3.7741,-3.7741,-3.7767,-3.7792,-3.7792,-3.7261,-3.6884,-3.6884,-3.6353,-3.6005,-3.6005,-3.6005,-3.6037,-3.6005,-3.6037,-3.6068,-3.6037,-3.6148,-3.6179,-3.6068,-3.6085,-3.5132,-3.3049,-3.2949,-3.194,-2.9739,-2.9288,-2.8926,-2.8554,-2.7872,-2.7523,-2.749,-2.749,-2.749,-2.749,-2.749,-2.749,-2.749,-2.749,-2.749,-2.749,-2.749,-2.8242,-2.9203,-2.8326,-2.8185,-2.8267,-2.7499,-2.6622,-2.5895,-2.5895,-2.5895,-2.5895,-2.5895,-2.577,-2.5601,-2.5601,-2.5253,-2.4903,-2.4903,-2.47,-2.4497,-2.4497,-2.4497,-2.4497,-2.4497,-2.4497,-2.4497,-2.4497,-2.4497,-2.4497,-2.4497,-2.4497,-2.4497,-2.4497,-2.4497,-2.4497,-2.4497,-2.4497,-2.4673,-2.5137,-2.4776,-2.4838,-2.572,-2.4501,-2.3448,-2.2787,-2.1616,-2.0429,-1.9343,-1.8994,-1.8851,-1.8899,-1.8851,-1.8781,-1.8781,-1.9193,-1.9185,-1.8789,-1.9201,-1.9423,-3.6731,-3.7689,-3.8556,0.0,-3.9646,-3.9788,-3.9481,-3.9646,-3.9788,-3.9445,-3.8996,-3.8647,-3.8647,-3.8402,-3.8166,-3.8166,-3.7372,-3.6725,-3.6725,-3.6137,-3.5716,-3.5716,-3.5782,-3.5814,-3.5748,-3.5893,-3.5941,-3.5831,-3.599,-3.5894,-3.5429,-3.5447,-3.4644,-3.2848,-3.2565,-3.1675,-3.0139,-2.964,-2.9106,-2.8523,-2.7844,-2.749,-2.749,-2.749,-2.749,-2.749,-2.749,-2.749,-2.749,-2.749,-2.749,-2.749,-2.749,-2.8046,-2.8747,-2.8212,-2.7988,-2.7873,-2.7354,-2.6622,-2.5895,-2.5895,-2.5895,-2.5895,-2.578,-2.5559,-2.5338,-2.5253,-2.4956,-2.4658,-2.4658,-2.4583,-2.4497,-2.4497,-2.4497,-2.4497,-2.4497,-2.4497,-2.4497,-2.4497,-2.4497,-2.4497,-2.4497,-2.4497,-2.4497,-2.4497,-2.4497,-2.4497,-2.4497,-2.4497,-2.4673,-2.5137,-2.4776,-2.4641,-2.4967,-2.413,-2.3144,-2.2058,-2.1415,-2.0674,-1.9694,-1.932,-1.9129,-1.9129,-1.8931,-1.8781,-1.8781,-1.8994,-1.8986,-1.8789,-1.9201,-1.9264,0.0,0.0,-3.8392,-3.9409,-3.9544,-3.9433,0.0,0.0,-3.9388,-3.9388,-3.9388,-3.9388,-3.9388,-3.899,-3.8646,-3.8646,-3.7704,-3.6971,-3.6971,-3.6267,-3.5678,-3.5484,-3.5564,-3.5509,-3.5231,-3.5604,-3.5814,-3.5671,-3.5799,-3.5671,-3.507,-3.4924,-3.4225,-3.2868,-3.2269,-3.152,-3.0566,-2.9806,-2.9114,-2.8407,-2.7798,-2.749,-2.749,-2.749,-2.749,-2.749,-2.749,-2.749,-2.749,-2.749,-2.749,-2.749,-2.749,-2.7968,-2.8591,-2.8174,-2.7927,-2.7741,-2.7359,-2.6622,-2.5895,-2.5895,-2.5853,-2.5822,-2.5654,-2.538,-2.5073,-2.4946,-2.47,-2.4497,-2.4497,-2.4497,-2.4497,-2.4497,-2.4497,-2.4497,-2.4497,-2.4497,-2.4497,-2.4497,-2.4497,-2.4497,-2.4497,-2.4497,-2.4497,-2.4497,-2.4497,-2.4497,-2.4497,-2.4497,-2.4724,-2.5337,-2.4941,-2.4768,-2.502,-2.4362,-2.3511,-2.2464,-2.2057,-2.1437,-2.0476,-2.0102,-1.9788,-1.9423,-1.9105,-1.8915,-1.8781,-1.8923,-1.8915,-1.8789,-1.9201,-1.9177,0.0,-3.7434,0.0,-3.9858,-3.9888,-3.9589,0.0,0.0,-3.9388,-3.9388,-3.9388,-3.9388,-3.9388,-3.9394,-3.9364,-3.9364,-3.8766,-3.8287,-3.8287,-3.7225,-3.6168,-3.5399,-3.5422,-3.5198,-3.4461,-3.5052,-3.5537,-3.5504,-3.5653,-3.5638,-3.5472,-3.4938,-3.4177,-3.3178,-3.2648,-3.1942,-3.0985,-2.9872,-2.9009,-2.8407,-2.7798,-2.749,-2.749,-2.749,-2.749,-2.749,-2.749,-2.749,-2.749,-2.749,-2.749,-2.749,-2.749,-2.8229,-2.9151,-2.8314,-2.8161,-2.8231,-2.7487,-2.6622,-2.5895,-2.5895,-2.578,-2.5601,-2.5601,-2.5295,-2.4903,-2.4903,-2.47,-2.4497,-2.4497,-2.4497,-2.4497,-2.4497,-2.4497,-2.4497,-2.4497,-2.4497,-2.4497,-2.4497,-2.4497,-2.4497,-2.4497,-2.4497,-2.4497,-2.4497,-2.4497,-2.4497,-2.4497,-2.4497,-2.4838,-2.5751,-2.5451,-2.5695,-2.7028,-2.5804,-2.5061,-2.545,-2.4208,-2.2973,-2.1927,-2.1567,-2.078,-1.9423,-1.9399,-1.9169,-1.8781,-1.9177,-1.9169,-1.8789,-1.9201,-1.9177,0.0,0.0,0.0,-3.879,-3.9501,-3.995,-4.0315,-4.0217,-4.0053,-4.0053,-3.9709,-3.9388,-3.9388,-3.9388,-3.9228,-3.8701,-3.8504,-3.8009,-3.6952,-3.6189,-3.5423,-3.4626,-3.465,-3.461,-3.4346,-3.5019,-3.5504,-3.5504,-3.507,-3.4795,-3.4725,-3.363,-3.2847,-3.2506,-3.1859,-3.1347,-3.0986,-3.0215,-2.9719,-2.9497,-2.8529,-2.8072,-2.8059,-2.7659,-2.749,-2.749,-2.749,-2.749,-2.749,-2.749,-2.749,-2.7529,-2.7941,-2.8333,-2.8721,-2.8567,-2.8247,-2.7813,-2.7342,-2.6622,-2.5895,-2.5728,-2.5644,-2.5559,-2.5253,-2.5031,-2.4861,-2.47,-2.4572,-2.4497,-2.4497,-2.4497,-2.458,-2.4869,-2.5192,-2.5399,-2.5399,-2.5181,-2.4859,-2.4559,-2.4735,-2.4848,-2.4549,-2.4497,-2.4497,-2.4497,-2.4497,-2.4611,-2.49,-2.4941,-2.5213,-2.5813,-2.574,-2.5685,-2.5784,-2.5326,-2.4938,-2.4669,-2.3574,-2.2647,-2.2019,-2.102,-2.0135,-1.9423,-1.9145,-1.8962,-1.8781,-1.8962,-1.8955,-1.8789,-1.9201,-1.9138,-3.6231,0.0,0.0,0.0,-3.9177,-3.9728,-4.0696,-4.0674,-4.0397,-4.0397,-4.0053,-3.9679,-3.9454,-3.9192,-3.8811,-3.8277,-3.8032,-3.7491,-3.639,-3.5821,-3.5131,-3.4135,-3.4136,-3.4066,-3.3596,-3.4274,-3.482,-3.51,-3.461,-3.4428,-3.4677,-3.3269,-3.2232,-3.1736,-3.1505,-3.1259,-3.0986,-3.0388,-3.01,-3.0087,-2.9144,-2.8616,-2.8407,-2.7981,-2.7673,-2.749,-2.749,-2.749,-2.749,-2.749,-2.749,-2.7555,-2.815,-2.8503,-2.8721,-2.8782,-2.8394,-2.7801,-2.7371,-2.658,-2.577,-2.5644,-2.5475,-2.5306,-2.4988,-2.4828,-2.4743,-2.454,-2.4497,-2.4497,-2.4497,-2.4611,-2.4848,-2.5303,-2.5668,-2.5875,-2.5875,-2.5658,-2.5357,-2.5047,-2.5233,-2.5357,-2.5003,-2.4985,-2.4985,-2.4985,-2.4985,-2.5099,-2.5409,-2.5451,-2.5616,-2.6061,-2.6113,-2.6059,-2.5794,-2.5787,-2.562,-2.5207,-2.4501,-2.3691,-2.2733,-2.1795,-2.0768,-1.959,-1.9296,-1.9066,-1.8781,-1.8781,-1.8781,-1.8781,-1.8988,-1.8903,0.0,0.0,0.0,0.0,0.0,0.0,-4.1347,-4.1113,-4.033,-4.0375,-4.036,-4.0099,-3.9486,-3.8679,-3.8142,-3.8127,-3.7424,-3.688,-3.6841,-3.627,-3.5363,-3.4061,-3.4007,-3.3542,-3.2241,-3.2769,-3.3492,-3.4197,-3.4245,-3.4576,-3.5424,-3.4036,-3.2519,-3.1099,-3.1713,-3.17,-3.1024,-3.0438,-3.0127,-3.0113,-2.9575,-2.9035,-2.8472,-2.8433,-2.8072,-2.7529,-2.7503,-2.749,-2.749,-2.749,-2.749,-2.7555,-2.8177,-2.8765,-2.9269,-2.8971,-2.8667,-2.8267,-2.7499,-2.6498,-2.5612,-2.5559,-2.5253,-2.4903,-2.4903,-2.47,-2.4497,-2.4497,-2.4497,-2.4507,-2.4518,-2.4869,-2.5378,-2.5802,-2.5906,-2.5962,-2.5962,-2.5962,-2.5906,-2.593,-2.5885,-2.5941,-2.5875,-2.5875,-2.5875,-2.5875,-2.5875,-2.593,-2.5941,-2.5941,-2.6117,-2.6584,-2.6635,-2.6822,-2.7268,-2.7309,-2.7309,-2.7309,-2.7251,-2.6264,-2.4168,-2.402,-2.2716,-1.9957,-1.9901,-1.9511,-1.8781,-1.8781,-1.8781,-1.8781,-1.8566,-1.852,-3.5256,0.0,0.0,0.0,0.0,0.0,-3.9431,-3.9136,-3.8833,-3.9692,-3.9164,-3.846,-3.8298,-3.7543,-3.6846,-3.6443,-3.6674,-3.6503,-3.5251,-3.51,-3.4758,-3.3807,-3.3457,-3.3151,-3.2779,-3.3032,-3.3283,0.0,-3.3024,-3.3269,-3.4576,-3.3699,-3.2755,-3.1846,-3.1468,-3.1222,-3.0986,-3.083,-3.0751,-3.0738,-3.0176,-2.9774,-2.9614,-2.8765,-2.8294,-2.8124,-2.7673,-2.749,-2.749,-2.749,-2.749,-2.7594,-2.8634,-2.9131,-2.9392,-3.0138,-2.9438,-2.8136,-2.7947,-2.6741,-2.5295,-2.5126,-2.4999,-2.4861,-2.4658,-2.454,-2.4497,-2.4497,-2.4497,-2.458,-2.491,-2.5616,-2.6237,-2.6397,-2.6677,-2.6926,-2.6926,-2.6926,-2.6729,-2.6009,-2.6144,-2.6324,-2.5982,-2.5875,-2.5875,-2.5875,-2.5875,-2.6044,-2.6376,-2.6428,-2.6604,-2.7071,-2.7123,-2.7164,-2.7299,-2.7309,-2.7309,-2.7309,-2.5819,-2.4596,-2.3754,-2.2238,-2.0843,-1.9566,-1.9558,-1.928,-1.8781,-1.8781,-1.8743,-1.8566,-1.8148,-1.8042,-3.4883,0.0,0.0,0.0,0.0,0.0,-3.841,-3.8049,-3.7789,-3.9145,-3.8531,-3.7618,-3.7349,-3.6523,-3.5763,-3.5467,-3.5507,-3.5278,-3.4397,-3.429,-3.4069,-3.3409,-3.3159,-3.2983,-3.2769,-3.2685,-3.2759,-3.3085,-3.2477,-3.2599,-3.3768,-3.3734,-3.3164,-3.211,-3.1663,-3.1296,-3.0986,-3.0986,-3.0986,-3.0986,-3.0647,-3.0322,-3.0061,-2.917,-2.8656,-2.8381,-2.7771,-2.749,-2.749,-2.749,-2.749,-2.7607,-2.8817,-2.931,-2.9382,-3.0083,-2.9369,-2.8056,-2.7602,-2.64,-2.5073,-2.4946,-2.4818,-2.47,-2.454,-2.4497,-2.4497,-2.4497,-2.4631,-2.489,-2.5378,-2.603,-2.6667,-2.6864,-2.7112,-2.7309,-2.7309,-2.7309,-2.7154,-2.6604,-2.6718,-2.6822,-2.6542,-2.6501,-2.6501,-2.6501,-2.6501,-2.6594,-2.6864,-2.6905,-2.7009,-2.7278,-2.7309,-2.7309,-2.7309,-2.7309,-2.7109,-2.6668,-2.5315,-2.4105,-2.3162,-2.1688,-2.0468,-1.963,-1.9495,-1.9146,-1.8651,-1.8651,-1.852,-1.8148,-1.7869,-1.7732,-3.4616,-3.4481,0.0,-3.4778,-3.4608,0.0,-3.7434,-3.7039,-3.6606,-3.8212,-3.7766,-3.6924,-3.6375,-3.5507,-3.4843,-3.479,-3.4204,-3.3845,-3.4047,-3.3852,-3.3533,-3.3072,-3.3068,-3.3,-3.2536,-3.2124,-3.2119,-3.2836,-3.2463,-3.2541,-3.3283,-3.3871,-3.3581,-3.2254,-3.2037,-3.1676,-3.1024,-3.0986,-3.0986,-3.0986,-3.0986,-3.0725,-3.0166,-2.9575,-2.9022,-2.8472,-2.7798,-2.749,-2.749,-2.749,-2.7529,-2.7699,-2.8843,-2.9314,-2.9353,-2.9391,-2.8809,-2.7896,-2.6801,-2.5757,-2.4861,-2.4861,-2.47,-2.4497,-2.4497,-2.4497,-2.4497,-2.4497,-2.4869,-2.5344,-2.5782,-2.6304,-2.6801,-2.7206,-2.7309,-2.7309,-2.7309,-2.7309,-2.7309,-2.7309,-2.7309,-2.7309,-2.7309,-2.7309,-2.7309,-2.7309,-2.7309,-2.7309,-2.7309,-2.7309,-2.7289,-2.7237,-2.7226,-2.7226,-2.7226,-2.709,-2.6594,-2.5722,-2.5119,-2.4085,-2.2439,-2.1699,-2.0843,-1.9861,-1.9487,-1.902,-1.8435,-1.8435,-1.8156,-1.7675,-1.7675,-1.7527,-3.3728,-3.3928,-3.4137,-3.3002,-3.309,0.0,-3.3992,-3.3522,-3.3363,-3.4643,-3.4338,-3.3954,-3.4282,-3.4189,-3.3879,-3.3387,-3.376,-3.4035,-3.3832,-3.3725,-3.3674,-3.3572,-3.3187,-3.3003,-3.3038,-3.2589,-3.2215,-3.2068,-3.2609,-3.3318,-3.4041,-3.3665,-3.3283,-3.3003,-3.1823,-3.1161,-3.0986,-3.0986,-3.0986,-3.0986,-3.0986,-3.0934,-3.079,-2.9758,-2.9258,-2.9039,-2.796,-2.749,-2.749,-2.749,-2.7798,-2.8281,-2.9035,-2.9441,-2.9691,-2.9478,-2.8652,-2.7464,-2.6524,-2.5474,-2.4583,-2.4583,-2.454,-2.4497,-2.4497,-2.4497,-2.4497,-2.4497,-2.513,-2.5771,-2.5854,-2.6542,-2.7195,-2.7289,-2.7309,-2.7309,-2.7309,-2.7309,-2.7309,-2.7309,-2.7309,-2.7309,-2.7309,-2.7309,-2.7309,-2.7309,-2.7309,-2.7309,-2.7309,-2.7309,-2.7164,-2.6791,-2.675,-2.675,-2.675,-2.5704,-2.5132,-2.5299,-2.3378,-2.2053,-2.1707,-2.075,-1.9974,-1.9519,-1.8942,-1.8404,-1.7869,-1.7869,-1.7815,-1.7675,-1.7481,-1.7333,-3.3485,-3.3485,-3.3416,-3.1892,-3.1769,0.0,0.0,-3.2042,-3.183,-3.2984,-3.2738,-3.2352,-3.235,-3.2507,-3.2603,-3.2548,-3.2933,-3.327,-3.3398,-3.3639,-3.3703,-3.3424,-3.3242,-3.3203,-3.3274,-3.2898,-3.2391,-3.1682,-3.2772,-3.3558,-3.3748,-3.3768,-3.3768,-3.3768,-3.2304,-3.1529,-3.1529,-3.1198,-3.0986,-3.0986,-3.0699,-3.0555,-3.0516,-2.9366,-2.8865,-2.8813,-2.7868,-2.749,-2.749,-2.749,-2.7978,-2.8729,-2.9028,-2.9411,-2.9722,-2.9272,-2.8438,-2.7342,-2.6318,-2.5306,-2.4497,-2.4497,-2.4497,-2.4497,-2.4497,-2.4497,-2.4497,-2.4497,-2.5181,-2.5875,-2.5875,-2.6615,-2.7309,-2.7309,-2.7309,-2.7309,-2.7309,-2.7309,-2.7309,-2.7309,-2.7309,-2.7309,-2.7309,-2.7309,-2.7309,-2.7309,-2.7309,-2.7309,-2.7309,-2.7102,-2.6874,-2.6646,-2.6407,-2.6273,-2.6273,-2.5167,-2.439,-2.4079,-2.2241,-2.104,-2.0716,-1.9726,-1.9036,-1.8777,-1.8326,-1.7962,-1.7675,-1.7574,-1.7481,-1.7481,-1.738,-1.7366,-3.355,-3.3232,-3.2778,-3.1215,-3.0874,-3.1063,0.0,0.0,0.0,-3.1805,-3.1668,-3.1318,-3.0896,-3.1067,-3.1386,-3.1838,-3.2077,-3.234,-3.2704,-3.3219,-3.3458,-3.3162,-3.324,-3.3356,-3.3398,-3.2982,-3.2502,-3.1876,-3.2766,-3.3276,-3.3157,-3.3616,-3.3925,-3.4075,-3.2648,-3.1942,-3.211,-3.1371,-3.0986,-3.0973,-3.0375,-3.01,-3.0061,-2.8922,-2.842,-2.8381,-2.7771,-2.749,-2.749,-2.7469,-2.8057,-2.9015,-2.9015,-2.9331,-2.9765,-2.9063,-2.8223,-2.7261,-2.6193,-2.5221,-2.4497,-2.4497,-2.4497,-2.4497,-2.4497,-2.4497,-2.4497,-2.4497,-2.5181,-2.5875,-2.5875,-2.6615,-2.7309,-2.7309,-2.7309,-2.7309,-2.7309,-2.7309,-2.7309,-2.7309,-2.7309,-2.7309,-2.7309,-2.7309,-2.7309,-2.7309,-2.7309,-2.7309,-2.7309,-2.6905,-2.6584,-2.649,-2.603,-2.5706,-2.5515,-2.4564,-2.3528,-2.2525,-2.1188,-2.0193,-1.9605,-1.8808,-1.8288,-1.804,-1.7815,-1.7675,-1.7628,-1.7426,-1.7279,-1.7279,-1.7279,-1.7501,-3.3878,-3.3394,-3.2576,-3.1033,-3.0778,-3.0733,-3.019,0.0,-2.9957,-3.0061,0.0,-3.0145,-3.0572,0.0,0.0,0.0,-3.1587,-3.2064,-3.1637,-3.2051,-3.2566,-3.3018,-3.3124,-3.3197,-3.3398,-3.2666,-3.2419,-3.2986,-3.2369,-3.2273,-3.289,-3.2563,-3.2648,-3.3318,-3.1896,-3.1431,-3.2074,-3.1371,-3.0986,-3.0973,-3.0375,-3.01,-3.0061,-2.8922,-2.842,-2.8381,-2.7771,-2.749,-2.749,-2.7369,-2.8002,-2.9015,-2.9015,-2.943,-2.9948,-2.9094,-2.8091,-2.7028,-2.611,-2.5221,-2.4497,-2.4497,-2.4497,-2.4497,-2.4497,-2.4497,-2.4497,-2.4497,-2.5181,-2.5875,-2.5875,-2.6615,-2.7309,-2.7309,-2.7309,-2.7309,-2.7309,-2.7309,-2.7309,-2.7309,-2.7309,-2.7309,-2.7309,-2.7309,-2.7309,-2.7309,-2.7309,-2.7309,-2.7309,-2.6905,-2.6459,-2.6044,-2.5564,-2.4931,-2.4098,-2.2799,-2.1708,-2.0903,-1.954,-1.8636,-1.8341,-1.8218,-1.8001,-1.7768,-1.7721,-1.7574,-1.7333,-1.7333,-1.7279,-1.7279,-1.7279,-1.7501,-3.3426,-3.2667,-3.1963,-3.0873,-3.0442,-3.0165,-2.9856,-2.9792,-2.9691,-2.9365,0.0,0.0,0.0,0.0,0.0,0.0,-3.0997,-3.1311,-3.1386,-3.1587,-3.2064,-3.3011,0.0,0.0,-3.2668,-3.236,-3.2329,-3.2752,-3.2252,-3.2131,-3.2722,-3.2635,-3.2939,-3.3802,-3.2412,-3.1992,-3.272,-3.1579,-3.0986,-3.0973,-3.0072,-2.964,-2.9601,-2.8425,-2.7889,-2.7863,-2.7594,-2.7469,-2.7395,-2.7665,-2.8112,-2.8669,-2.8976,-2.9514,-3.0037,-2.9573,-2.8752,-2.7851,-2.7476,-2.6782,-2.5924,-2.5432,-2.4893,-2.4497,-2.4497,-2.4497,-2.4559,-2.4828,-2.5388,-2.5937,-2.6262,-2.6812,-2.7309,-2.7309,-2.7309,-2.7309,-2.7309,-2.7309,-2.7309,-2.7309,-2.7309,-2.7309,-2.7309,-2.7309,-2.7309,-2.7309,-2.7309,-2.7309,-2.7309,-2.6905,-2.6438,-2.5927,-2.5492,-2.4713,-2.3487,-2.2213,-2.1114,-2.0251,-1.8991,-1.8141,-1.7861,-1.7861,-1.7761,-1.7481,-1.7481,-1.7426,-1.7279,-1.7279,-1.7279,-1.7279,-1.7279,-1.7604,-3.3407,-3.2398,-3.1511,-3.0968,-3.0419,-2.998,-2.9829,-2.9792,-2.9716,-2.9453,-2.9729,0.0,0.0,0.0,0.0,0.0,0.0,-3.0746,0.0,-3.1047,-3.1361,-3.2478,0.0,0.0,0.0,-3.2164,-3.2093,-3.2394,-3.1963,-3.1913,-3.2353,-3.2445,-3.3012,-3.41,-3.2624,-3.2232,-3.3178,-3.1763,-3.0986,-3.1011,-2.9823,-2.931,-2.9284,-2.8059,-2.7503,-2.7469,-2.7469,-2.746,-2.7459,-2.7816,-2.8231,-2.8643,-2.8986,-2.9492,-3.0011,-2.9869,-2.9248,-2.8502,-2.8502,-2.7718,-2.6648,-2.5986,-2.5221,-2.4497,-2.4497,-2.459,-2.4755,-2.5096,-2.5637,-2.619,-2.6532,-2.6957,-2.7309,-2.7309,-2.7309,-2.7309,-2.7309,-2.7309,-2.7309,-2.7309,-2.7309,-2.7309,-2.7309,-2.7309,-2.7309,-2.7309,-2.7309,-2.7309,-2.7309,-2.6905,-2.648,-2.6148,-2.552,-2.4595,-2.3301,-2.1989,-2.0674,-1.9392,-1.8396,-1.7807,-1.7621,-1.7581,-1.7481,-1.7279,-1.7279,-1.7279,-1.7279,-1.7279,-1.7377,-1.7465,-1.7465,-1.7765,0.0,0.0,0.0,-3.1361,-3.0972,-3.0457,-2.9917,-2.9792,-2.9942,-3.0457,-3.057,-3.0733,0.0,0.0,0.0,0.0,0.0,0.0,0.0,0.0,-3.0244,-3.1311,-3.1888,0.0,0.0,-3.2051,-3.1637,0.0,-3.1413,-3.118,-3.1686,-3.1627,-3.2216,-3.3659,-3.1957,-3.1713,-3.3178,-3.1763,-3.0986,-3.1011,-2.9823,-2.931,-2.9284,-2.8059,-2.7436,-2.7302,-2.7302,-2.7511,-2.7793,-2.7669,-2.8223,-2.915,-2.8988,-2.9277,-2.9792,-2.9792,-2.9248,-2.8502,-2.8502,-2.7342,-2.5819,-2.5819,-2.5221,-2.4497,-2.4497,-2.4817,-2.5168,-2.5179,-2.5865,-2.6594,-2.6615,-2.6957,-2.7309,-2.7309,-2.7309,-2.7309,-2.7309,-2.7309,-2.7309,-2.7309,-2.7309,-2.7309,-2.7309,-2.7309,-2.7309,-2.7309,-2.7309,-2.7309,-2.7309,-2.6905,-2.6604,-2.6594,-2.5581,-2.4494,-2.3496,-2.1941,-2.0104,-1.79,-1.7473,-1.7326,-1.7333,-1.7333,-1.7333,-1.7279,-1.7279,-1.7279,-1.7279,-1.7279,-1.7494,-1.7801,-1.7801,-1.7984,0.0,0.0,-3.0959,-3.1298,0.0,0.0,-3.0294,-3.0055,-2.9942,-3.0507,-3.062,-3.0771,-3.1298,0.0,0.0,0.0,0.0,0.0,0.0,0.0,-3.0068,-3.0796,-3.1675,0.0,0.0,0.0,-3.2014,-3.2202,-3.1619,-3.1524,-3.2174,-3.15,-3.1694,-3.2918,-3.1549,-3.1334,-3.247,-3.1505,-3.0986,-3.0973,-3.0215,-2.964,-2.9284,-2.8451,-2.7788,-2.7302,-2.7302,-2.7421,-2.7707,-2.7982,-2.8456,-2.9038,-2.939,-2.9616,-2.9792,-2.9792,-2.9624,-2.9378,-2.9378,-2.8183,-2.6648,-2.6648,-2.5673,-2.4559,-2.4859,-2.5065,-2.5313,-2.5947,-2.6376,-2.6687,-2.6988,-2.7185,-2.7309,-2.7309,-2.7309,-2.7309,-2.7309,-2.7309,-2.7309,-2.7309,-2.7309,-2.7309,-2.7309,-2.7309,-2.7309,-2.7309,-2.7309,-2.7309,-2.7309,-2.6995,-2.6685,-2.6387,-2.5584,-2.4319,-2.2355,-2.0142,-1.8434,-1.7473,-1.7333,-1.7279,-1.7279,-1.7279,-1.7279,-1.7279,-1.7279,-1.7279,-1.7279,-1.7279,-1.7337,-1.7454,-1.7713,-1.8108,-3.1689,-3.1046,0.0,-3.1035,-3.0595,0.0,-3.0532,0.0,-3.0244,-3.0783,-3.1047,-3.1223,-3.1361,0.0,0.0,0.0,0.0,0.0,0.0,-3.0018,0.0,-3.0281,-3.111,-3.1524,0.0,-3.1286,-3.1675,-3.2466,-3.165,-3.1565,0.0,-3.1921,-3.1847,-3.2636,-3.1561,-3.132,-3.1978,-3.132,-3.0986,-3.0973,-3.0375,-2.9868,-2.9441,-2.8868,-2.8179,-2.7421,-2.7593,-2.7714,-2.7811,-2.8367,-2.8812,-2.9277,-2.9641,-2.9792,-2.9792,-2.9792,-2.9792,-2.9753,-2.9456,-2.8343,-2.7069,-2.673,-2.5684,-2.459,-2.5055,-2.5303,-2.5616,-2.6361,-2.6739,-2.6926,-2.7226,-2.7309,-2.7309,-2.7309,-2.7309,-2.7309,-2.7309,-2.7309,-2.7309,-2.7309,-2.7309,-2.7309,-2.7309,-2.7309,-2.7309,-2.7309,-2.7214,-2.7177,-2.7177,-2.6938,-2.6574,-2.6117,-2.5245,-2.3653,-2.0997,-1.9142,-1.7846,-1.7326,-1.7279,-1.7279,-1.7279,-1.7279,-1.7279,-1.7279,-1.7279,-1.7279,-1.7279,-1.7279,-1.7344,-1.7501,-1.7604,-1.7991]},{"header":{"parameterUnit":"m.s-1","parameterCategory":1,"la1":30.6,"la2":29.2853,"lo1":-89.7004,"lo2":-87.6739,"dy":0.0162,"dx":0.0183,"nx":112,"ny":82,"refTime":"2026-03-16T00:00:00:Z","depth":0,"parameterNumber":3,"parameterNumberName":"V-component_of_WINDS"},"data":[0.0,0.0,0.0,0.0,0.0,0.0,0.0,0.0,0.0,0.0,0.0,0.0,0.0,0.0,0.0,0.0,0.0,0.0,0.0,0.0,0.0,0.0,0.0,0.0,0.0,0.0,0.0,0.0,0.0,0.0,0.0,0.0,0.0,0.0,0.0,0.0,0.0,0.0,0.0,0.0,0.0,0.0,0.0,0.0,0.0,0.0,0.0,0.0,0.0,0.0,0.0,0.0,0.0,0.0,0.0,0.0,0.0,0.0,0.0,0.0,0.0,0.0,0.0,0.0,0.0,0.0,0.0,0.0,0.0,0.0,0.0,0.0,0.0,0.0,0.0,0.0,0.0,0.0,0.0,0.0,0.0,0.0,0.0,0.0,0.0,0.0,0.0,0.0,0.0,0.0,-2.3052,-2.3179,-2.39,-2.4443,-2.4512,-2.4925,-2.5133,-2.501,0.0,0.0,0.0,0.0,0.0,0.0,0.0,0.0,0.0,0.0,0.0,0.0,0.0,0.0,0.0,0.0,0.0,0.0,0.0,0.0,0.0,0.0,0.0,0.0,0.0,0.0,0.0,0.0,0.0,0.0,0.0,0.0,0.0,0.0,0.0,0.0,0.0,0.0,0.0,0.0,0.0,0.0,0.0,0.0,0.0,0.0,0.0,0.0,0.0,0.0,0.0,0.0,0.0,0.0,0.0,0.0,0.0,0.0,0.0,0.0,0.0,0.0,0.0,0.0,0.0,0.0,0.0,0.0,0.0,0.0,0.0,0.0,0.0,0.0,0.0,0.0,0.0,0.0,0.0,0.0,0.0,0.0,0.0,0.0,0.0,0.0,0.0,0.0,0.0,0.0,0.0,0.0,0.0,0.0,0.0,0.0,0.0,0.0,0.0,0.0,0.0,0.0,0.0,0.0,-2.2891,-2.3613,-2.4121,-2.456,-2.4941,-2.541,-2.5591,-2.541,0.0,0.0,0.0,0.0,0.0,0.0,0.0,0.0,0.0,0.0,0.0,0.0,0.0,0.0,0.0,0.0,0.0,0.0,0.0,0.0,0.0,0.0,0.0,0.0,0.0,0.0,0.0,0.0,0.0,0.0,0.0,0.0,0.0,0.0,0.0,0.0,0.0,0.0,0.0,0.0,0.0,0.0,0.0,0.0,0.0,0.0,0.0,0.0,0.0,0.0,0.0,0.0,0.0,0.0,0.0,0.0,0.0,0.0,0.0,0.0,0.0,0.0,0.0,0.0,0.0,0.0,0.0,0.0,0.0,0.0,0.0,0.0,0.0,0.0,0.0,0.0,0.0,0.0,0.0,0.0,0.0,0.0,0.0,0.0,0.0,0.0,0.0,0.0,0.0,0.0,0.0,0.0,0.0,0.0,0.0,0.0,0.0,0.0,0.0,0.0,0.0,0.0,0.0,-2.3174,-2.3437,-2.4062,-2.4512,-2.4951,-2.5391,-2.5669,-2.5832,-2.5915,-2.6632,0.0,0.0,0.0,0.0,0.0,0.0,0.0,0.0,0.0,0.0,0.0,0.0,0.0,0.0,0.0,0.0,0.0,0.0,0.0,0.0,0.0,0.0,0.0,0.0,0.0,0.0,0.0,0.0,0.0,0.0,0.0,0.0,0.0,0.0,0.0,0.0,0.0,0.0,0.0,0.0,0.0,0.0,0.0,0.0,0.0,0.0,0.0,0.0,0.0,0.0,0.0,0.0,0.0,0.0,0.0,0.0,0.0,0.0,0.0,0.0,0.0,0.0,0.0,0.0,0.0,0.0,0.0,0.0,0.0,0.0,0.0,0.0,0.0,0.0,0.0,0.0,0.0,0.0,0.0,0.0,0.0,0.0,0.0,0.0,0.0,0.0,0.0,0.0,0.0,0.0,0.0,0.0,0.0,0.0,0.0,0.0,0.0,0.0,0.0,0.0,0.0,0.0,-2.3649,-2.3994,-2.4512,-2.4863,-2.5339,-2.6022,-2.6151,-2.6349,-2.669,-2.7497,0.0,0.0,0.0,0.0,0.0,0.0,0.0,0.0,0.0,0.0,0.0,0.0,0.0,0.0,0.0,0.0,0.0,0.0,0.0,0.0,0.0,0.0,0.0,0.0,0.0,0.0,0.0,0.0,0.0,0.0,0.0,0.0,0.0,0.0,0.0,0.0,0.0,0.0,0.0,0.0,0.0,0.0,0.0,0.0,0.0,0.0,0.0,0.0,0.0,0.0,0.0,0.0,0.0,0.0,0.0,0.0,0.0,0.0,0.0,0.0,0.0,0.0,0.0,0.0,0.0,0.0,0.0,0.0,0.0,0.0,0.0,0.0,0.0,0.0,0.0,0.0,0.0,0.0,0.0,0.0,0.0,0.0,0.0,0.0,0.0,0.0,0.0,0.0,0.0,0.0,0.0,0.0,0.0,0.0,0.0,0.0,0.0,0.0,0.0,0.0,0.0,0.0,-2.4037,-2.4111,-2.4979,-2.5096,-2.5652,-2.6968,-2.7219,-2.7467,-2.795,-2.8807,0.0,0.0,0.0,0.0,0.0,0.0,0.0,0.0,0.0,0.0,0.0,0.0,0.0,0.0,0.0,0.0,0.0,0.0,0.0,0.0,0.0,0.0,0.0,0.0,0.0,0.0,0.0,0.0,0.0,0.0,0.0,0.0,0.0,0.0,0.0,0.0,0.0,0.0,0.0,0.0,0.0,0.0,0.0,0.0,0.0,0.0,0.0,0.0,0.0,0.0,0.0,0.0,0.0,0.0,0.0,0.0,0.0,0.0,0.0,0.0,0.0,0.0,0.0,0.0,0.0,0.0,0.0,0.0,0.0,0.0,0.0,0.0,0.0,0.0,0.0,0.0,0.0,0.0,0.0,0.0,0.0,0.0,0.0,0.0,0.0,0.0,0.0,0.0,0.0,0.0,0.0,0.0,0.0,0.0,0.0,0.0,0.0,0.0,0.0,0.0,0.0,0.0,-2.5697,-2.6228,-2.6915,-2.7184,-2.7613,-2.8297,-2.8344,-2.8308,-2.8284,0.0,0.0,0.0,0.0,0.0,0.0,0.0,0.0,0.0,0.0,0.0,0.0,0.0,0.0,0.0,0.0,0.0,0.0,0.0,0.0,0.0,0.0,0.0,0.0,0.0,0.0,0.0,0.0,0.0,0.0,0.0,0.0,0.0,0.0,0.0,0.0,0.0,0.0,0.0,0.0,0.0,0.0,0.0,0.0,0.0,0.0,0.0,0.0,0.0,0.0,0.0,0.0,0.0,0.0,0.0,0.0,0.0,0.0,0.0,0.0,0.0,0.0,0.0,0.0,0.0,0.0,0.0,0.0,0.0,0.0,0.0,0.0,0.0,0.0,0.0,0.0,0.0,0.0,0.0,0.0,0.0,0.0,0.0,0.0,0.0,0.0,0.0,0.0,0.0,0.0,0.0,0.0,0.0,0.0,0.0,0.0,0.0,0.0,0.0,0.0,0.0,0.0,-2.6557,-2.7103,-2.7712,-2.8316,-2.8714,-2.903,-2.933,-2.9224,-2.9014,-2.8743,0.0,0.0,0.0,0.0,0.0,0.0,0.0,0.0,0.0,0.0,0.0,0.0,0.0,0.0,0.0,0.0,0.0,0.0,0.0,0.0,0.0,0.0,0.0,0.0,0.0,0.0,0.0,0.0,0.0,0.0,0.0,0.0,0.0,0.0,0.0,0.0,0.0,0.0,0.0,0.0,0.0,0.0,0.0,0.0,0.0,0.0,0.0,0.0,0.0,0.0,0.0,0.0,0.0,0.0,0.0,0.0,0.0,0.0,0.0,0.0,0.0,0.0,0.0,0.0,0.0,0.0,0.0,0.0,0.0,0.0,0.0,0.0,0.0,0.0,0.0,0.0,0.0,0.0,0.0,0.0,0.0,0.0,0.0,0.0,0.0,0.0,0.0,0.0,0.0,0.0,0.0,0.0,0.0,0.0,0.0,0.0,0.0,0.0,0.0,0.0,0.0,0.0,-2.8032,-2.8023,-2.8221,-2.894,-2.9269,-2.9613,-3.0086,-2.9792,-2.9569,0.0,0.0,0.0,0.0,0.0,0.0,0.0,0.0,0.0,0.0,0.0,0.0,0.0,0.0,0.0,0.0,0.0,0.0,0.0,0.0,0.0,0.0,0.0,0.0,0.0,0.0,0.0,0.0,0.0,0.0,0.0,0.0,0.0,0.0,0.0,0.0,0.0,0.0,0.0,0.0,0.0,0.0,0.0,0.0,0.0,0.0,0.0,0.0,0.0,0.0,0.0,0.0,0.0,0.0,0.0,0.0,0.0,0.0,0.0,0.0,0.0,0.0,0.0,0.0,0.0,0.0,0.0,0.0,0.0,0.0,0.0,0.0,0.0,0.0,0.0,0.0,0.0,0.0,0.0,0.0,0.0,0.0,0.0,0.0,0.0,0.0,0.0,0.0,0.0,0.0,0.0,0.0,0.0,0.0,0.0,0.0,0.0,0.0,0.0,0.0,0.0,0.0,0.0,-2.8702,-2.9455,-3.0331,-3.1308,-3.1069,-3.0999,-3.1339,-3.0543,-2.9764,-2.9099,0.0,0.0,0.0,0.0,0.0,0.0,0.0,0.0,0.0,0.0,0.0,0.0,0.0,0.0,0.0,0.0,0.0,0.0,0.0,0.0,0.0,0.0,0.0,0.0,0.0,0.0,0.0,0.0,0.0,0.0,0.0,0.0,0.0,0.0,0.0,0.0,0.0,0.0,0.0,0.0,0.0,0.0,0.0,0.0,0.0,0.0,0.0,0.0,0.0,0.0,0.0,0.0,0.0,0.0,0.0,0.0,0.0,0.0,0.0,0.0,0.0,0.0,0.0,0.0,0.0,0.0,0.0,0.0,0.0,0.0,0.0,0.0,0.0,0.0,0.0,0.0,0.0,0.0,0.0,0.0,0.0,0.0,0.0,0.0,0.0,0.0,0.0,0.0,0.0,0.0,0.0,0.0,0.0,0.0,0.0,0.0,0.0,0.0,0.0,0.0,0.0,0.0,-2.91,-3.0279,-3.1348,-3.2099,-3.1962,-3.1675,-3.1419,-3.0757,-2.9866,-2.8702,0.0,0.0,0.0,0.0,0.0,0.0,0.0,0.0,0.0,0.0,0.0,0.0,0.0,0.0,0.0,0.0,0.0,0.0,0.0,0.0,0.0,0.0,0.0,0.0,0.0,0.0,0.0,0.0,0.0,0.0,0.0,0.0,0.0,0.0,0.0,0.0,0.0,0.0,0.0,0.0,0.0,0.0,0.0,0.0,0.0,0.0,0.0,0.0,0.0,0.0,0.0,0.0,0.0,0.0,0.0,0.0,0.0,0.0,0.0,0.0,0.0,0.0,0.0,0.0,0.0,0.0,0.0,0.0,0.0,0.0,0.0,0.0,0.0,0.0,0.0,0.0,0.0,0.0,0.0,0.0,0.0,0.0,0.0,0.0,0.0,0.0,0.0,0.0,0.0,0.0,0.0,0.0,0.0,0.0,0.0,0.0,0.0,0.0,0.0,0.0,0.0,0.0,-2.9321,-3.0538,-3.1467,-3.1871,-3.2043,-3.1786,-3.0763,-3.0716,-3.005,-2.8486,0.0,0.0,0.0,0.0,0.0,0.0,0.0,0.0,0.0,0.0,0.0,0.0,0.0,0.0,0.0,0.0,0.0,0.0,0.0,0.0,0.0,0.0,0.0,0.0,0.0,0.0,0.0,0.0,0.0,0.0,0.0,0.0,0.0,0.0,0.0,0.0,0.0,0.0,0.0,0.0,0.0,0.0,0.0,0.0,0.0,0.0,0.0,0.0,0.0,0.0,0.0,0.0,0.0,0.0,0.0,0.0,0.0,0.0,0.0,0.0,-2.6117,-2.631,0.0,0.0,0.0,0.0,0.0,0.0,0.0,0.0,0.0,0.0,0.0,0.0,0.0,0.0,0.0,0.0,0.0,0.0,0.0,0.0,0.0,0.0,0.0,0.0,0.0,0.0,0.0,0.0,0.0,0.0,0.0,0.0,0.0,0.0,0.0,0.0,0.0,0.0,0.0,0.0,-2.9564,-3.033,-3.1107,-3.2031,-3.1926,-3.172,-3.1474,-3.1655,-3.1235,-2.9941,-2.9356,0.0,0.0,0.0,0.0,0.0,0.0,0.0,0.0,0.0,0.0,0.0,0.0,0.0,0.0,0.0,0.0,0.0,0.0,0.0,0.0,0.0,0.0,0.0,0.0,0.0,0.0,0.0,0.0,0.0,0.0,0.0,0.0,0.0,0.0,0.0,0.0,0.0,0.0,0.0,0.0,0.0,0.0,0.0,0.0,0.0,0.0,0.0,0.0,0.0,0.0,0.0,0.0,0.0,0.0,0.0,0.0,0.0,0.0,0.0,-2.6693,-2.6777,0.0,0.0,0.0,0.0,0.0,0.0,0.0,0.0,0.0,0.0,0.0,0.0,0.0,0.0,0.0,0.0,0.0,0.0,0.0,0.0,0.0,0.0,0.0,0.0,0.0,0.0,0.0,0.0,0.0,0.0,0.0,0.0,0.0,0.0,0.0,0.0,0.0,0.0,0.0,0.0,-2.9286,-3.0433,-3.1327,-3.189,-3.2149,-3.2279,-3.2317,-3.2192,-3.1872,-3.1302,-3.0358,0.0,0.0,0.0,0.0,0.0,0.0,0.0,0.0,0.0,0.0,0.0,0.0,0.0,0.0,0.0,0.0,0.0,0.0,0.0,0.0,0.0,0.0,0.0,0.0,0.0,0.0,0.0,0.0,0.0,0.0,0.0,0.0,0.0,0.0,0.0,0.0,0.0,0.0,0.0,0.0,0.0,0.0,0.0,0.0,0.0,0.0,0.0,0.0,0.0,0.0,0.0,0.0,0.0,-2.6741,-2.705,-2.6868,-2.743,-2.7755,-2.7866,-2.7591,-2.7642,-2.7993,-2.7993,0.0,0.0,0.0,0.0,0.0,0.0,0.0,0.0,0.0,0.0,0.0,0.0,0.0,0.0,0.0,0.0,0.0,0.0,0.0,0.0,0.0,0.0,0.0,0.0,-3.1267,-3.1099,-2.9217,0.0,0.0,0.0,0.0,0.0,0.0,0.0,0.0,0.0,0.0,0.0,-2.9291,-3.0771,-3.1831,-3.1885,-3.2525,-3.2954,-3.3028,-3.27,-3.2506,-3.2526,-3.1392,-3.0344,0.0,0.0,0.0,0.0,0.0,0.0,0.0,0.0,0.0,0.0,0.0,0.0,0.0,0.0,0.0,0.0,0.0,0.0,0.0,0.0,0.0,0.0,0.0,0.0,0.0,0.0,0.0,0.0,0.0,0.0,0.0,0.0,-2.3305,-2.4146,0.0,0.0,0.0,0.0,0.0,0.0,0.0,0.0,0.0,0.0,0.0,0.0,0.0,-2.4941,-2.5387,-2.6158,-2.6349,-2.598,-2.6981,-2.7544,-2.7738,-2.8459,-2.9123,-2.9719,-2.9701,0.0,-2.9088,-2.9088,0.0,0.0,0.0,0.0,0.0,0.0,0.0,0.0,0.0,0.0,0.0,0.0,0.0,0.0,0.0,0.0,0.0,0.0,0.0,0.0,0.0,0.0,-3.3799,-3.3002,-3.2905,-3.2687,0.0,-3.0796,-3.0077,-3.0009,-2.9632,-2.9301,0.0,0.0,0.0,0.0,0.0,0.0,-3.0769,-3.1555,-3.2253,-3.2678,-3.3004,-3.3164,-3.3164,-3.375,-3.3888,-3.3353,-3.2645,-3.2171,-3.2019,-3.0557,0.0,0.0,0.0,0.0,0.0,0.0,0.0,0.0,0.0,0.0,0.0,0.0,0.0,0.0,0.0,0.0,0.0,0.0,0.0,0.0,0.0,0.0,0.0,0.0,0.0,0.0,0.0,0.0,0.0,-2.2741,-2.3455,-2.4108,-2.4066,-2.394,0.0,0.0,0.0,0.0,0.0,0.0,0.0,0.0,0.0,-2.4788,-2.4811,-2.5066,-2.5599,-2.6251,-2.6623,-2.6648,-2.7504,-2.8158,-2.8549,-2.9166,-2.9785,-3.0372,-3.0488,-3.0567,-3.0579,-2.9989,-2.9569,-2.9309,0.0,0.0,0.0,0.0,-3.1586,-3.2547,-3.2793,-3.3255,-3.3628,-3.3362,0.0,0.0,0.0,0.0,0.0,0.0,0.0,-3.3645,0.0,0.0,-3.4298,-3.3962,-3.3894,-3.3791,-3.3465,-3.3006,-3.2308,0.0,-3.0698,-3.029,-2.9615,-2.9283,0.0,0.0,0.0,-3.0385,-3.0675,-3.1896,-3.2816,-3.3057,-3.3536,-3.4037,-3.438,-3.4398,-3.4457,-3.4564,-3.3634,-3.2954,-3.2669,-3.1931,-3.1306,0.0,0.0,0.0,0.0,0.0,0.0,0.0,0.0,0.0,0.0,0.0,0.0,0.0,0.0,0.0,0.0,0.0,0.0,0.0,0.0,0.0,0.0,0.0,0.0,0.0,0.0,0.0,0.0,-2.3006,-2.3453,-2.412,-2.4085,-2.3877,0.0,0.0,0.0,0.0,0.0,0.0,-2.4545,-2.4223,-2.4382,-2.5279,-2.5314,-2.5566,-2.6094,-2.6541,-2.6994,-2.743,-2.8122,-2.8804,-2.9422,-2.9869,-3.0389,-3.0878,-3.1288,-3.1668,-3.1928,-3.0791,-3.0217,-3.0036,-3.0135,-3.0657,-3.1415,-3.1359,-3.2554,-3.4161,-3.3888,-3.443,-3.5071,-3.4427,-3.3962,-3.3441,-3.2344,0.0,0.0,0.0,0.0,-3.4443,-3.4617,-3.4661,-3.4661,-3.4661,-3.453,-3.4414,-3.4414,-3.4414,-3.395,0.0,-3.1979,-3.1509,-3.0465,-3.0175,0.0,-2.9213,-3.0127,-3.0868,-3.0944,-3.2438,-3.352,-3.352,-3.4045,-3.4603,-3.5116,-3.469,-3.469,-3.5363,-3.4554,-3.3911,-3.3527,-3.3448,-3.2691,-3.1176,0.0,0.0,0.0,0.0,0.0,0.0,0.0,0.0,0.0,0.0,0.0,0.0,0.0,0.0,0.0,0.0,0.0,0.0,0.0,0.0,0.0,0.0,0.0,0.0,0.0,0.0,0.0,0.0,0.0,-2.4074,-2.374,0.0,0.0,0.0,0.0,-2.4728,-2.4418,-2.459,-2.5578,-2.5612,-2.5842,-2.6409,-2.6421,-2.6634,-2.711,-2.7354,-2.772,-2.8249,-2.8722,-2.9487,-3.0529,-3.0745,-3.1132,-3.1713,-3.2537,-3.2925,-3.2814,-3.1436,-3.1351,-3.2068,-3.2338,-3.2629,-3.3057,-3.4441,-3.4652,-3.4287,-3.4908,-3.5147,-3.5212,-3.5303,-3.4341,-3.3177,-3.3351,-3.2527,0.0,0.0,-3.3891,-3.4559,-3.5189,-3.5348,-3.5348,-3.5348,-3.4849,-3.4414,-3.4414,-3.4414,-3.4366,0.0,-3.3781,-3.3177,-3.2474,0.0,-3.1188,-3.0581,-3.1594,-3.2402,-3.2405,-3.3535,-3.4346,-3.4346,-3.438,-3.4428,-3.4457,-3.4428,-3.469,-3.5363,-3.5521,-3.5566,-3.5458,-3.5204,-3.4735,-3.401,-3.2989,0.0,0.0,0.0,0.0,0.0,0.0,0.0,0.0,0.0,0.0,0.0,0.0,0.0,0.0,0.0,0.0,0.0,0.0,0.0,0.0,0.0,0.0,0.0,0.0,0.0,0.0,0.0,0.0,-2.412,-2.4039,0.0,-2.3694,-2.3959,-2.4212,-2.443,-2.49,-2.5474,-2.6203,-2.6198,-2.6427,-2.6944,-2.6955,-2.7047,-2.719,-2.7624,-2.8085,-2.8562,-2.9388,-3.0122,-3.0817,-3.1798,-3.2346,-3.2575,-3.3437,-3.3859,-3.3791,-3.3305,-3.3053,-3.3023,-3.3141,-3.3356,-3.3707,-3.4242,-3.4863,-3.5447,-3.5709,-3.6033,-3.6338,-3.6258,-3.5196,-3.3951,-3.4032,-3.3761,-3.3485,-3.3935,-3.482,-3.559,-3.545,-3.5392,-3.529,-3.4849,-3.4574,-3.4414,-3.4414,-3.4414,-3.4414,-3.4414,-3.3891,-3.3431,-3.3166,-3.26,-3.206,-3.1859,-3.2571,-3.3122,-3.3122,-3.3877,-3.4414,-3.4414,-3.4414,-3.4414,-3.4414,-3.4414,-3.4758,-3.5536,-3.5648,-3.5977,-3.6616,-3.6111,-3.5337,-3.4288,-3.3877,-3.3095,0.0,0.0,0.0,0.0,0.0,0.0,0.0,0.0,0.0,0.0,0.0,0.0,0.0,0.0,0.0,0.0,0.0,0.0,0.0,0.0,0.0,0.0,0.0,0.0,0.0,-2.3121,-2.3602,-2.4143,-2.42,-2.412,-2.3923,-2.4496,-2.4923,-2.4958,-2.5589,-2.6186,-2.6691,-2.6726,-2.6887,-2.7179,-2.719,-2.727,-2.7483,-2.7983,-2.857,-2.9216,-3.0016,-3.0691,-3.1199,-3.2444,-3.298,-3.3066,-3.4277,-3.4774,-3.4815,-3.5102,-3.4996,-3.4634,-3.4366,-3.4538,-3.5005,-3.5005,-3.5589,-3.6413,-3.6413,-3.663,-3.6882,-3.675,-3.5949,-3.5053,-3.5053,-3.5053,-3.5053,-3.5053,-3.5822,-3.6489,-3.5886,-3.5712,-3.5552,-3.4878,-3.4559,-3.4414,-3.4414,-3.4414,-3.4414,-3.4414,-3.408,-3.375,-3.3547,-3.3122,-3.2759,-3.2524,-3.3064,-3.3503,-3.3503,-3.4022,-3.4414,-3.4414,-3.4414,-3.4414,-3.4414,-3.4244,-3.4576,-3.5558,-3.5563,-3.5869,-3.6718,-3.662,-3.6072,-3.5002,-3.4925,-3.3869,-3.1813,0.0,0.0,0.0,0.0,0.0,0.0,0.0,0.0,0.0,0.0,0.0,0.0,0.0,0.0,0.0,0.0,0.0,0.0,0.0,0.0,0.0,0.0,0.0,-2.2639,-2.3098,-2.3602,-2.4143,-2.42,-2.4384,-2.4866,-2.4935,-2.536,-2.6432,-2.6513,-2.6703,-2.7167,-2.719,-2.719,-2.719,-2.719,-2.7472,-2.8019,-2.8461,-2.9216,-3.0205,-3.0718,-3.1211,-3.1793,-3.2649,-3.3066,-3.3194,-3.4951,-3.5749,-3.583,-3.6652,-3.6978,-3.69,-3.6084,-3.6243,-3.6978,-3.6978,-3.6978,-3.6978,-3.6978,-3.6868,-3.6725,-3.6725,-3.6539,-3.6344,-3.6344,-3.6344,-3.6344,-3.6344,-3.6809,-3.7157,-3.6475,-3.6301,-3.6112,-3.5523,-3.4864,-3.4414,-3.4414,-3.4414,-3.4414,-3.4414,-3.4414,-3.4244,-3.3634,-3.3532,-3.3314,-3.2672,-3.3108,0.0,-3.3532,-3.4037,-3.4414,-3.4414,-3.4414,-3.4448,-3.4448,-3.4036,-3.4262,-3.5471,-3.5275,-3.5369,-3.5907,-3.68,-3.6934,-3.6282,-3.6112,-3.5062,-3.3016,0.0,0.0,0.0,0.0,0.0,0.0,0.0,0.0,0.0,0.0,0.0,0.0,0.0,0.0,0.0,0.0,0.0,0.0,0.0,0.0,0.0,-2.2025,-2.265,-2.3132,-2.3316,-2.3602,-2.4143,-2.42,-2.4384,-2.4866,-2.5268,-2.5761,-2.6455,-2.6818,-2.7041,-2.7179,-2.719,-2.719,-2.719,-2.719,-2.7543,-2.8205,-2.8534,-2.9312,-3.0502,-3.1458,-3.2167,-3.2704,-3.4236,-3.4951,-3.5033,-3.6163,-3.6652,-3.6652,-3.69,-3.6978,-3.6978,-3.673,-3.6769,-3.6978,-3.6978,-3.6978,-3.6978,-3.6978,-3.7151,-3.7353,-3.7353,-3.7201,-3.7041,-3.7041,-3.7041,-3.7041,-3.7041,-3.7172,-3.7157,-3.6475,-3.5967,-3.5494,-3.482,-3.4545,-3.4414,-3.4414,-3.4414,-3.4414,-3.4414,-3.4787,-3.4912,-3.4268,-3.4153,-3.4095,-3.392,-3.4037,0.0,-3.4153,-3.4312,-3.4414,-3.4414,-3.4924,-3.5255,-3.5255,-3.5182,-3.5569,-3.6538,-3.601,-3.602,-3.6803,-3.6625,-3.6144,-3.5358,-3.5263,-3.4676,0.0,0.0,0.0,0.0,0.0,0.0,0.0,0.0,0.0,0.0,0.0,0.0,0.0,0.0,0.0,0.0,0.0,0.0,0.0,0.0,0.0,0.0,-2.2252,-2.2934,-2.3398,-2.361,-2.3867,-2.4154,-2.4372,-2.4694,-2.5199,-2.5716,-2.6244,-2.6749,-2.7059,-2.719,-2.719,-2.719,-2.719,-2.719,-2.719,-2.7502,-2.8164,-2.8715,-2.9644,-3.0984,-3.2099,-3.2938,-3.3606,-3.5033,-3.5709,-3.5749,-3.6612,-3.6978,-3.6978,-3.6978,-3.6978,0.0,0.0,0.0,0.0,0.0,-3.6978,-3.6978,-3.6978,-3.7264,-3.7625,-3.7625,-3.7633,-3.768,-3.768,-3.768,-3.7695,-3.771,-3.7709,-3.7561,-3.6916,-3.6499,-3.6071,-3.5401,-3.5252,-3.5252,-3.5252,-3.5252,-3.5252,-3.5252,-3.5546,0.0,-3.5302,-3.5252,-3.5115,-3.4815,-3.477,-3.4681,-3.4382,-3.4607,-3.4803,-3.4852,-3.5557,-3.6056,-3.6119,-3.5671,0.0,0.0,0.0,-3.5609,-3.6649,-3.6307,0.0,0.0,0.0,0.0,0.0,0.0,0.0,0.0,-3.3354,-3.3365,0.0,0.0,0.0,0.0,0.0,0.0,0.0,0.0,0.0,0.0,0.0,0.0,0.0,0.0,0.0,0.0,-2.2434,-2.2961,-2.3452,-2.3934,-2.42,-2.42,-2.4613,-2.5119,-2.5658,-2.6175,-2.668,-2.7144,-2.719,-2.719,-2.719,-2.719,0.0,0.0,0.0,-2.7472,-2.8019,-2.8881,-3.0,-3.1424,-3.2514,-3.3458,-3.4347,-3.5359,-3.587,-3.591,-3.6652,-3.6978,-3.6978,-3.6978,-3.6978,-3.6978,-3.6978,-3.6978,-3.6978,-3.6978,-3.6978,-3.6978,-3.7017,0.0,0.0,-3.7625,-3.7877,-3.8202,-3.8202,-3.8159,-3.8133,-3.8166,-3.8061,-3.7883,-3.7397,-3.7224,-3.7042,-3.6522,-3.6415,-3.6415,-3.6415,-3.6415,-3.6415,-3.6415,-3.6446,-3.6492,-3.6399,-3.6338,-3.6061,-3.5385,-3.5231,-3.4985,-3.4387,-3.4802,-3.5276,-3.5487,0.0,0.0,-3.6918,-3.5899,-3.5474,-3.5986,-3.4878,-3.4693,-3.5819,-3.5876,-3.5876,-3.5876,-3.5876,-3.5595,-3.5015,-3.5015,-3.5065,-3.5131,-3.4386,-3.475,0.0,0.0,0.0,0.0,0.0,0.0,0.0,0.0,0.0,0.0,0.0,0.0,0.0,0.0,0.0,-2.1355,-2.2127,-2.2853,-2.3084,-2.3751,-2.42,-2.42,-2.4613,-2.5119,-2.5658,-2.6175,-2.668,-2.7144,-2.719,-2.719,-2.719,-2.719,-2.719,-2.719,-2.719,-2.7543,-2.8236,-2.8405,-2.9268,-3.0793,-3.2403,0.0,-3.4347,-3.6016,-3.673,-3.6769,-3.694,-3.6978,-3.6978,-3.6978,-3.6978,-3.6978,-3.6978,-3.6978,-3.6978,-3.6978,-3.6978,-3.7017,-3.7187,-3.738,-3.7625,-3.7777,-3.7991,-3.8202,-3.8202,-3.7868,0.0,-3.7478,-3.6748,-3.6045,-3.6492,-3.6195,-3.5905,-3.629,-3.6415,-3.6415,-3.6415,-3.6415,-3.6415,-3.6415,-3.6829,-3.7034,-3.6407,-3.5854,-3.5446,-3.5323,-3.4832,-3.4448,-3.4326,-3.4418,-3.4754,-3.5502,-3.6279,-3.7042,-3.7803,-3.7151,-3.6746,-3.6856,-3.5523,-3.487,-3.5098,-3.5114,-3.5114,-3.5114,-3.5114,-3.5346,-3.5794,-3.5794,-3.6092,-3.6671,-3.5926,-3.5727,0.0,0.0,0.0,0.0,0.0,0.0,0.0,0.0,0.0,0.0,0.0,-2.3556,-2.2659,0.0,-2.2496,-2.1644,-2.2135,-2.2691,-2.2968,-2.3519,-2.397,-2.4164,-2.4855,-2.5417,-2.5681,-2.6404,-2.6955,-2.7167,-2.719,-2.719,-2.719,-2.719,-2.719,-2.719,-2.719,-2.7387,-2.7752,-2.8657,-2.9697,-3.091,-3.2981,-3.438,-3.5247,-3.6473,-3.6978,-3.6978,-3.6978,-3.6978,-3.6978,-3.6978,-3.6978,-3.6978,-3.6978,-3.6978,-3.6978,-3.6978,-3.6978,-3.7017,-3.7226,-3.7419,-3.7625,-3.7815,-3.8028,-3.8144,-3.7839,-3.7777,-3.7742,-3.7461,-3.7098,-3.6938,-3.7297,-3.7155,-3.6996,-3.7326,-3.7385,-3.7385,-3.7385,-3.7385,-3.7385,-3.7385,-3.7351,-3.7217,-3.685,-3.5927,-3.5244,-3.5244,-3.496,-3.4613,-3.4238,-3.4518,-3.4964,-3.5545,-3.6635,-3.7519,-3.8079,-3.7508,-3.6787,-3.6059,-3.5313,-3.4899,-3.4899,-3.4899,-3.5065,-3.5446,-3.5446,-3.581,-3.6555,-3.6555,-3.6936,-3.7649,-3.7284,-3.7102,0.0,0.0,0.0,0.0,0.0,0.0,0.0,0.0,-2.4028,-2.3881,-2.3917,-2.3717,-2.2914,-2.2915,-2.274,-2.1839,-2.2139,-2.2628,-2.2964,-2.3335,-2.3751,-2.4152,-2.5096,-2.575,-2.5853,-2.6691,-2.719,-2.719,-2.719,-2.719,-2.719,-2.719,-2.719,-2.719,-2.719,-2.719,-2.719,-2.8733,-2.997,-3.0968,-3.3092,-3.4724,-3.5837,-3.6532,-3.6866,-3.6978,-3.6978,-3.6978,-3.6978,-3.6978,-3.6978,-3.6978,-3.6978,-3.6978,-3.6978,-3.6978,-3.7017,-3.7109,-3.7303,-3.7495,-3.7701,-3.7891,-3.8092,-3.8149,-3.7653,-3.7804,-3.8004,-3.756,-3.767,-3.7974,-3.8162,-3.8221,-3.825,-3.8363,-3.8391,-3.8391,-3.8391,-3.8391,-3.8391,-3.8391,-3.7922,-3.7425,-3.715,-3.6157,-3.5373,-3.5228,-3.5082,-3.479,-3.4207,-3.4653,-3.5177,-3.5603,-3.6694,-3.7521,-3.7755,-3.7235,-3.6324,-3.4982,-3.4899,-3.4965,-3.5098,-3.5114,-3.5462,-3.6208,-3.6224,-3.6589,-3.7317,-3.7317,-3.7698,-3.8411,-3.8411,-3.8411,-2.6299,-2.5607,-2.4855,-2.5315,-2.4679,-2.3748,0.0,0.0,-2.3748,-2.3074,-2.3224,-2.3078,-2.1827,-2.2409,-2.2548,-2.0836,-2.1884,-2.2964,-2.3001,-2.3335,-2.3751,-2.4152,-2.5096,-2.5888,-2.6375,-2.6898,-2.719,-2.719,-2.719,-2.719,-2.719,-2.719,-2.719,-2.719,-2.719,-2.719,-2.719,-2.7806,-2.8771,-3.0081,-3.1448,-3.3087,-3.4903,-3.5802,-3.6511,-3.6978,-3.6978,-3.6978,-3.6978,-3.6978,-3.6978,-3.6978,-3.6978,-3.6978,-3.6978,-3.6978,-3.7109,-3.7303,-3.7495,-3.7701,-3.7891,-3.8104,-3.8216,-3.827,-3.8195,-3.7862,-3.747,-3.7413,-3.7016,-3.6754,-3.7373,-3.7506,-3.7653,-3.8278,-3.8391,-3.8391,-3.8391,-3.8391,-3.8391,-3.8391,-3.8327,-3.789,-3.6643,-3.6287,-3.5946,-3.5309,-3.4635,-3.4248,-3.4275,-3.434,-3.475,-3.5679,-3.5918,-3.6092,-3.6216,-3.6174,-3.5777,-3.4949,-3.4899,-3.5197,-3.5843,-3.5876,-3.6224,-3.697,-3.6986,-3.735,-3.8096,-3.8096,-3.846,-3.9183,-3.9183,-3.9183,-2.5948,-2.5414,-2.4648,0.0,-2.3804,-2.3332,-2.2691,-2.3043,-2.3381,-2.3005,-2.3331,-2.339,-2.2457,-2.2604,-2.2536,0.0,-2.2067,-2.2665,-2.2665,-2.3187,-2.3779,-2.4257,-2.5154,-2.5796,-2.6003,-2.676,-2.719,-2.719,-2.719,-2.719,-2.719,-2.719,-2.719,-2.719,-2.719,-2.719,-2.719,-2.8367,-2.9361,-3.0135,-3.1968,-3.339,-3.4463,-3.5577,-3.6441,-3.6978,-3.6978,-3.6978,-3.6978,-3.6978,-3.6978,-3.695,-3.6624,-3.6708,-3.6978,-3.6978,-3.7148,-3.7341,-3.7534,-3.7739,-3.7947,-3.8172,-3.8282,-3.8227,-3.7891,-3.7829,-3.7857,-3.7482,-3.7473,-3.7637,-3.7902,-3.796,-3.8062,-3.8335,-3.8391,-3.8391,-3.8391,-3.8391,-3.8391,-3.8391,-3.8051,-3.7582,-3.6999,-3.6206,-3.5542,-3.526,-3.4554,-3.4126,-3.4176,-3.425,-3.4676,-3.5687,-3.5869,-3.5943,-3.6009,-3.6009,-3.5694,-3.4949,-3.5297,-3.5678,-3.5992,-3.6406,-3.7003,-3.7748,-3.7748,-3.8112,-3.8825,-3.8825,-3.9017,-3.9299,-3.9299,-3.9299,-2.5733,0.0,0.0,-2.356,-2.3093,-2.2748,-2.2202,-2.2556,-2.2893,-2.2598,-2.3127,-2.3368,-2.2468,-2.2496,-2.2466,-2.1817,-2.2103,-2.2477,-2.2681,-2.3224,-2.3801,-2.4273,-2.5036,-2.5555,-2.5704,-2.6594,-2.719,-2.719,-2.719,-2.719,-2.719,-2.719,-2.719,-2.719,-2.719,-2.719,-2.719,-2.8462,-2.9485,-3.0317,-3.199,-3.3253,-3.4231,-3.5152,-3.5714,-3.5967,-3.5967,-3.6065,-3.622,-3.622,-3.6332,-3.6469,-3.6019,-3.6131,-3.6511,-3.6511,-3.689,-3.738,-3.7534,-3.7663,-3.7786,-3.8186,-3.8192,-3.7986,-3.7723,-3.7965,-3.8243,-3.7796,-3.8033,-3.8391,-3.8391,-3.8391,-3.8391,-3.8391,-3.8391,-3.8391,-3.8391,-3.8391,-3.8391,-3.8391,-3.7987,-3.7549,-3.7328,-3.6448,-3.5639,-3.526,-3.4783,-3.4403,-3.4217,-3.4349,-3.4742,-3.5457,-3.5645,-3.5694,-3.5694,-3.5694,-3.5562,-3.5214,-3.5694,-3.6191,-3.6605,-3.7119,-3.7765,-3.8493,-3.851,-3.8758,-3.9299,-3.9299,-3.9299,-3.9299,-3.9299,-3.9299,0.0,0.0,-2.4592,-2.4164,-2.3094,-2.1985,-2.147,-2.1901,-2.2215,-2.151,-2.226,-2.2569,-2.1051,-2.1781,-2.2261,-2.1207,-2.175,-2.26,-2.3452,-2.3593,-2.3751,-2.4139,-2.4648,-2.5142,-2.5658,-2.6594,-2.719,-2.719,-2.719,-2.719,-2.719,-2.719,-2.719,-2.719,-2.719,-2.719,-2.719,-2.7441,-2.8478,-3.0304,-3.057,-3.191,-3.4203,-3.4245,-3.3936,-3.3403,-3.3403,-3.374,-3.4287,-3.4287,-3.4674,-3.5245,-3.5217,-3.5231,-3.5245,-3.5245,-3.6231,-3.7586,-3.7625,-3.7465,-3.7441,-3.8089,-3.7903,-3.754,-3.809,-3.8328,-3.8396,-3.8363,-3.8363,-3.8391,-3.8391,-3.8391,-3.8391,-3.8391,-3.8391,-3.8391,-3.8391,-3.8391,-3.8391,-3.8391,-3.8375,-3.8149,-3.7409,-3.7247,-3.6772,-3.5422,-3.5282,-3.5149,-3.4554,-3.4715,-3.4875,-3.4932,-3.4932,-3.4932,-3.4932,-3.4932,-3.523,-3.5926,-3.5992,-3.6655,-3.8053,-3.8136,-3.851,-3.9249,-3.9265,-3.9282,-3.9299,-3.9299,-3.9299,-3.9299,-3.9299,-3.9299,-2.4769,0.0,-2.3925,-2.2591,-2.1969,-2.155,-2.1029,-2.1368,-2.1707,-2.138,-2.1883,-2.2153,-2.139,-2.1949,-2.2273,-2.1461,-2.2369,-2.3073,-2.283,-2.3482,-2.3934,-2.3824,-2.4465,-2.4981,-2.5164,-2.6117,-2.6864,-2.7167,-2.719,-2.719,-2.719,-2.719,-2.719,-2.719,-2.719,-2.719,-2.719,-2.7696,-2.8767,-3.0304,-3.1334,-3.222,-3.3031,-3.3031,-3.3094,-3.329,-3.329,-3.3627,-3.4203,-3.4203,-3.4604,-3.5147,-3.4702,-3.4801,-3.5147,-3.4688,-3.5311,-3.6353,-3.6353,-3.678,-3.7332,-3.76,-3.7849,-3.8042,-3.8278,-3.8398,-3.8391,-3.8391,-3.8391,-3.8391,-3.8391,-3.8391,-3.8391,-3.8391,-3.8391,-3.8391,-3.8391,-3.8391,-3.8391,-3.8391,-3.8391,-3.8327,-3.8068,-3.7603,-3.6848,-3.5526,-3.4942,-3.4652,-3.4627,-3.4715,-3.4804,-3.4899,-3.4899,-3.4899,-3.4899,-3.4899,-3.5214,-3.5959,-3.6456,-3.7185,-3.8179,-3.8676,-3.905,-3.9299,-3.9299,-3.9299,-3.9299,-3.9299,-3.9299,-3.9299,-3.9299,-3.9299,-2.4397,-2.3903,-2.3351,-2.2005,-2.1432,-2.1132,-2.0791,-2.0962,-2.1185,-2.1108,-2.1666,-2.1971,-2.1229,-2.1954,-2.2449,-2.1829,-2.2655,-2.3282,-2.3091,-2.3714,-2.4116,-2.3861,-2.4317,-2.4797,-2.5164,-2.5635,-2.6198,-2.6898,-2.7128,-2.719,-2.719,-2.719,-2.719,-2.719,-2.719,-2.719,-2.719,-2.7778,-2.8741,-3.0181,-3.1446,-3.1963,-3.1738,-3.1738,-3.1822,-3.1991,-3.1991,-3.2483,-3.322,-3.322,-3.3747,-3.45,-3.407,-3.4155,-3.4486,-3.402,-3.4519,-3.5472,-3.592,-3.645,-3.7042,-3.7554,-3.7841,-3.803,-3.8305,-3.8391,-3.8391,-3.8391,-3.8391,-3.8391,-3.8391,-3.8391,-3.8391,-3.8391,-3.8391,-3.8391,-3.8391,-3.8391,-3.8391,-3.8391,-3.8391,-3.8391,-3.8391,-3.782,-3.7135,-3.6434,-3.5691,-3.521,-3.5095,-3.4904,-3.4903,-3.5263,-3.5048,-3.5015,-3.5263,-3.5297,-3.5727,-3.6721,-3.7235,-3.7831,-3.856,-3.905,-3.9299,-3.9299,-3.9299,-3.9299,-3.9299,-3.9299,-3.9299,-3.9299,-3.9299,-3.9299,-2.4718,-2.382,-2.2934,-2.2365,-2.1446,-2.0699,-2.0699,-2.0725,-2.0751,-2.0751,-2.1642,-2.1994,0.0,0.0,-2.2764,-2.2264,-2.2632,-2.3234,-2.4059,-2.42,-2.42,-2.42,-2.4152,-2.4531,-2.5543,-2.5161,-2.5287,-2.6352,-2.6864,-2.7133,-2.719,-2.7133,-2.7121,-2.7144,-2.7121,-2.711,-2.711,-2.7588,-2.8523,-2.9885,-3.0954,-3.1106,-3.0441,-3.0441,-3.0119,-2.9602,-2.9602,-3.0319,-3.1485,-3.1485,-3.2216,-3.329,-3.329,-3.329,-3.329,-3.3312,-3.3997,-3.5086,-3.6276,-3.6594,-3.6655,-3.7842,-3.7877,-3.7565,-3.8221,-3.8391,-3.8391,-3.8391,-3.8391,-3.8391,-3.8391,-3.8391,-3.8391,-3.8391,-3.8391,-3.8391,-3.8391,-3.8391,-3.8391,-3.8391,-3.8391,-3.8391,-3.8391,-3.7947,-3.7649,-3.7933,-3.7409,-3.6668,-3.5893,-3.5307,-3.5214,-3.5876,-3.5313,-3.5197,-3.5943,-3.6009,-3.6638,-3.8129,-3.8186,-3.8526,-3.9265,-3.9299,-3.9299,-3.9352,-3.9299,-3.9299,-3.9352,-3.9299,-3.9299,-3.9352,-3.9299,-3.9325,-2.2766,-2.2421,-2.2333,-2.1341,-2.0917,-2.0699,-2.0699,-2.1014,-2.1302,-2.1302,-2.1891,-2.2205,0.0,0.0,-2.295,-2.2241,-2.3102,0.0,-2.3765,-2.4007,0.0,-2.42,-2.3666,-2.362,-2.4482,-2.4251,-2.4373,-2.5253,-2.5796,-2.6427,-2.7144,-2.6479,-2.6267,-2.6685,-2.6301,-2.6067,-2.6067,-2.7605,-2.8689,-2.9248,-3.027,-3.0445,-2.9841,-2.9841,-2.9757,-2.9602,-2.9602,-3.0319,-3.1485,-3.1485,-3.2216,-3.329,-3.329,-3.329,-3.3347,-3.377,-3.4322,-3.5052,-3.6214,-3.6847,-3.7217,-3.7504,-3.7855,-3.8193,-3.8335,-3.8391,-3.8391,-3.8391,-3.8391,-3.8391,-3.8391,-3.8391,-3.8391,-3.8391,-3.8391,-3.8391,-3.8391,-3.8391,-3.8391,-3.8391,-3.8391,-3.8391,-3.8391,-3.8358,-3.8199,-3.7832,-3.7725,-3.7296,-3.6084,-3.5802,-3.5578,-3.5214,-3.5015,-3.5197,-3.5943,-3.6009,-3.6638,-3.8129,-3.8186,-3.8526,-3.9265,-3.9299,-3.9451,-3.9817,-3.9478,-3.9451,-3.9817,-3.9451,-3.9478,-3.9817,-3.9451,-3.9713,-2.2436,-2.2065,-2.1819,-2.1162,-2.0848,-2.0777,-2.1001,-2.1276,-2.159,-2.1838,-2.2199,0.0,-2.1868,-2.2632,-2.3114,-2.248,0.0,0.0,-2.3409,-2.353,-2.3556,0.0,-2.2756,0.0,-2.3884,-2.3614,-2.39,-2.5158,-2.5543,-2.5957,-2.6491,-2.6026,-2.5842,-2.6129,-2.5865,-2.596,-2.6563,-2.7729,-2.8607,-2.9263,-2.9853,-2.994,-2.9602,-2.9602,-2.9602,-2.9602,-2.9602,-3.0164,-3.1092,-3.1373,-3.2061,-3.2946,-3.3178,-3.329,-3.3347,-3.3632,-3.4394,-3.5387,-3.6026,-3.6965,-3.7844,-3.7844,-3.8091,-3.8391,-3.8391,-3.8391,-3.8391,-3.8391,-3.8391,-3.8391,-3.8391,-3.8391,-3.8391,-3.8391,-3.8391,-3.8391,-3.8391,-3.8391,-3.8391,-3.8391,-3.8391,-3.8448,-3.856,-3.8628,-3.8619,-3.8426,-3.85,-3.8183,-3.7093,-3.6688,-3.6456,-3.6357,-3.6059,-3.6158,-3.6903,-3.697,-3.7466,-3.8609,-3.8676,-3.8858,-3.9282,-3.9299,-3.953,-3.9978,-3.9731,-3.9859,-4.0351,-4.0087,-4.0095,-4.0351,-4.0087,-4.0262,-2.2658,-2.2059,-2.1302,-2.1302,-2.105,-2.0923,-2.1394,-2.1629,-2.1851,-2.232,0.0,-2.2439,-2.1911,-2.269,-2.3258,-2.2775,0.0,-2.3934,-2.3113,-2.3001,-2.2692,-2.1918,-2.168,-2.214,-2.3471,-2.3155,-2.3566,-2.5364,-2.5509,-2.5566,-2.5704,-2.5578,-2.5509,-2.5559,-2.5547,-2.6232,-2.7617,-2.7743,-2.8425,-2.9602,-2.9602,-2.9602,-2.9602,-2.9602,-2.9602,-2.9602,-2.9602,-2.9954,-3.054,-3.1218,-3.185,-3.2469,-3.3073,-3.329,-3.3326,-3.3417,-3.4447,-3.5806,-3.5901,-3.701,-3.8391,-3.8391,-3.8391,-3.8391,-3.8391,-3.8391,-3.8391,-3.8391,-3.8391,-3.8391,-3.8391,-3.8391,-3.8391,-3.8391,-3.8391,-3.8391,-3.8391,-3.8391,-3.8391,-3.8391,-3.8391,-3.8476,-3.8722,-3.8805,-3.8914,-3.9202,-3.9272,-3.9083,-3.8427,-3.7715,-3.7466,-3.8013,-3.7483,-3.7417,-3.8146,-3.8186,-3.8536,-3.9339,-3.9388,-3.9415,-3.9494,-3.9494,-3.9722,-4.0203,-4.0153,-4.0375,-4.0896,-4.0825,-4.0825,-4.0896,-4.0825,-4.0873,-2.1336,-2.0964,-2.0823,-2.0823,-2.1091,-2.1394,-2.1485,-2.2243,0.0,0.0,-2.2903,-2.297,-2.2054,-2.2706,-2.3258,-2.2775,-2.3534,-2.3934,-2.3113,-2.3001,-2.2692,0.0,-2.1145,-2.1377,-2.2961,-2.2461,-2.2708,-2.4331,-2.4453,-2.482,-2.567,-2.4912,-2.4538,-2.4684,-2.4721,-2.5528,-2.7266,-2.732,-2.8092,-2.9602,-2.9602,-2.9602,-2.9602,-2.9602,-2.9602,-2.9602,-2.9602,0.0,-3.054,-3.1218,-3.185,-3.2469,-3.3073,-3.329,-3.3347,-3.3971,-3.4894,-3.5901,-3.6492,-3.7445,-3.8391,-3.8391,-3.8391,-3.8391,-3.8391,-3.8391,-3.8391,-3.8391,-3.8391,-3.8391,-3.8391,-3.8391,-3.8391,-3.8391,-3.8391,-3.8391,-3.8391,-3.8391,-3.8391,-3.8391,-3.8391,-3.8448,-3.8616,-3.8738,-3.886,-3.904,-3.9175,-3.9249,-3.9133,-3.846,-3.7831,-3.735,-3.7185,-3.7417,-3.8146,-3.8186,-3.8676,-3.9808,-3.9893,-4.0095,-4.0514,-4.0538,-4.0761,-4.123,-4.0855,-4.0902,-4.1383,-4.099,-4.1013,-4.1361,-4.099,-4.1243,-2.1274,-2.1341,-2.1577,-2.159,-2.1773,-2.198,-2.1995,0.0,0.0,0.0,-2.2595,-2.2476,-2.2002,-2.2306,-2.2486,-2.2138,-2.3024,-2.3301,-2.1886,-2.2456,-2.2381,-2.0682,-2.0498,-2.0808,-2.1614,-2.1766,-2.2295,-2.3482,-2.397,-2.4407,-2.49,-2.4464,-2.4309,-2.449,-2.461,-2.5276,-2.6616,-2.7124,-2.792,-2.9044,-2.9432,-2.9602,-2.9602,-2.9602,-2.9602,-2.9602,-2.9602,-2.9771,-3.0122,-3.1092,-3.1668,-3.2019,-3.296,-3.329,-3.3361,-3.3799,-3.4762,-3.5869,-3.6322,-3.731,-3.8391,-3.8391,-3.8391,-3.8391,-3.8391,-3.8391,-3.8391,-3.8391,-3.8391,-3.8391,-3.8391,-3.8391,-3.8391,-3.8391,-3.8391,-3.8391,-3.8391,-3.8391,-3.8391,-3.8391,-3.8391,-3.8448,-3.8655,-3.8766,-3.8887,-3.9121,-3.9245,-3.9299,-3.9299,-3.9204,-3.9017,-3.8648,-3.8614,-3.8849,-3.9495,-3.9537,-3.9814,-4.0383,-4.0424,-4.0521,-4.0778,-4.0802,-4.1036,-4.1494,-4.1271,-4.1423,-4.1917,-4.1683,-4.1705,-4.1899,-4.1683,-4.1852,-2.1391,-2.1794,-2.2185,-2.2102,-2.2232,-2.2411,-2.2353,-2.2443,0.0,0.0,-2.2156,-2.1889,-2.1765,0.0,-2.1855,0.0,-2.268,-2.2806,-2.1008,-2.1918,-2.188,-1.9569,-1.9844,0.0,-2.0459,-2.1298,-2.2145,-2.2927,-2.3751,-2.42,-2.42,-2.4236,-2.4345,-2.4574,-2.4754,-2.53,-2.6161,-2.7035,-2.7835,-2.8524,-2.9261,-2.9602,-2.9602,-2.9602,-2.9602,-2.9602,-2.9602,-2.9602,-2.9701,-3.0965,-3.1485,-3.1612,-3.2848,-3.329,-3.3361,-3.373,-3.4681,-3.5869,-3.6245,-3.728,-3.8391,-3.8391,-3.8391,-3.8391,-3.8391,-3.8391,-3.8391,-3.8391,-3.8391,-3.8391,-3.8391,-3.8391,-3.8391,-3.8391,-3.8391,-3.8391,-3.8391,-3.8391,-3.8391,-3.8391,-3.8391,-3.8476,-3.875,-3.8805,-3.8914,-3.9245,-3.9299,-3.9299,-3.9299,-3.9705,-4.0053,-4.0153,-4.0178,-4.0351,-4.0754,-4.0802,-4.0849,-4.0926,-4.0966,-4.1013,-4.1128,-4.1128,-4.1288,-4.1666,-4.1666,-4.1878,-4.2308,-4.2308,-4.2308,-4.2308,-4.2308,-4.2308,-2.1004,-2.1322,-2.1569,-2.1135,-2.1775,-2.2378,-2.1976,0.0,0.0,-2.2051,-2.1939,-2.1765,-2.1348,0.0,0.0,0.0,0.0,-2.2986,-2.1845,-2.1794,-2.126,-1.9499,0.0,0.0,-2.0421,-2.1298,-2.2145,-2.2927,-2.3751,-2.42,-2.42,-2.4381,-2.4574,-2.4754,-2.4957,-2.5488,-2.6346,-2.7116,-2.7835,-2.8524,-2.9261,-2.9602,-2.9602,-2.9602,-2.9602,-2.9602,-2.9602,-2.9602,0.0,-3.0965,-3.1485,-3.1612,-3.2848,-3.329,-3.3417,-3.4423,-3.5225,-3.5932,-3.6951,-3.7786,-3.8391,-3.8391,-3.8391,-3.8391,-3.8391,-3.8391,-3.8391,-3.8391,-3.8391,-3.8391,-3.8391,-3.8391,-3.8391,-3.8391,-3.8391,-3.8391,-3.8391,-3.8391,-3.8391,-3.8391,-3.8391,-3.8476,-3.875,-3.8805,-3.8914,-3.9245,-3.9299,-3.9299,-3.9299,-3.9705,-4.0178,-4.0666,-4.0731,-4.0754,-4.0802,-4.0802,-4.099,-4.1405,-4.1445,-4.1644,-4.2145,-4.2166,-4.2166,-4.2246,-4.2246,-4.2267,-4.2308,-4.2308,-4.2308,-4.2308,-4.2308,-4.2308,-2.1979,-2.2112,-2.2159,-2.1982,-2.2243,-2.2446,-2.1977,0.0,-2.2063,-2.1588,-2.1494,-2.1431,-2.1221,-2.1362,0.0,0.0,0.0,0.0,-2.112,-2.1451,-2.1183,-1.949,-1.9726,-1.9962,-1.9805,-2.0991,-2.2333,-2.3641,-2.4007,-2.4261,-2.4381,-2.4454,-2.4634,-2.4957,-2.5453,-2.5931,-2.638,-2.7524,-2.8247,-2.8524,-2.9261,-2.9602,-2.9602,-2.9602,-2.9602,-2.9602,-2.9602,-2.9602,0.0,-3.0544,-3.1134,-3.1569,-3.244,-3.3072,-3.3591,-3.4558,-3.5355,-3.612,-3.7087,-3.7844,-3.8391,-3.8391,-3.8391,-3.8391,-3.8391,-3.8391,-3.8391,-3.8391,-3.8391,-3.8391,-3.8391,-3.8391,-3.8391,-3.8391,-3.8391,-3.8391,-3.8391,-3.8391,-3.8391,-3.8391,-3.8391,-3.8448,-3.8655,-3.8766,-3.886,-3.9094,-3.9202,-3.9299,-3.9299,-3.9705,-4.0078,-4.0302,-4.0855,-4.1356,-4.1683,-4.1705,-4.177,-4.198,-4.198,-4.2082,-4.2287,-4.2308,-4.2308,-4.2308,-4.2308,-4.2308,-4.2308,-4.2308,-4.2308,-4.2308,-4.2308,-4.2308,-2.2517,-2.2724,-2.2766,-2.2452,-2.2509,-2.249,0.0,-2.1777,-2.162,-2.1285,-2.119,-2.119,-2.119,-2.119,-2.1284,0.0,0.0,0.0,-2.0739,-2.1102,-2.0875,-1.946,-1.9805,-2.004,-1.9687,-2.1183,-2.2708,-2.4091,-2.4273,-2.4381,-2.4574,-2.4634,-2.4802,-2.5087,-2.5581,-2.6035,-2.638,-2.7591,-2.8298,-2.8524,-2.9261,-2.9602,-2.9602,-2.9602,-2.9602,-2.9602,-2.9602,-2.9602,0.0,-3.0231,-3.0909,-3.1589,-3.2241,-3.295,-3.3695,-3.4624,-3.5452,-3.6229,-3.7087,-3.7844,-3.8391,-3.8391,-3.8391,-3.8391,-3.8391,-3.8391,-3.8391,-3.8391,-3.8391,-3.8391,-3.8391,-3.8391,-3.8391,-3.8391,-3.8391,-3.8391,-3.8391,-3.8391,-3.8391,-3.8391,-3.8391,-3.842,-3.856,-3.8711,-3.886,-3.8969,-3.9175,-3.9299,-3.9299,-3.9705,-4.0003,-4.0003,-4.0767,-4.1445,-4.1813,-4.1852,-4.1852,-4.1852,-4.198,-4.2065,-4.2065,-4.2225,-4.2308,-4.2308,-4.2308,-4.2308,-4.2308,-4.2308,-4.2308,-4.2308,-4.2308,-4.2433,-2.2255,-2.2803,-2.315,-2.2174,-2.2309,-2.2568,-2.2014,-2.1525,-2.1221,-2.119,-2.119,-2.119,-2.119,-2.119,-2.1362,0.0,0.0,0.0,-2.1031,-2.0721,-2.0196,-1.942,-1.9301,-1.9608,-2.0421,-2.2004,-2.3335,-2.4152,-2.4381,-2.4562,-2.4801,-2.4992,-2.5123,-2.5123,-2.5253,-2.5652,-2.638,-2.7149,-2.7835,-2.8524,-2.9261,-2.9602,-2.9602,-2.9602,-2.9602,-2.9602,-2.9602,-2.9602,0.0,-3.0231,-3.0909,-3.1589,-3.2376,-3.3067,-3.373,-3.4743,-3.5501,-3.6229,-3.7087,-3.7844,-3.8391,-3.8391,-3.8391,-3.8391,-3.8391,-3.8391,-3.8391,-3.8391,-3.8391,-3.8391,-3.8391,-3.8391,-3.8391,-3.8391,-3.8391,-3.8391,-3.8391,-3.8391,-3.8391,-3.8391,-3.8391,-3.842,-3.856,-3.8711,-3.886,-3.8969,-3.9175,-3.9299,-3.9299,-3.9705,-4.0003,-4.0003,-4.0473,-4.0802,-4.0825,-4.0825,-4.0825,-4.0825,-4.1248,-4.1494,-4.1494,-4.2023,-4.2308,-4.2308,-4.2308,-4.2308,-4.2308,-4.2308,-4.2308,-4.2308,-4.2308,-4.2733,-2.3006,-2.3197,-2.3176,-2.2493,-2.243,-2.2401,-2.1693,-2.1452,-2.1305,-2.1221,-2.1477,-2.1583,-2.1259,-2.1078,-2.113,-2.1562,0.0,0.0,0.0,0.0,-1.9904,-1.9378,-1.9805,-2.0459,-2.1298,-2.2381,-2.3372,-2.4345,-2.4454,-2.4634,-2.4992,-2.5087,-2.5147,-2.5241,-2.6264,-2.6913,-2.7149,-2.8338,-2.904,-2.9261,-2.9509,-2.9602,-2.9602,-2.9602,-2.9602,-2.9602,-2.9602,-2.9602,-2.9617,-2.9827,-3.0263,-3.0853,-3.1245,-3.2099,-3.3245,-3.4147,-3.5267,-3.6399,-3.7163,-3.7844,-3.8391,-3.8391,-3.8391,-3.8391,-3.8391,-3.8391,-3.8391,-3.8391,-3.8391,-3.8391,-3.8391,-3.8391,-3.8391,-3.8391,-3.8391,-3.8391,-3.8391,-3.8391,-3.8391,-3.8391,-3.8391,-3.842,-3.856,-3.8711,-3.886,-3.8969,-3.9175,-3.9299,-3.9299,-3.9441,-3.953,-3.953,-3.967,-4.0062,-4.0731,-4.0802,-4.0943,-4.1248,-4.1405,-4.1666,-4.2023,-4.2207,-4.2308,-4.2308,-4.2308,-4.2308,-4.2308,-4.2308,-4.2308,-4.2305,-4.2858,-4.3536,0.0,-2.3832,-2.3742,-2.3201,-2.3072,-2.2897,-2.2227,-2.1894,-2.167,-2.1574,-2.1742,-2.186,-2.1788,-2.1675,-2.1677,-2.1897,0.0,0.0,0.0,0.0,-2.0774,-2.0535,-2.1241,-2.1865,-2.2203,-2.3065,-2.3824,-2.4454,-2.4634,-2.4838,-2.5087,-2.5147,-2.5218,-2.5312,-2.6195,-2.6934,-2.7471,-2.8371,-2.9071,-2.9602,-2.9602,-2.9602,-2.9602,-2.9602,-2.9602,-2.9602,-2.9602,-2.9602,0.0,-2.9602,-2.9999,-3.0626,-3.0818,-3.1636,-3.2748,-3.3618,-3.4825,-3.6137,-3.6782,-3.7623,-3.8391,-3.8391,-3.8391,-3.8391,-3.8391,-3.8391,-3.8391,-3.8391,-3.8391,-3.8391,-3.8391,-3.8391,-3.8391,-3.8391,-3.8391,-3.8391,-3.8391,-3.8391,-3.8391,-3.8391,-3.842,-3.8504,-3.8604,-3.8766,-3.8914,-3.8996,-3.9175,-3.9299,-3.9299,-3.9299,-3.9299,-3.9299,-3.9451,-3.9808,-4.0424,-4.0497,-4.0713,-4.1202,-4.1405,-4.1644,-4.198,-4.2187,-4.2308,-4.2308,-4.2308,-4.2308,-4.2308,-4.2308,-4.2448,-4.2751,-4.3268,-4.405,0.0,-2.459,-2.4696,-2.4178,-2.4048,-2.3872,-2.3366,-2.2751,0.0,-2.2259,-2.2139,-2.2168,-2.2638,-2.2674,-2.2697,-2.2662,-2.2353,0.0,0.0,-2.267,-2.2519,-2.2582,-2.326,-2.3552,-2.3126,-2.3956,-2.4538,-2.4526,-2.4873,-2.5123,-2.5111,-2.5241,-2.5312,-2.5312,-2.5347,-2.6057,-2.7484,-2.7537,-2.8241,-2.9602,-2.9602,-2.9602,-2.9602,-2.9602,-2.9602,-2.9602,-2.9602,-2.9602,-2.9602,-2.9602,-3.0034,-3.0747,-3.0968,-3.1495,-3.2224,-3.31,-3.4271,-3.5506,-3.6184,-3.7296,-3.8391,-3.8391,-3.8391,-3.8391,-3.8391,-3.8391,-3.8391,-3.8391,-3.8391,-3.8391,-3.8391,-3.8391,-3.8391,-3.8391,-3.8391,-3.8391,-3.8391,-3.8391,-3.8391,-3.8391,-3.8504,-3.8604,-3.8632,-3.8849,-3.8996,-3.9023,-3.9175,-3.9299,-3.9299,-3.9299,-3.9325,-3.9352,-3.9731,-4.0028,-4.0103,-4.0078,-4.0277,-4.0825,-4.1248,-4.1534,-4.1556,-4.2023,-4.2308,-4.2308,-4.2308,-4.2308,-4.2308,-4.2361,-4.2769,-4.3497,-4.3604,-4.4428,-2.5049,0.0,-2.5051,-2.4525,-2.4381,-2.4215,0.0,-2.3321,-2.3105,-2.2849,0.0,-2.3155,-2.2765,-2.2556,-2.2451,-2.2333,-2.1822,-2.1581,-2.2006,-2.2314,-2.2787,-2.3473,-2.3774,-2.3874,-2.3764,-2.4333,-2.4778,-2.4945,-2.5052,-2.5147,-2.5241,-2.5276,-2.5312,-2.5312,-2.5861,-2.6573,-2.7484,-2.8019,-2.8712,-2.9602,-2.9602,-2.9602,-2.9602,-2.9602,-2.9602,-2.9602,-2.9602,-2.9602,-2.9602,-2.9699,-2.9845,-3.008,-3.0358,-3.0929,-3.1608,-3.2434,-3.3883,-3.5506,-3.6184,-3.7296,-3.8391,-3.8391,-3.8391,-3.8391,-3.8391,-3.8391,-3.8391,-3.8391,-3.8391,-3.8391,-3.8391,-3.8391,-3.8391,-3.8391,-3.8391,-3.8391,-3.8391,-3.8391,-3.842,-3.8532,-3.856,-3.8672,-3.8876,-3.8942,-3.905,-3.9202,-3.9272,-3.9299,-3.9299,-3.9299,-3.9441,-3.9808,-3.9927,-4.0309,-4.1071,-4.0808,-4.0808,-4.1293,-4.1428,-4.1687,-4.2103,-4.2228,-4.2308,-4.2308,-4.2308,-4.2308,-4.2308,-4.2912,-4.3322,-4.3515,-4.4714,-4.5463,-2.4862,-2.5016,-2.524,-2.4951,-2.4879,-2.4712,-2.4082,0.0,0.0,0.0,0.0,0.0,0.0,-2.326,-2.2925,-2.2852,-2.256,-2.2652,-2.3715,-2.3949,-2.4328,-2.5268,-2.5307,-2.5213,-2.5089,-2.5203,-2.5312,-2.5409,-2.5278,-2.5206,-2.5312,-2.5312,-2.5312,-2.5312,-2.6035,-2.6744,-2.7484,-2.8149,-2.8871,-2.9602,-2.9602,-2.9602,-2.9602,-2.9602,-2.9602,-2.9602,-2.9602,-2.9634,-2.9713,-2.9777,-2.9901,-3.0068,-3.0221,-3.0746,-3.1519,-3.2566,-3.3982,-3.5536,-3.6535,-3.7549,-3.8391,-3.8391,-3.8391,-3.8391,-3.8391,-3.8391,-3.8391,-3.8391,-3.8391,-3.8391,-3.8391,-3.8391,-3.8391,-3.8391,-3.8391,-3.8391,-3.8391,-3.8391,-3.842,-3.856,-3.8644,-3.8766,-3.8969,-3.9094,-3.9175,-3.9272,-3.9299,-3.9299,-3.9299,-3.9299,-3.9478,-3.9952,-4.0228,-4.0672,-4.1428,-4.149,-4.1596,-4.1856,-4.1856,-4.2002,-4.2287,-4.2308,-4.2308,-4.2308,-4.2308,-4.2308,-4.2308,-4.3108,-4.3658,-4.4014,-4.5249,-4.5998,-2.4156,-2.442,-2.4933,-2.4933,-2.4933,-2.4826,-2.4388,0.0,0.0,0.0,0.0,0.0,0.0,-2.4221,0.0,-2.3742,-2.3883,-2.4591,-2.6206,-2.6188,-2.63,-2.7116,-2.7022,-2.6761,-2.6497,-2.6107,-2.5873,-2.5873,-2.5517,-2.5312,-2.5312,-2.5312,-2.5312,-2.5312,-2.6035,-2.6744,-2.7484,-2.8149,-2.8871,-2.9602,-2.9602,-2.9602,-2.9602,-2.9602,-2.9602,-2.9602,-2.9634,0.0,-2.9808,-2.987,-3.0038,-3.0282,-3.0312,-3.0838,-3.166,-3.3001,-3.4304,-3.5626,-3.703,-3.7931,-3.8391,-3.8391,-3.8391,-3.8391,-3.8391,-3.8391,-3.8391,-3.8391,-3.8391,-3.8391,-3.8391,-3.8391,-3.8391,-3.8391,-3.8391,-3.8391,-3.8391,-3.8391,-3.8464,-3.8588,-3.8711,-3.886,-3.9023,-3.9175,-3.9299,-3.9299,-3.9299,-3.9299,-3.9299,-3.9299,-3.9478,-3.9952,-4.0473,-4.099,-4.145,-4.2002,-4.2308,-4.2308,-4.2308,-4.2308,-4.2308,-4.2308,-4.2308,-4.2308,-4.2308,-4.2308,-4.2308,-4.3233,-4.3979,-4.4621,-4.5552,-4.6355,-2.3353,-2.3254,-2.3353,-2.3353,-2.3353,-2.3342,-2.3264,0.0,0.0,0.0,0.0,0.0,0.0,-2.4618,-2.5066,-2.4408,-2.5176,-2.6156,-2.687,-2.6925,-2.7119,-2.7716,-2.7482,-2.7293,-2.7248,-2.6533,-2.6069,-2.6069,-2.5577,-2.5312,-2.5312,-2.5312,-2.5312,-2.5312,-2.6035,-2.6744,-2.7484,-2.8149,-2.8871,-2.9602,-2.9602,-2.9602,-2.9602,-2.9602,-2.9602,-2.9602,0.0,-2.9777,-2.9808,-3.0099,-3.0251,-3.0312,-3.0477,-3.0929,-3.166,-3.3001,-3.4304,-3.5686,-3.7588,-3.8307,-3.8391,-3.8391,-3.8391,-3.8391,-3.8391,-3.8391,-3.8391,-3.8391,-3.8391,-3.8391,-3.8391,-3.8391,-3.8391,-3.8391,-3.8391,-3.8391,-3.8391,-3.8391,-3.8476,-3.8722,-3.8777,-3.8887,-3.9218,-3.9272,-3.9299,-3.9299,-3.9299,-3.9299,-3.9299,-3.9299,-3.9478,-3.9952,-4.0473,-4.099,-4.145,-4.2002,-4.2308,-4.2308,-4.2308,-4.2308,-4.2308,-4.2308,-4.2308,-4.2308,-4.2308,-4.2308,-4.2308,-4.3732,-4.4478,-4.4638,-4.6123,-4.6873,-2.2686,-2.236,-2.2247,-2.1794,-2.236,-2.2995,-2.2995,0.0,0.0,0.0,0.0,0.0,0.0,0.0,-2.4691,-2.5051,-2.53,-2.5944,-2.7242,-2.7056,-2.7151,-2.8127,-2.7977,-2.7862,-2.798,-2.7351,-2.6851,-2.6562,-2.6045,-2.5612,-2.5324,-2.5312,-2.5312,-2.5312,-2.6402,-2.7149,-2.7517,-2.8565,-2.9261,-2.9602,-2.9602,-2.9602,-2.9602,-2.9602,-2.9634,-2.9699,0.0,-2.9901,-3.0068,-3.0251,-3.0357,-3.0506,-3.0915,-3.1714,-3.2851,-3.485,-3.6216,-3.715,-3.8092,-3.8391,-3.8391,-3.8391,-3.8391,-3.8391,-3.8391,-3.8391,-3.8391,-3.8391,-3.8391,-3.8391,-3.8391,-3.8391,-3.8391,-3.8391,-3.8391,-3.8391,-3.8391,-3.8448,-3.856,-3.875,-3.886,-3.8996,-3.9245,-3.9299,-3.9299,-3.9299,-3.9299,-3.9299,-3.9299,-3.9299,-3.9478,-3.9952,-4.0228,-4.0689,-4.1428,-4.1727,-4.2002,-4.2287,-4.2308,-4.2308,-4.2308,-4.2308,-4.2308,-4.2308,-4.2308,-4.2501,-4.2947,-4.405,-4.4817,-4.5285,-4.6444,-4.6998,-2.1907,-2.1499,-2.1357,-2.075,0.0,-2.2456,-2.2574,0.0,0.0,0.0,0.0,0.0,0.0,-2.4084,-2.4769,-2.6128,-2.5967,-2.6176,-2.7702,-2.7375,-2.7366,-2.8379,-2.8339,-2.8339,-2.8471,-2.8029,-2.7462,-2.6934,-2.6418,-2.5865,-2.5336,-2.5312,-2.5312,-2.5312,-2.6573,-2.7317,-2.7517,-2.8739,-2.9432,-2.9602,-2.9602,-2.9602,-2.9602,-2.9634,-2.9713,-2.9808,-2.987,-3.0068,-3.0282,-3.0357,-3.0447,-3.067,-3.1264,-3.2504,-3.4228,-3.6559,-3.7815,-3.8391,-3.8391,-3.8391,-3.8391,-3.8391,-3.8391,-3.8391,-3.8391,-3.8391,-3.8391,-3.8391,-3.8391,-3.8391,-3.8391,-3.8391,-3.8391,-3.8391,-3.842,-3.8464,-3.8464,-3.856,-3.8699,-3.8805,-3.8942,-3.905,-3.9272,-3.9299,-3.9299,-3.9299,-3.9299,-3.9299,-3.9299,-3.9299,-3.9441,-3.9791,-4.0096,-4.0631,-4.1527,-4.1708,-4.1816,-4.1956,-4.2166,-4.2246,-4.2124,-4.2228,-4.2397,-4.2573,-4.2573,-4.2965,-4.3747,-4.4496,-4.5213,-4.582,-4.6623,-4.6998,-2.0905,-2.0683,-2.0673,-2.0605,-2.0683,0.0,-2.1243,-2.1341,0.0,-2.2856,0.0,0.0,0.0,-2.5391,-2.6751,-2.8056,-2.8255,-2.8279,-2.841,-2.8395,-2.8379,-2.8471,-2.8471,-2.8471,-2.851,-2.8029,-2.7462,-2.6934,-2.6418,-2.5865,-2.5336,-2.5312,-2.5312,-2.5312,-2.607,-2.6812,-2.7484,-2.8214,-2.8903,-2.9602,-2.9602,-2.9602,-2.9602,-2.973,-2.9777,-2.9808,-3.0129,-3.0282,-3.0312,-3.0507,-3.0598,-3.067,-3.1264,-3.3032,-3.5459,-3.688,-3.7815,-3.8391,-3.8391,-3.8391,-3.8391,-3.8391,-3.8391,-3.8391,-3.8391,-3.8391,-3.8391,-3.8391,-3.8391,-3.8391,-3.8391,-3.8391,-3.8391,-3.8391,-3.8492,-3.8604,-3.8604,-3.8683,-3.8832,-3.8969,-3.8996,-3.905,-3.9272,-3.9299,-3.9299,-3.9299,-3.9299,-3.9299,-3.9299,-3.9299,-3.9325,-3.9352,-4.0352,-4.1257,-4.1805,-4.2329,-4.213,-4.0977,-4.177,-4.2082,-4.1578,-4.2023,-4.2644,-4.3411,-4.3408,-4.3786,-4.4514,-4.532,-4.5749,-4.582,-4.6623,-4.6998,-2.0867,-2.0771,-2.0918,-2.0674,-2.1016,0.0,0.0,-2.119,-2.1438,-2.2197,-2.2369,0.0,0.0,0.0,-2.6608,-2.8223,-2.851,-2.851,-2.851,-2.851,-2.851,-2.851,-2.851,-2.851,-2.851,-2.833,-2.7861,-2.6958,-2.6693,-2.6238,-2.536,-2.5721,-2.5965,-2.5965,-2.709,-2.7841,-2.8117,-2.8821,-2.9324,-2.9602,-2.9682,-2.973,-2.973,-2.9898,-3.0021,-3.0129,-3.0251,-3.0387,-3.0477,-3.0568,-3.0598,-3.0789,-3.2632,-3.4455,-3.6183,-3.7512,-3.8177,-3.8391,-3.8391,-3.8391,-3.8391,-3.8391,-3.8391,-3.8391,-3.8391,-3.8391,-3.8391,-3.8391,-3.8391,-3.8391,-3.8391,-3.8391,-3.842,-3.8504,-3.856,-3.8616,-3.8711,-3.8832,-3.8942,-3.8996,-3.9094,-3.9202,-3.9299,-3.9299,-3.9299,-3.9299,-3.9299,-3.9299,-3.9299,-3.9299,-3.9481,-3.9945,-4.1054,-4.1856,-4.2065,-4.258,-4.2351,-4.1077,-4.1487,-4.1709,-4.1494,-4.2023,-4.268,-4.3479,-4.3497,-4.4103,-4.5356,-4.5659,-4.607,-4.6551,-4.6855,-4.6998,-2.1153,-2.1036,-2.1151,0.0,0.0,0.0,-2.16,-2.16,-2.1758,-2.2197,-2.2727,-2.3588,-2.512,0.0,-2.704,-2.8299,-2.851,-2.851,-2.851,-2.851,-2.851,-2.851,-2.851,-2.851,-2.851,-2.851,-2.8077,-2.697,-2.6898,-2.6417,-2.5372,-2.6,-2.638,-2.638,-2.7789,-2.8492,-2.8492,-2.923,-2.9602,-2.9602,-2.9806,-2.9853,-2.9822,-3.0005,-3.0158,-3.0282,-3.0387,-3.0477,-3.0598,-3.0598,-3.0845,-3.1387,-3.3411,-3.4957,-3.6228,-3.7594,-3.8091,-3.8119,-3.8335,-3.8391,-3.8391,-3.8391,-3.8391,-3.8391,-3.8391,-3.8391,-3.8391,-3.8391,-3.8391,-3.8391,-3.8391,-3.842,-3.8492,-3.856,-3.8672,-3.8738,-3.8832,-3.8969,-3.9077,-3.9077,-3.9218,-3.9299,-3.9299,-3.9299,-3.9299,-3.9299,-3.9299,-3.9299,-3.9299,-3.9497,-4.0011,-4.0961,-4.1768,-4.2146,-4.1957,-4.2252,-4.1869,-4.0615,-4.0989,-4.1271,-4.1271,-4.2186,-4.3054,-4.3818,-4.4107,-4.4874,-4.6177,-4.6177,-4.6462,-4.6998,-4.6998,-4.6998,-2.172,-2.1381,-2.1338,0.0,0.0,0.0,-2.2324,-2.251,-2.2637,-2.3013,-2.4573,-2.5777,-2.5819,-2.7284,-2.8471,-2.851,-2.851,-2.851,-2.851,-2.851,-2.851,-2.851,-2.851,-2.851,-2.851,-2.851,-2.8077,-2.697,-2.6898,-2.6417,-2.5372,-2.6013,-2.6414,-2.6427,-2.7789,-2.8524,-2.8524,-2.923,-2.9602,-2.9602,-2.9927,-3.0005,-2.9808,-3.0005,-3.0158,-3.0312,-3.0507,-3.0598,-3.0598,-3.0598,-3.1337,-3.2576,-3.3239,-3.4279,-3.5561,-3.6906,-3.7417,-3.7506,-3.8177,-3.8391,-3.8391,-3.8391,-3.8391,-3.8391,-3.8391,-3.8391,-3.8391,-3.8391,-3.8391,-3.8391,-3.8391,-3.8504,-3.8588,-3.8588,-3.8794,-3.8996,-3.8996,-3.9148,-3.9299,-3.9299,-3.9299,-3.9299,-3.9299,-3.9299,-3.9299,-3.9299,-3.9299,-3.9299,-3.9299,-3.9945,-4.0928,-4.2324,-4.2383,-4.2038,-4.1437,-4.1285,-4.065,-3.9402,-4.0262,-4.0802,-4.0802,-4.2525,-4.3836,-4.4585,-4.5392,-4.6177,-4.698,-4.698,-4.6962,-4.6962,-4.6962,-4.698,-2.3129,-2.2924,0.0,-2.2528,0.0,0.0,0.0,-2.251,0.0,0.0,-2.4988,-2.5997,-2.667,-2.7214,-2.7805,-2.8391,-2.851,-2.851,-2.851,-2.851,-2.851,-2.851,-2.851,-2.851,-2.851,-2.851,-2.8077,-2.697,-2.6898,-2.6585,-2.5901,-2.6719,-2.7364,-2.773,-2.875,-2.9261,-2.9261,-2.9509,-2.9665,-2.973,-2.9822,-2.9929,-3.0005,-3.031,-3.0462,-3.0507,-3.0568,-3.0598,-3.0598,-3.0598,-3.1337,-3.2576,-3.3239,-3.4279,-3.5561,-3.6906,-3.7417,-3.7506,-3.8177,-3.8391,-3.8391,-3.8391,-3.8391,-3.8391,-3.8391,-3.8391,-3.8391,-3.8391,-3.8391,-3.842,-3.852,-3.8628,-3.8738,-3.8738,-3.886,-3.9023,-3.9175,-3.9272,-3.9299,-3.9299,-3.9299,-3.9299,-3.9299,-3.9299,-3.9299,-3.9299,-3.9299,-3.9299,-3.9299,-3.9945,-4.0575,-4.0978,-4.1411,-4.1588,-4.1409,-4.1361,-4.1103,-4.0606,-4.1195,-4.1347,-4.0819,-4.1978,-4.3268,-4.4567,-4.4817,-4.5356,-4.6159,-4.6159,-4.5873,-4.5338,-4.5891,-4.6159,-2.3924,-2.4028,0.0,-2.3348,-2.3679,-2.4057,-2.3646,0.0,0.0,0.0,-2.5495,-2.6547,-2.7103,-2.747,-2.7886,-2.8431,-2.851,-2.851,-2.851,-2.851,-2.851,-2.851,-2.851,-2.851,-2.851,-2.851,-2.8162,-2.727,-2.721,-2.697,-2.6454,-2.7548,-2.8216,-2.8299,-2.9383,-2.9855,-2.9602,-2.9602,-2.9651,-2.9808,-2.9884,-2.9991,-3.0189,-3.0387,-3.0507,-3.0598,-3.0598,-3.0598,-3.0598,-3.0598,-3.1177,-3.2152,-3.2545,-3.3499,-3.48,-3.6121,-3.6762,-3.7147,-3.8091,-3.8391,-3.8391,-3.8391,-3.8391,-3.8391,-3.8391,-3.8391,-3.8391,-3.8391,-3.842,-3.8504,-3.856,-3.8738,-3.8887,-3.8887,-3.8996,-3.9148,-3.9272,-3.9299,-3.9299,-3.9299,-3.9299,-3.9299,-3.9299,-3.9299,-3.9299,-3.9299,-3.9299,-3.9415,-3.9696,-4.0144,-4.0509,-4.0763,-4.0912,-4.0994,-4.0994,-4.0729,-4.0594,-4.0662,-4.1175,-4.1356,-4.11,-4.2175,-4.3358,-4.4567,-4.4603,-4.4835,-4.532,-4.5641,-4.5392,-4.4621,-4.5427,-4.5802,-2.463,-2.502,0.0,-2.4564,-2.4795,0.0,-2.5429,-2.5145,-2.4816,-2.4774,0.0,-2.7348,-2.7348,-2.7966,-2.851,-2.851,-2.851,-2.851,-2.851,-2.851,-2.851,-2.851,-2.851,-2.851,-2.851,-2.851,-2.8294,-2.7726,-2.7678,-2.7474,-2.6994,-2.8339,-2.8877,-2.839,-2.9701,-3.0125,-2.9617,-2.9602,-2.9682,-2.9822,-3.0005,-3.0158,-3.0312,-3.0312,-3.0447,-3.0598,-3.0598,-3.0598,-3.0598,-3.0598,-3.0945,-3.1495,-3.1495,-3.2324,-3.3652,-3.4926,-3.5829,-3.66,-3.7915,-3.8391,-3.8391,-3.8391,-3.8391,-3.8391,-3.8391,-3.8391,-3.8391,-3.8391,-3.8492,-3.8588,-3.8616,-3.8821,-3.8996,-3.9023,-3.9175,-3.9299,-3.9299,-3.9299,-3.9299,-3.9299,-3.9299,-3.9299,-3.9299,-3.9299,-3.9299,-3.9299,-3.9299,-3.9547,-4.021,-4.031,-4.0514,-4.1143,-4.0647,-4.031,-4.031,-3.9696,-3.953,-4.0028,-4.0521,-4.1071,-4.1661,-4.2786,-4.3729,-4.4478,-4.4496,-4.4496,-4.4496,-4.5231,-4.5178,-4.4407,-4.5231,-4.5641,-2.79,-2.784,0.0,0.0,-2.7078,-2.6571,-2.7294,-2.7359,-2.7149,-2.672,-2.7591,-2.8474,-2.8474,-2.8498,-2.851,-2.851,-2.851,-2.851,-2.851,-2.851,-2.851,-2.851,-2.851,-2.851,-2.851,-2.851,-2.8294,-2.7726,-2.7678,-2.763,-2.7522,-2.7978,-2.8467,-2.8907,-2.9335,-2.9549,-2.9617,-2.9602,-2.9741,-3.0036,-3.008,-3.0249,-3.0538,-3.0538,-3.0568,-3.0598,-3.0598,-3.0598,-3.0598,-3.0598,-3.0945,-3.1495,-3.1495,-3.2324,-3.3652,-3.4926,-3.5829,-3.66,-3.7915,-3.8391,-3.8391,-3.8391,-3.8391,-3.8391,-3.8391,-3.8391,-3.8391,-3.8391,-3.8492,-3.8616,-3.8738,-3.8887,-3.9023,-3.9218,-3.9272,-3.9299,-3.9299,-3.9299,-3.9299,-3.9299,-3.9299,-3.9299,-3.9299,-3.9299,-3.9299,-3.9299,-3.9299,-3.9365,-3.9514,-3.9547,-3.9597,-3.9746,-3.963,-3.9547,-3.9547,-3.9398,-3.9687,-4.0587,-4.0731,-4.1476,-4.3006,-4.2724,-4.2929,-4.3711,-4.3729,-4.3729,-4.3729,-4.3907,-4.359,-4.2804,-4.3625,-4.43,-2.8642,0.0,0.0,-2.9755,0.0,-2.8761,-2.9056,-2.9575,-2.9792,-2.9064,-2.9374,-2.9772,-2.9772,-2.9455,-2.9217,-2.9217,-2.8998,-2.8788,-2.8788,-2.8788,-2.8788,-2.8788,-2.8697,-2.8697,-2.8788,-2.863,-2.843,-2.8219,-2.8129,-2.8102,-2.8102,-2.8571,-2.9009,-2.9529,-2.9693,-2.989,-3.0178,-2.9868,-2.9867,-3.0189,-3.0189,-3.0341,-3.0598,-3.0598,-3.0598,-3.0598,-3.0598,-3.0598,-3.0598,-3.0598,-3.0801,-3.1061,-3.1061,-3.1874,-3.3135,-3.4134,-3.5278,-3.6538,-3.7565,-3.8119,-3.8391,-3.8391,-3.8391,-3.8391,-3.8391,-3.8448,-3.8492,-3.8492,-3.8644,-3.8821,-3.8887,-3.9023,-3.9175,-3.9272,-3.9299,-3.9299,-3.9299,-3.9299,-3.9299,-3.9299,-3.9299,-3.9299,-3.9299,-3.9299,-3.9299,-3.9299,-3.9299,-3.9299,-3.9299,-3.9299,-3.9448,-3.9796,-3.9514,-3.9448,-3.9812,-3.9497,-3.9738,-4.0731,-4.0802,-4.1434,-4.287,-4.2519,-4.268,-4.3479,-4.3126,-4.2929,-4.2929,-4.3322,-4.309,-4.2325,-4.3126,-4.3693,-2.8715,0.0,-3.092,-3.1132,-3.1105,0.0,-3.0751,-3.1407,-3.193,-3.132,-3.1003,-3.0865,-3.0865,-3.0478,-3.0154,-3.0154,-2.9635,-2.9278,-2.9278,-2.9153,-2.9091,-2.9091,-2.8961,-2.8922,-2.9091,-2.8776,-2.8657,-2.8843,-2.8657,-2.859,-2.859,-2.9184,-2.9707,-3.0095,-3.0219,-3.0521,-3.102,-3.0335,-3.0133,-3.0485,-3.04,-3.0447,-3.0598,-3.0598,-3.0598,-3.0598,-3.0598,-3.0598,-3.0598,-3.0598,-3.0598,-3.0598,-3.0598,-3.1366,-3.2576,-3.3239,-3.4728,-3.6508,-3.7163,-3.7844,-3.8391,-3.8391,-3.8391,-3.8391,-3.8391,-3.8476,-3.8588,-3.8588,-3.8794,-3.8996,-3.8996,-3.9148,-3.9299,-3.9299,-3.9299,-3.9299,-3.9299,-3.9299,-3.9299,-3.9299,-3.9299,-3.9299,-3.9299,-3.9299,-3.9299,-3.9299,-3.9299,-3.9299,-3.9299,-3.9299,-3.958,-4.0326,-3.9746,-3.9647,-4.0509,-3.9976,-4.006,-4.1109,-4.1132,-4.1525,-4.2481,-4.2358,-4.2608,-4.3286,-4.2626,-4.2308,-4.2308,-4.3108,-4.309,-4.2325,-4.3126,-4.3497,0.0,0.0,-3.211,0.0,-3.2153,-3.1716,0.0,0.0,-3.1879,-3.2642,-3.1875,-3.1042,-3.1042,-3.0857,-3.0671,-3.0671,-3.0241,-2.9868,-2.9868,-2.9438,-2.9091,-2.9091,-2.9091,-2.9052,-2.9091,-2.9052,-2.9013,-2.9052,-2.8882,-2.8843,-2.9013,-2.8961,-2.9414,-3.0483,-3.0391,-3.0777,-3.1821,-3.1066,-3.0817,-3.1161,-3.0752,-3.0568,-3.0598,-3.0598,-3.0598,-3.0598,-3.0598,-3.0598,-3.0598,-3.0598,-3.0598,-3.0598,-3.0598,-3.1366,-3.2576,-3.3239,-3.4728,-3.6508,-3.7163,-3.7844,-3.8391,-3.8391,-3.8391,-3.8391,-3.8391,-3.8476,-3.8588,-3.8588,-3.8794,-3.8996,-3.8996,-3.9148,-3.9299,-3.9299,-3.9299,-3.9299,-3.9299,-3.9299,-3.9299,-3.9299,-3.9299,-3.9299,-3.9299,-3.9299,-3.9299,-3.9299,-3.9299,-3.9299,-3.9299,-3.9299,-3.958,-4.0326,-3.9746,-3.9846,-4.116,-4.108,-4.1444,-4.2632,-4.2538,-4.2709,-4.3319,-4.2662,-4.2341,-4.2448,-4.2341,-4.2308,-4.2308,-4.3108,-4.309,-4.2325,-4.3126,-4.3497,-3.0821,-3.1625,-3.2353,0.0,-3.2754,-3.2581,-3.2982,-3.2754,-3.2581,-3.3025,-3.2649,-3.2214,-3.2214,-3.1868,-3.1601,-3.1601,-3.0876,-3.0341,-3.0341,-2.9856,-2.9507,-2.9507,-2.9365,-2.9326,-2.9468,-2.926,-2.917,-2.9275,-2.9079,-2.9197,-2.9729,-2.9678,-3.0315,-3.1721,-3.1311,-3.1606,-3.2676,-3.1994,-3.1556,-3.1401,-3.0857,-3.0598,-3.0598,-3.0598,-3.0598,-3.0598,-3.0598,-3.0598,-3.0598,-3.0598,-3.0598,-3.0598,-3.0598,-3.1148,-3.2067,-3.3105,-3.4486,-3.5998,-3.7051,-3.7844,-3.8391,-3.8391,-3.8391,-3.8391,-3.8492,-3.8616,-3.8738,-3.8794,-3.8985,-3.9175,-3.9175,-3.9245,-3.9299,-3.9299,-3.9299,-3.9299,-3.9299,-3.9299,-3.9299,-3.9299,-3.9299,-3.9299,-3.9299,-3.9299,-3.9299,-3.9299,-3.9299,-3.9299,-3.9299,-3.9299,-3.958,-4.0326,-3.9746,-4.0014,-4.1758,-4.148,-4.186,-4.3408,-4.3425,-4.3588,-4.4103,-4.3393,-4.2965,-4.2965,-4.2519,-4.2308,-4.2308,-4.2662,-4.2644,-4.2325,-4.3126,-4.3268,0.0,0.0,-3.2215,-3.3068,-3.3181,-3.3162,0.0,0.0,-3.3124,-3.3124,-3.3124,-3.3124,-3.3124,-3.2717,-3.2428,-3.2428,-3.1637,-3.1022,-3.1022,-3.0432,-3.007,-3.0239,-2.9842,-2.9664,-3.0024,-2.9611,-2.9326,-2.947,-2.9314,-2.947,-3.0152,-3.0292,-3.102,-3.2511,-3.2199,-3.2498,-3.3503,-3.2742,-3.2052,-3.148,-3.0872,-3.0598,-3.0598,-3.0598,-3.0598,-3.0598,-3.0598,-3.0598,-3.0598,-3.0598,-3.0598,-3.0598,-3.0598,-3.1061,-3.1893,-3.3061,-3.441,-3.5828,-3.6974,-3.7844,-3.8391,-3.8391,-3.842,-3.8464,-3.8576,-3.8711,-3.8887,-3.8969,-3.9148,-3.9299,-3.9299,-3.9299,-3.9299,-3.9299,-3.9299,-3.9299,-3.9299,-3.9299,-3.9299,-3.9299,-3.9299,-3.9299,-3.9299,-3.9299,-3.9299,-3.9299,-3.9299,-3.9299,-3.9299,-3.9299,-3.9663,-4.0547,-4.0011,-4.0417,-4.2476,-4.2091,-4.2416,-4.3969,-4.3999,-4.4197,-4.4671,-4.3983,-4.3547,-4.3497,-4.2912,-4.2483,-4.2308,-4.2501,-4.2483,-4.2325,-4.3126,-4.3072,0.0,-3.1411,0.0,-3.3445,-3.347,-3.3219,0.0,0.0,-3.3124,-3.3124,-3.3124,-3.3124,-3.3124,-3.3056,-3.3031,-3.3031,-3.2528,-3.2127,-3.2127,-3.1235,-3.0822,-3.1526,-3.0522,-3.0062,-3.0758,-3.0203,-2.9753,-2.9792,-2.9521,-2.9509,-2.983,-3.0305,-3.1044,-3.211,-3.2648,-3.3367,-3.4337,-3.3104,-3.2147,-3.148,-3.0872,-3.0598,-3.0598,-3.0598,-3.0598,-3.0598,-3.0598,-3.0598,-3.0598,-3.0598,-3.0598,-3.0598,-3.0598,-3.1351,-3.2518,-3.3224,-3.4698,-3.6461,-3.7147,-3.7844,-3.8391,-3.8391,-3.8492,-3.8588,-3.8588,-3.8766,-3.8996,-3.8996,-3.9148,-3.9299,-3.9299,-3.9299,-3.9299,-3.9299,-3.9299,-3.9299,-3.9299,-3.9299,-3.9299,-3.9299,-3.9299,-3.9299,-3.9299,-3.9299,-3.9299,-3.9299,-3.9299,-3.9299,-3.9299,-3.9299,-3.9846,-4.121,-4.0729,-4.1221,-4.3359,-4.3373,-4.3627,-4.4416,-4.4239,-4.4366,-4.4957,-4.422,-4.3689,-4.3497,-4.3444,-4.3054,-4.2308,-4.3072,-4.3054,-4.2325,-4.3126,-4.3072,0.0,0.0,0.0,-3.2621,-3.3293,-3.382,-3.3903,-3.3746,-3.3608,-3.3608,-3.3319,-3.3124,-3.3124,-3.3124,-3.3283,-3.3865,-3.2958,-3.2606,-3.3712,-3.2371,-3.1616,-3.2431,-3.1337,-3.062,-3.0857,-3.0241,-2.9792,-2.9792,-3.0152,-3.038,-3.052,-3.1636,-3.242,-3.2791,-3.35,-3.4059,-3.4414,-3.3558,-3.3006,-3.2759,-3.1685,-3.1177,-3.1163,-3.0786,-3.0598,-3.0598,-3.0598,-3.0598,-3.0598,-3.0598,-3.0598,-3.0641,-3.1032,-3.1467,-3.2038,-3.3522,-3.4804,-3.5921,-3.7035,-3.7844,-3.8391,-3.8504,-3.856,-3.8616,-3.8794,-3.8914,-3.9023,-3.9148,-3.9228,-3.9299,-3.9299,-3.9299,-3.9431,-3.9895,-4.0315,-4.0647,-4.0647,-4.0299,-3.9879,-3.9398,-3.968,-3.9862,-3.9381,-3.9299,-3.9299,-3.9299,-3.9299,-3.9481,-3.9945,-4.0011,-4.0348,-4.1309,-4.1193,-4.171,-4.3339,-4.3428,-4.3854,-4.4966,-4.5286,-4.5299,-4.5021,-4.4569,-4.4054,-4.3497,-4.3001,-4.259,-4.2308,-4.259,-4.2573,-4.2325,-4.3126,-4.3111,-3.0536,0.0,0.0,0.0,-3.3313,-3.3781,-3.4451,-3.4205,-3.3897,-3.3897,-3.3608,-3.3294,-3.3106,-3.3326,-3.3738,-3.4314,-3.3796,-3.3757,-3.4912,-3.3697,-3.2976,-3.3618,-3.2465,-3.1628,-3.1673,-3.0996,-3.047,-3.0177,-3.062,-3.0796,-3.0545,-3.1988,-3.3087,-3.3589,-3.3859,-3.4113,-3.4414,-3.3823,-3.3503,-3.3489,-3.2367,-3.1712,-3.148,-3.1076,-3.0801,-3.0598,-3.0598,-3.0598,-3.0598,-3.0598,-3.0598,-3.067,-3.1264,-3.1656,-3.2038,-3.3774,-3.4986,-3.5905,-3.699,-3.7873,-3.8476,-3.856,-3.8672,-3.8782,-3.8942,-3.9067,-3.9121,-3.9272,-3.9299,-3.9299,-3.9299,-3.9481,-3.9862,-4.0591,-4.1077,-4.1409,-4.1409,-4.1061,-4.058,-4.0083,-4.0382,-4.058,-4.0111,-3.9984,-3.9984,-3.9984,-3.9984,-4.0166,-4.0663,-4.0729,-4.0994,-4.1707,-4.1789,-4.2214,-4.3356,-4.3452,-4.3822,-4.4667,-4.5125,-4.5269,-4.5102,-4.4935,-4.4536,-4.3872,-4.334,-4.2822,-4.2308,-4.2308,-4.2308,-4.2308,-4.29,-4.3087,0.0,0.0,0.0,0.0,0.0,0.0,-3.5314,-3.4805,-3.3916,-3.3954,-3.3941,-3.3796,-3.328,-3.392,-3.4494,-3.4481,-3.5128,-3.5615,-3.5655,-3.5178,-3.4904,-3.5041,-3.3859,-3.3106,-3.3241,-3.2555,-3.1783,-3.0994,-3.097,-3.0658,-2.9856,-3.1257,-3.2804,-3.4312,-3.3638,-3.3624,-3.438,-3.3804,-3.3532,-3.3518,-3.2846,-3.2176,-3.1553,-3.1509,-3.1177,-3.0641,-3.0612,-3.0598,-3.0598,-3.0598,-3.0598,-3.067,-3.1293,-3.1946,-3.2649,-3.3921,-3.5243,-3.6508,-3.7163,-3.7931,-3.8604,-3.8616,-3.8794,-3.8996,-3.8996,-3.9148,-3.9299,-3.9299,-3.9299,-3.9315,-3.9332,-3.9895,-4.0613,-4.1293,-4.1458,-4.1446,-4.1446,-4.1446,-4.1458,-4.1397,-4.1425,-4.1413,-4.1409,-4.1409,-4.1409,-4.1409,-4.1409,-4.1397,-4.1413,-4.1413,-4.1695,-4.244,-4.2522,-4.282,-4.3532,-4.3598,-4.3598,-4.3598,-4.3611,-4.4145,-4.5216,-4.5294,-4.5067,-4.4563,-4.4567,-4.3822,-4.2308,-4.2308,-4.2308,-4.2308,-4.2445,-4.2976,-3.0445,0.0,0.0,0.0,0.0,0.0,-3.4126,-3.3722,-3.3683,-3.5427,-3.5109,-3.4782,-3.548,-3.6334,-3.6765,-3.6284,-3.5883,-3.6029,-3.7309,-3.6427,-3.5915,-3.6573,-3.5026,-3.3882,-3.3944,-3.2817,-3.2001,0.0,-3.2241,-3.1988,-3.0658,-3.1563,-3.2541,-3.3485,-3.3894,-3.4147,-3.4414,-3.424,-3.4153,-3.4138,-3.3514,-3.314,-3.289,-3.1946,-3.1424,-3.1235,-3.0801,-3.0598,-3.0598,-3.0598,-3.0598,-3.0714,-3.1801,-3.2353,-3.2643,-3.3915,-3.5317,-3.6584,-3.6753,-3.7663,-3.8766,-3.8876,-3.8958,-3.9023,-3.9175,-3.9272,-3.9299,-3.9299,-3.9299,-3.9431,-3.9962,-4.0994,-4.1988,-4.2142,-4.2589,-4.2986,-4.2986,-4.2986,-4.2671,-4.1624,-4.1839,-4.2026,-4.148,-4.1409,-4.1409,-4.1409,-4.1409,-4.1579,-4.2109,-4.2191,-4.2473,-4.3218,-4.33,-4.3367,-4.3582,-4.3598,-4.3598,-4.3598,-4.4384,-4.4717,-4.444,-4.5218,-4.5083,-4.3818,-4.38,-4.3304,-4.2308,-4.2308,-4.2346,-4.2445,-4.2625,-4.3158,-3.0457,0.0,0.0,0.0,0.0,0.0,-3.4282,-3.4334,-3.4476,-3.5713,-3.5774,-3.5776,-3.6225,-3.7085,-3.7604,-3.7211,-3.7011,-3.7256,-3.8202,-3.7667,-3.7261,-3.7514,-3.6425,-3.5525,-3.5218,-3.4143,-3.3336,-3.3013,-3.3121,-3.267,-3.1489,-3.1526,-3.2096,-3.3178,-3.3659,-3.4079,-3.4414,-3.4414,-3.4414,-3.4414,-3.4037,-3.375,-3.346,-3.2396,-3.1756,-3.1451,-3.0843,-3.0598,-3.0598,-3.0598,-3.0598,-3.0728,-3.2004,-3.2481,-3.2704,-3.4303,-3.5627,-3.6646,-3.6964,-3.7879,-3.8887,-3.8969,-3.905,-3.9148,-3.9272,-3.9299,-3.9299,-3.9299,-3.9514,-3.9928,-4.0613,-4.1657,-4.2572,-4.2886,-4.3284,-4.3598,-4.3598,-4.3598,-4.335,-4.2473,-4.2655,-4.282,-4.2373,-4.2307,-4.2307,-4.2307,-4.2307,-4.2456,-4.2886,-4.2953,-4.3118,-4.3549,-4.3598,-4.3598,-4.3598,-4.3598,-4.37,-4.3948,-4.4292,-4.4629,-4.4972,-4.4964,-4.4654,-4.3961,-4.3658,-4.3129,-4.2387,-4.2387,-4.2465,-4.2625,-4.2743,-4.3075,-3.0761,-3.0911,0.0,-3.3292,-3.313,0.0,-3.5061,-3.5534,-3.5505,-3.54,-3.6074,-3.6603,-3.6296,-3.7011,-3.761,-3.7553,-3.8323,-3.8848,-3.8567,-3.8686,-3.8576,-3.8045,-3.779,-3.7381,-3.6775,-3.5991,-3.5206,-3.4376,-3.3543,-3.2755,-3.2001,-3.1378,-3.1659,-3.3038,-3.3248,-3.3673,-3.438,-3.4414,-3.4414,-3.4414,-3.4414,-3.4124,-3.3576,-3.2846,-3.2162,-3.1553,-3.0872,-3.0598,-3.0598,-3.0598,-3.0641,-3.083,-3.2034,-3.2556,-3.2888,-3.4872,-3.6056,-3.6768,-3.7573,-3.8367,-3.9023,-3.9023,-3.9148,-3.9299,-3.9299,-3.9299,-3.9299,-3.9299,-3.9895,-4.0658,-4.1259,-4.1993,-4.2787,-4.3433,-4.3598,-4.3598,-4.3598,-4.3598,-4.3598,-4.3598,-4.3598,-4.3598,-4.3598,-4.3598,-4.3598,-4.3598,-4.3598,-4.3598,-4.3598,-4.3598,-4.3565,-4.3482,-4.3466,-4.3466,-4.3466,-4.3459,-4.3718,-4.4328,-4.3728,-4.4129,-4.5881,-4.4612,-4.4069,-4.4478,-4.3768,-4.3099,-4.2524,-4.2524,-4.2643,-4.2803,-4.2803,-4.2842,-3.1589,-3.1431,-3.1349,-3.293,-3.2731,0.0,-3.4067,-3.4038,-3.4248,-3.6189,-3.6344,-3.657,-3.7991,-3.8389,-3.8377,-3.7821,-3.8922,-3.9587,-3.8834,-3.8797,-3.8738,-3.862,-3.8178,-3.7716,-3.7425,-3.6754,-3.6015,-3.5227,-3.3401,-3.1965,-3.1193,-3.1599,-3.2001,-3.229,-3.3534,-3.423,-3.4414,-3.4414,-3.4414,-3.4414,-3.4414,-3.4356,-3.4196,-3.305,-3.2423,-3.2251,-3.1121,-3.0598,-3.0598,-3.0598,-3.0872,-3.1409,-3.2176,-3.2914,-3.3633,-3.5053,-3.6182,-3.7115,-3.7793,-3.8579,-3.9245,-3.9245,-3.9272,-3.9299,-3.9299,-3.9299,-3.9299,-3.9299,-4.0216,-4.1243,-4.1375,-4.2373,-4.3416,-4.3565,-4.3598,-4.3598,-4.3598,-4.3598,-4.3598,-4.3598,-4.3598,-4.3598,-4.3598,-4.3598,-4.3598,-4.3598,-4.3598,-4.3598,-4.3598,-4.3598,-4.3367,-4.2771,-4.2704,-4.2704,-4.2704,-4.2568,-4.2772,-4.3489,-4.3623,-4.3871,-4.426,-4.4372,-4.4213,-4.3711,-4.3048,-4.2707,-4.2743,-4.2743,-4.2745,-4.2803,-4.2861,-4.29,-3.1846,-3.1846,-3.1919,-3.3388,-3.3478,0.0,0.0,-3.4587,-3.4889,-3.5604,-3.62,-3.6728,-3.7379,-3.781,-3.8089,-3.8109,-3.8731,-3.9213,-3.9104,-3.9387,-3.9461,-3.9134,-3.875,-3.8449,-3.8361,-3.7678,-3.6772,-3.5653,-3.3788,-3.2336,-3.1539,-3.1489,-3.1489,-3.1489,-3.3017,-3.3811,-3.3811,-3.4196,-3.4414,-3.4414,-3.4095,-3.3935,-3.3891,-3.2614,-3.1988,-3.193,-3.1019,-3.0598,-3.0598,-3.0598,-3.1209,-3.2188,-3.2523,-3.3098,-3.3891,-3.5353,-3.6399,-3.7205,-3.7937,-3.8689,-3.9299,-3.9299,-3.9299,-3.9299,-3.9299,-3.9299,-3.9299,-3.9299,-4.0299,-4.1409,-4.1409,-4.2489,-4.3598,-4.3598,-4.3598,-4.3598,-4.3598,-4.3598,-4.3598,-4.3598,-4.3598,-4.3598,-4.3598,-4.3598,-4.3598,-4.3598,-4.3598,-4.3598,-4.3598,-4.3267,-4.2903,-4.2539,-4.2158,-4.1943,-4.1943,-4.2093,-4.2458,-4.3106,-4.3183,-4.3499,-4.4173,-4.3789,-4.3391,-4.3056,-4.2783,-4.2704,-4.2803,-4.2823,-4.2861,-4.2861,-4.2881,-4.3118,-3.2399,-3.2586,-3.285,-3.4365,-3.4515,-3.4424,0.0,0.0,0.0,-3.4938,-3.5873,-3.6669,-3.6335,-3.6779,-3.7404,-3.7943,-3.8227,-3.8542,-3.8975,-3.9589,-3.9873,-3.9433,-3.9265,-3.9141,-3.9104,-3.8278,-3.7143,-3.5793,-3.4228,-3.2987,-3.216,-3.1623,-3.1291,-3.1156,-3.2648,-3.3367,-3.3178,-3.4011,-3.4414,-3.4399,-3.3808,-3.3503,-3.346,-3.2121,-3.1495,-3.1451,-3.0843,-3.0598,-3.0598,-3.0642,-3.1505,-3.2796,-3.2796,-3.3299,-3.4165,-3.5651,-3.6616,-3.7265,-3.8023,-3.8745,-3.9299,-3.9299,-3.9299,-3.9299,-3.9299,-3.9299,-3.9299,-3.9299,-4.0299,-4.1409,-4.1409,-4.2489,-4.3598,-4.3598,-4.3598,-4.3598,-4.3598,-4.3598,-4.3598,-4.3598,-4.3598,-4.3598,-4.3598,-4.3598,-4.3598,-4.3598,-4.3598,-4.3598,-4.3598,-4.2953,-4.244,-4.2291,-4.1657,-4.1238,-4.1333,-4.1701,-4.2228,-4.2926,-4.273,-4.3059,-4.4164,-4.3128,-4.2566,-4.2629,-4.2745,-4.2803,-4.2822,-4.2862,-4.2901,-4.2901,-4.2901,-4.3317,-3.44,-3.4355,-3.4328,-3.5857,-3.5251,-3.4509,-3.5269,0.0,-3.5544,-3.5431,0.0,-3.5845,-3.6354,0.0,0.0,0.0,-3.7644,-3.8212,-3.7704,-3.8197,-3.8811,-3.9349,-3.9388,-3.9301,-3.9104,-3.7828,-3.6643,-3.5762,-3.4335,-3.3129,-3.2321,-3.2706,-3.2648,-3.1965,-3.3465,-3.3928,-3.3213,-3.4011,-3.4414,-3.4399,-3.3808,-3.3503,-3.346,-3.2121,-3.1495,-3.1451,-3.0843,-3.0598,-3.0598,-3.0732,-3.1581,-3.2796,-3.2796,-3.3706,-3.5142,-3.5928,-3.6692,-3.7458,-3.808,-3.8745,-3.9299,-3.9299,-3.9299,-3.9299,-3.9299,-3.9299,-3.9299,-3.9299,-4.0299,-4.1409,-4.1409,-4.2489,-4.3598,-4.3598,-4.3598,-4.3598,-4.3598,-4.3598,-4.3598,-4.3598,-4.3598,-4.3598,-4.3598,-4.3598,-4.3598,-4.3598,-4.3598,-4.3598,-4.3598,-4.2953,-4.2241,-4.1579,-4.0912,-4.0683,-4.1115,-4.1024,-4.1479,-4.274,-4.263,-4.2606,-4.2819,-4.2659,-4.2667,-4.2764,-4.2783,-4.2823,-4.29,-4.29,-4.2901,-4.2901,-4.2901,-4.3317,-3.5378,-3.5339,-3.5111,-3.6227,-3.5722,-3.5085,-3.5424,-3.5504,-3.5385,-3.4996,0.0,0.0,0.0,0.0,0.0,0.0,-3.6941,-3.7315,-3.7404,-3.7644,-3.8212,-3.9254,0.0,0.0,-3.8674,-3.8141,-3.7603,-3.7183,-3.5429,-3.4157,-3.3591,-3.2993,-3.2299,-3.1452,-3.2911,-3.3346,-3.2577,-3.3791,-3.4414,-3.4399,-3.3398,-3.2919,-3.2875,-3.1569,-3.0974,-3.0945,-3.0714,-3.0642,-3.0761,-3.1201,-3.2056,-3.3125,-3.348,-3.4253,-3.5246,-3.5636,-3.6227,-3.6875,-3.7131,-3.7634,-3.8254,-3.8606,-3.898,-3.9299,-3.9299,-3.9299,-3.9398,-3.9829,-4.063,-4.1508,-4.1926,-4.2804,-4.3598,-4.3598,-4.3598,-4.3598,-4.3598,-4.3598,-4.3598,-4.3598,-4.3598,-4.3598,-4.3598,-4.3598,-4.3598,-4.3598,-4.3598,-4.3598,-4.3598,-4.2953,-4.2208,-4.1491,-4.0796,-4.0427,-4.0476,-4.07,-4.1215,-4.2102,-4.2406,-4.2607,-4.2725,-4.2725,-4.2746,-4.2861,-4.2861,-4.2862,-4.2901,-4.2901,-4.2901,-4.2901,-4.2901,-4.357,-3.5825,-3.606,-3.6011,-3.6581,-3.6252,-3.5729,-3.5549,-3.5504,-3.5415,-3.51,-3.5429,0.0,0.0,0.0,0.0,0.0,0.0,-3.6641,0.0,-3.7,-3.7375,-3.8706,0.0,0.0,0.0,-3.8332,-3.8162,-3.8266,-3.6447,-3.5288,-3.523,-3.3967,-3.2726,-3.1591,-3.2838,-3.3087,-3.211,-3.3618,-3.4414,-3.4366,-3.3122,-3.2481,-3.2452,-3.1163,-3.0612,-3.0642,-3.0642,-3.0834,-3.1174,-3.1718,-3.2548,-3.3611,-3.4088,-3.4684,-3.5294,-3.5439,-3.5878,-3.6399,-3.6399,-3.6951,-3.7706,-3.8165,-3.8745,-3.9299,-3.9299,-3.9448,-3.9713,-4.026,-4.1028,-4.1811,-4.2357,-4.3035,-4.3598,-4.3598,-4.3598,-4.3598,-4.3598,-4.3598,-4.3598,-4.3598,-4.3598,-4.3598,-4.3598,-4.3598,-4.3598,-4.3598,-4.3598,-4.3598,-4.3598,-4.2953,-4.2274,-4.1744,-4.0939,-4.0431,-4.0358,-4.071,-4.1241,-4.1945,-4.2434,-4.2727,-4.2804,-4.2841,-4.2861,-4.2901,-4.2901,-4.2901,-4.2901,-4.2901,-4.3009,-4.3226,-4.3226,-4.3969,0.0,0.0,0.0,-3.7375,-3.6911,-3.6297,-3.5654,-3.5504,-3.5684,-3.6297,-3.6432,-3.6626,0.0,0.0,0.0,0.0,0.0,0.0,0.0,0.0,-3.6043,-3.7315,-3.8003,0.0,0.0,-3.8197,-3.7704,0.0,-3.7024,-3.6427,-3.7099,-3.6143,-3.4852,-3.3294,-3.3972,-3.3638,-3.211,-3.3618,-3.4414,-3.4366,-3.3122,-3.2481,-3.2452,-3.1163,-3.0672,-3.0791,-3.0791,-3.1232,-3.1972,-3.2182,-3.3045,-3.4205,-3.4394,-3.4891,-3.5504,-3.5504,-3.5878,-3.6399,-3.6399,-3.7205,-3.8278,-3.8278,-3.8745,-3.9299,-3.9299,-3.9812,-4.0376,-4.0393,-4.1392,-4.2456,-4.2489,-4.3035,-4.3598,-4.3598,-4.3598,-4.3598,-4.3598,-4.3598,-4.3598,-4.3598,-4.3598,-4.3598,-4.3598,-4.3598,-4.3598,-4.3598,-4.3598,-4.3598,-4.3598,-4.2953,-4.2473,-4.2456,-4.1338,-4.0766,-4.1214,-4.1157,-4.1565,-4.2688,-4.2843,-4.2882,-4.29,-4.29,-4.29,-4.2901,-4.2901,-4.2901,-4.2901,-4.2901,-4.3299,-4.4059,-4.4059,-4.4512,0.0,0.0,-3.6896,-3.73,0.0,0.0,-3.6103,-3.5818,-3.5684,-3.6357,-3.6492,-3.6671,-3.73,0.0,0.0,0.0,0.0,0.0,0.0,0.0,-3.5833,-3.6701,-3.7749,0.0,0.0,0.0,-3.8153,-3.8377,-3.7515,-3.7237,-3.7838,-3.6719,-3.5432,-3.4162,-3.443,-3.4045,-3.2826,-3.3859,-3.4414,-3.4399,-3.3558,-3.2919,-3.2452,-3.1598,-3.1065,-3.0791,-3.0791,-3.1337,-3.2227,-3.2763,-3.3539,-3.4454,-3.4949,-3.5295,-3.5504,-3.5504,-3.5619,-3.5797,-3.5797,-3.6646,-3.7706,-3.7706,-3.8423,-3.9398,-3.9879,-4.021,-4.0608,-4.1524,-4.2109,-4.2605,-4.3085,-4.34,-4.3598,-4.3598,-4.3598,-4.3598,-4.3598,-4.3598,-4.3598,-4.3598,-4.3598,-4.3598,-4.3598,-4.3598,-4.3598,-4.3598,-4.3598,-4.3598,-4.3598,-4.3518,-4.3228,-4.2746,-4.1955,-4.1596,-4.1933,-4.211,-4.2396,-4.2843,-4.29,-4.2901,-4.2901,-4.2901,-4.2901,-4.2901,-4.2901,-4.2901,-4.2901,-4.2901,-4.3046,-4.3336,-4.3842,-4.482,-3.6374,-3.6592,0.0,-3.6985,-3.6462,0.0,-3.6387,0.0,-3.6043,-3.6686,-3.7,-3.721,-3.7375,0.0,0.0,0.0,0.0,0.0,0.0,-3.5774,0.0,-3.6088,-3.7075,-3.7569,0.0,-3.7285,-3.7749,-3.8691,-3.7719,-3.7535,0.0,-3.754,-3.6314,-3.5075,-3.5053,-3.4481,-3.3332,-3.4031,-3.4414,-3.4399,-3.3808,-3.3318,-3.2914,-3.2273,-3.1711,-3.1337,-3.1602,-3.2092,-3.278,-3.3435,-3.4185,-3.4891,-3.5325,-3.5504,-3.5504,-3.5504,-3.5504,-3.5537,-3.5733,-3.6523,-3.7429,-3.7648,-3.8439,-3.9448,-4.0194,-4.0591,-4.0994,-4.2187,-4.2688,-4.2986,-4.3466,-4.3598,-4.3598,-4.3598,-4.3598,-4.3598,-4.3598,-4.3598,-4.3598,-4.3598,-4.3598,-4.3598,-4.3598,-4.3598,-4.3598,-4.3598,-4.3658,-4.3704,-4.3704,-4.3852,-4.3685,-4.2934,-4.2751,-4.2672,-4.2694,-4.2617,-4.2689,-4.2882,-4.2901,-4.2901,-4.2901,-4.2901,-4.2901,-4.2901,-4.2901,-4.2901,-4.2901,-4.2901,-4.3064,-4.3317,-4.357,-4.453]}]]